     2              OBSERVATION DATA    G (GPS)             RINEX VERSION / TYPE
TRRINEXO V2.3.4 LH UCLA / SCEC 29-JUL-94 16:06              PGM / RUN BY / DATE
DONATED TO SCEC ARCHIVE BY: NATIONAL GEODETIC SURVEY        COMMENT
PROJECT NAME: NGS hpgn 1993-1994                            COMMENT
ARCHIVED BY: SOUTHERN CALIFORNIA EARTHQUAKE CENTER (SCEC)   COMMENT
ANTENNA DELTA H: DIRECT HEIGHT TO PRE-AMP BASE (DHPAB)      COMMENT
NOTE:                                                       COMMENT
PROBLEM: NONE                                               COMMENT
FOR FURTHER INFORMATION CONTACT: DAVE JACKSON               COMMENT
UCLA / GEOLOGY BLDG., 595 CIRCLE DR E. RM 3806              COMMENT
LOS ANGELES CA 90024 DJACKSON@ESS.UCLA.EDU                  COMMENT
ANTENNA ON FIXED HEIGHT KINEMATIC POLE                      COMMENT
BIT 2 OF LLI (+4) FLAGS DATA COLLECTED UNDER "AS" CONDITION COMMENT
BLACK BUTTE NCMN 1982                                       MARKER NAME
J.D. DIMARE NGS                                             OBSERVER / AGENCY
1571 TRIMBLE 4000 SSE 5.60                                  REC # / TYPE / VERS
747 TRIMBLE 4000 SSE                                        ANT # / TYPE
 -2306307.0000 -4787914.0000  3515736.0000                  APPROX POSITION XYZ
        2.2200        0.0000        0.0000                  ANTENNA: DELTA H/E/N
     1     1                                                WAVELENGTH FACT L1/2
     4    C1    L1    L2    P2                              # / TYPES OF OBSERV
    30                                                      INTERVAL
  1994     3    22    18    26    0.000000                  TIME OF FIRST OBS
                                                            END OF HEADER
 94  3 22 18 26  0.0000000  0  8 14 31 18 19 22 27 28 29
  24222815.688       97602.44315
  23117252.281      -43517.72416
  20353642.227         429.28318      -482.00419  20353644.020
  21455004.094      -35640.23117    -11058.77919  21455006.566
  24331053.906      237978.65715     43437.55019  24331058.980
  23308806.070     -102191.48916    -19448.99319  23308809.738
  23393312.625      -15415.91216     -3804.29319  23393316.375
  20995646.984      107032.10918     29084.50719  20995648.766
 94  3 22 18 26 30.0000000  0  8 14 31 18 19 22 27 28 29
  24246711.672      223171.067 5     22694.05719  24246718.895
  23106157.445     -101822.978 6    -22879.37219  23106161.676
  20353218.148       -1798.969 8     -2218.267 9  20353219.977
  21451016.344      -56595.562 7    -27387.573 9  21451018.863
  24353518.898      356033.619 5    135428.380 9  24353524.184
  23298365.484     -157055.615 6    -62200.184 9  23298369.328
  23391241.070      -26300.845 6    -12285.983 9  23391245.066
  21005539.148      159017.245 7     69592.405 9  21005540.848
 94  3 22 18 27  0.0000000  0  8 14 31 18 19 22 27 28 29
  24270252.609      346876.448 5    119087.656 9  24270260.770
  23094753.508     -161747.439 6    -69573.644 9  23094757.586
  20352508.672       -5526.278 8     -5122.630 9  20352510.395
  21446701.680      -79269.314 7    -45055.401 9  21446704.223
  24375637.531      472264.738 6    225998.027 9  24375642.781
  23287586.547     -213701.022 6   -106339.385 9  23287590.285
  23388904.984      -38578.561 6    -21852.970 9  23388908.781
  21015153.367      209539.893 8    108960.697 9  21015155.102
 94  3 22 18 27 30.0000000  0  8 14 31 18 19 22 27 28 29
  24293459.906      468830.067 5    214116.233 9  24293466.801
  23083065.633     -223171.382 6   -117436.348 9  23083069.793
  20351539.727      -10617.548 8     -9089.820 9  20351541.461
  21442088.750     -103510.254 7    -63944.412 9  21442091.234
  24397431.203      586793.513 5    315241.191 9  24397436.664
  23276490.195     -272010.167 6   -151775.006 9  23276494.121
  23386323.195      -52144.220 6    -32423.556 9  23386327.074
  21024512.547      258722.154 7    147284.528 9  21024514.422
 94  3 22 18 28  0.0000000  0  8 14 31 18 19 22 27 28 29
  24316352.609      589131.144 5    307857.158 9  24316359.961
  23071113.859     -285974.020 6   -166373.353 9  23071117.996
  20350336.305      -16943.103 8    -14018.796 9  20350337.910
  21437202.266     -129188.785 7    -83953.634 9  21437205.031
  24418926.297      699753.761 5    403262.126 9  24418931.430
  23265100.555     -331866.721 6   -198416.393 9  23265104.363
  23383518.820      -66882.630 6    -43907.992 9  23383522.441
  21033637.836      306676.796 7    184651.769 9  21033639.734
 94  3 22 18 28 30.0000000  0  7 31 18 19 22 27 28 29
  23058923.453     -350035.380 6   -216291.184 9  23058927.941
  20348920.555      -24383.050 8    -19816.134 9  20348922.277
  21432062.211     -156200.715 7   -105001.859 9  21432064.836
  24440146.078      811264.700 5    490153.715 9  24440152.465
  23253435.094     -393167.821 6   -246183.428 9  23253437.988
  23380509.813      -82693.023 6    -56227.737 9  23380513.656
  21042551.414      353516.841 7    221150.492 9  21042553.195
 94  3 22 18 29  0.0000000  0  7 31 18 19 22 27 28 29
  23046518.867     -415221.956 6   -267085.797 9  23046522.523
  20347319.758      -32796.087 8    -26371.730 9  20347321.457
  21426689.414     -184434.786 7   -127002.404 9  21426692.063
  24461114.422      921447.712 5    576010.534 9  24461120.855
  23241516.102     -455802.475 6   -294989.585 9  23241519.676
  23377320.172      -99454.970 6    -69288.975 9  23377324.215
  21051272.875      399348.108 7    256863.152 9  21051274.832
 94  3 22 18 29 30.0000000  0  7 31 18 19 22 27 28 29
  23033920.703     -481425.872 6   -318673.148 9  23033924.980
  20345554.977      -42068.656 8    -33597.086 9  20345556.570
  21421101.820     -213797.443 7   -149882.365 9  21421104.527
  24481851.195     1030420.080 5    660923.969 9  24481856.469
  23229364.227     -519660.013 6   -344748.634 9  23229367.566
  23373972.602     -117046.680 6    -82996.779 9  23373976.691
  21059822.375      444277.026 7    291872.686 9  21059824.367
 94  3 22 18 30  0.0000000  0  7 31 18 19 22 27 28 29
  23021151.125     -548528.750 6   -370960.993 9  23021155.309
  20343648.328      -52088.255 8    -41404.546 9  20343649.852
  21415318.570     -244188.381 7   -173563.575 9  21415321.312
  24502381.578     1138305.754 5    744990.646 9  24502386.676
  23217001.437     -584626.758 6   -395371.996 9  23217005.094
  23370490.414     -135346.038 6    -97256.005 9  23370494.445
  21068219.914      488405.089 7    326258.169 9  21068221.789
 94  3 22 18 30 30.0000000  0  6 31 18 19 27 28 29
  23008228.938     -616434.781 6   -423874.657 9  23008233.379
  20341617.234      -62762.364 8    -49722.016 9  20341618.910
  21409354.805     -275527.111 7   -197983.330 9  21409357.617
  23204445.859     -650608.053 6   -446785.927 9  23204449.516
  23366888.664     -154271.891 6   -112003.408 9  23366893.047
  21076480.320      531814.313 7    360083.517 9  21076482.395
 94  3 22 18 31  0.0000000  0  6 31 18 19 27 28 29
  22995171.750     -685050.860 6   -477341.619 9  22995176.133
  20339474.812      -74020.178 8    -58494.318 9  20339476.395
  21403230.102     -307715.084 8   -223064.826 9  21403232.633
  23191713.008     -717518.316 6   -498923.725 9  23191717.121
  23363188.000     -173721.094 6   -127158.624 9  23363191.656
  21084620.906      574592.068 7    393416.811 9  21084622.863
 94  3 22 18 31 30.0000000  0  6 31 18 19 27 28 29
  22981994.891     -754295.325 6   -531298.244 9  22981999.262
  20337232.781      -85802.274 8    -67675.153 9  20337234.352
  21396957.758     -340675.564 7   -248748.282 9  21396960.301
  23178815.773     -785290.734 6   -551733.344 9  23178819.676
  23359399.453     -193629.746 6   -142671.850 9  23359403.484
  21092655.875      616817.769 7    426319.936 9  21092657.855
 94  3 22 18 32  0.0000000  0  6 31 18 19 27 28 29
  22968709.594     -824110.089 6   -585699.252 9  22968714.305
  20334903.867      -98040.230 8    -77211.205 9  20334905.543
  21390548.641     -374355.289 7   -274992.185 9  21390551.137
  23165762.922     -853887.166 6   -605185.047 9  23165766.391
  23355531.031     -213961.416 6   -158514.711 9  23355534.629
  21100597.422      658550.950 7    458839.270 9  21100599.461
 94  3 22 18 32 30.0000000  0  6 31 18 19 27 28 29
  22955331.883     -894409.971 6   -640478.281 9  22955336.125
  20332500.750     -110668.275 8    -87051.224 9  20332502.238
  21384015.133     -408689.602 7   -301746.161 9  21384017.664
  23152564.680     -923240.315 6   -659226.395 9  23152568.383
  23351593.547     -234650.827 6   -174636.331 9  23351597.109
  21108460.422      699870.023 7    491035.930 9  21108462.391
 94  3 22 18 33  0.0000000  0  6 31 18 19 27 28 29
  22941871.758     -965145.897 6   -695597.097 9  22941875.555
  20330033.219     -123637.142 8    -97156.820 9  20330034.695
  21377368.125     -443619.821 7   -328964.474 9  21377370.656
  23139232.781     -993300.857 6   -713818.971 9  23139236.297
  23347601.375     -255632.169 6   -190985.427 9  23347605.160
  21116254.664      740829.417 7    522952.320 9  21116256.633
 94  3 22 18 33 30.0000000  0  6 31 18 19 27 28 29
  22928337.484    -1036268.448 6   -751017.183 9  22928341.469
  20327512.375     -136883.689 8   -107478.789 9  20327513.887
  21370614.648     -479108.905 7   -356618.272 9  21370617.121
  23125779.016    -1064002.787 6   -768911.320 9  23125782.473
  23343561.727     -276857.723 6   -207524.807 9  23343565.113
  21123987.563      781465.665 7    554616.908 9  21123989.543
 94  3 22 18 34  0.0000000  0  6 31 18 19 27 28 29
  22914738.336    -1107734.850 6   -806705.222 9  22914742.051
  20324946.008     -150370.711 8   -117988.150 9  20324947.461
  21363764.664     -515105.825 7   -384667.784 9  21363767.055
  23112214.930    -1135282.297 6   -824453.744 9  23112218.504
  23339489.742     -298257.778 6   -224200.168 9  23339493.305
  21131666.156      821816.255 7    586058.906 9  21131667.984
 94  3 22 18 34 30.0000000  0  6 31 18 19 27 28 29
  22901082.773    -1179493.512 6   -862620.991 9  22901086.582
  20322340.930     -164060.675 8   -128655.648 9  20322342.336
  21356829.742     -551549.207 8   -413065.195 9  21356832.203
  23098555.648    -1207061.702 6   -880385.703 9  23098558.602
  23335396.844     -319765.842 6   -240959.674 9  23335400.535
  21139298.852      861925.393 7    617312.758 9  21139300.762
 94  3 22 18 35  0.0000000  0  6 31 18 19 27 28 29
  22887374.492    -1251528.610 6   -918752.184 9  22887378.617
  20319703.469     -177919.015 8   -139454.349 9  20319704.922
  21349816.445     -588403.262 7   -441782.612 9  21349818.941
  23084807.672    -1279308.409 6   -936681.776 9  23084810.578
  23331291.477     -341341.536 6   -257771.889 9  23331295.203
  21146892.523      901829.904 7    648407.160 9  21146894.410
 94  3 22 18 35 30.0000000  0  6 31 18 19 27 28 29
  22873622.578    -1323793.665 6   -975062.563 9  22873626.398
  20317042.734     -191902.405 8   -150350.493 9  20317044.047
  21342733.133     -625628.423 8   -470789.211 9  21342735.547
  23070978.469    -1351979.015 6   -993308.172 9  23070981.996
  23327180.906     -362940.569 6   -274602.276 9  23327184.691
  21154459.813      941596.629 7    679394.192 9  21154461.570
 94  3 22 18 36  0.0000000  0  6 31 18 19 27 28 29
  22859835.844    -1396245.190 6  -1031518.248 9  22859839.570
  20314366.406     -205965.780 8   -161308.962 9  20314367.906
  21335586.992     -663181.934 8   -500051.668 9  21335589.430
  23057073.273    -1425052.682 6  -1050248.643 9  23057076.695
  23323072.063     -384531.902 6   -291426.674 9  23323075.555
  21162014.469      981295.627 7    710328.448 9  21162016.215
 94  3 22 18 36 30.0000000  0  6 31 18 19 27 28 29
  22846017.836    -1468860.043 6  -1088101.215 9  22846021.820
  20311685.836     -220053.689 8   -172286.550 9  20311687.488
  21328382.172     -701043.468 8   -529554.132 9  21328384.164
  23043094.422    -1498512.902 6  -1107490.330 9  23043097.715
  23318967.945     -406099.341 6   -308232.433 9  23318971.906
  21169563.516     1020966.611 7    741240.870 9  21169565.191
 94  3 22 18 37  0.0000000  0  6 31 18 19 27 28 29
  22832180.539    -1541576.348 6  -1144763.227 9  22832184.500
  20309011.539     -234107.703 8   -183237.719 9  20309012.840
  21321125.867     -739175.923 8   -559267.705 9  21321128.117
  23029046.016    -1572331.936 6  -1165011.616 9  23029049.309
  23314878.695     -427588.455 6   -324977.164 9  23314882.609
  21177119.320     1060672.120 7    772180.188 9  21177120.949
 94  3 22 18 37 30.0000000  0  6 31 18 19 27 28 29
  22818331.938    -1614350.192 6  -1201470.091 9  22818335.898
  20306346.258     -248113.424 8   -194151.263 9  20306347.453
  21313818.406     -777575.356 8   -589189.325 9  21313820.645
  23014934.719    -1646493.641 6  -1222799.921 9  23014938.258
  23310806.961     -448986.412 6   -341650.870 9  23310810.816
  21184680.086     1100404.506 7    803140.451 9  21184681.809
 94  3 22 18 38  0.0000000  0  6 31 18 19 27 28 29
  22804480.219    -1687140.644 6  -1258189.890 9  22804484.297
  20303696.953     -262035.306 8   -204999.478 9  20303698.254
  21306465.039     -816217.824 8   -619300.317 9  21306467.418
  23000763.711    -1720960.110 6  -1280825.711 9  23000767.332
  23306757.281     -470264.537 6   -358231.193 9  23306761.336
  21192244.297     1140154.030 7    834114.070 9  21192245.914
 94  3 22 18 38 30.0000000  0  6 31 18 19 27 28 29
  22790631.547    -1759915.832 6  -1314897.797 9  22790635.742
  20301069.906     -275840.437 8   -215756.721 9  20301071.266
  21299071.078     -855074.306 8   -649578.084 9  21299073.246
  22986542.859    -1795691.416 6  -1339057.854 9  22986546.445
  23302739.719     -491377.522 6   -374682.839 9  23302743.820
  21199810.133     1179911.453 7    865093.849 9  21199811.773
 94  3 22 18 39  0.0000000  0  6 31 18 19 27 28 29
  22776792.078    -1832642.962 6  -1371568.258 9  22776796.098
  20298464.719     -289530.524 8   -226424.317 9  20298465.984
  21291641.063     -894119.392 8   -680002.815 9  21291643.254
  22972275.273    -1870667.255 6  -1397480.560 9  22972278.766
  23298758.734     -512300.444 6   -390986.390 9  23298762.379
  21207378.953     1219686.559 7    896087.408 9  21207380.699
 94  3 22 18 39 30.0000000  0  6 31 18 19 27 28 29
  22762961.414    -1905321.893 6  -1428201.157 9  22762965.328
  20295884.391     -303091.423 8   -236991.246 9  20295885.621
  21284181.633     -933319.376 8   -710548.252 9  21284183.707
  22957967.039    -1945860.771 6  -1456072.868 9  22957970.543
  23294813.406     -533029.953 6   -407139.227 9  23294817.250
  21214952.758     1259487.895 7    927101.402 9  21214954.563
 94  3 22 18 40  0.0000000  0  6 31 18 19 27 28 29
  22749137.453    -1977968.474 6  -1484808.835 9  22749141.742
  20293333.203     -316496.772 8   -247436.967 9  20293334.457
  21276697.133     -972649.108 8   -741194.787 9  21276699.207
  22943615.648    -2021275.606 6  -1514837.638 9  22943618.813
  23290905.875     -553566.333 6   -423141.577 9  23290909.730
  21222538.414     1299350.604 7    958163.218 9  21222540.242
 94  3 22 18 40 30.0000000  0  6 31 18 19 27 28 29
  22735318.984    -2050582.962 6  -1541391.506 9  22735323.109
  20290813.523     -329739.717 8   -257756.146 9  20290814.789
  21269193.375    -1012082.627 8   -771922.198 9  21269195.531
  22929220.734    -2096921.455 6  -1573782.434 9  22929224.109
  23287034.602     -573910.926 6   -438994.482 9  23287038.457
  21230143.328     1339313.216 7    989302.879 9  21230145.191
 94  3 22 18 41  0.0000000  0  6 31 18 19 27 28 29
  22721510.109    -2123150.915 6  -1597937.911 9  22721514.234
  20288324.922     -342816.117 8   -267945.543 9  20288326.199
  21261673.945    -1051596.940 8   -802712.564 9  21261676.254
  22914784.430    -2172784.498 6  -1632896.460 9  22914788.039
  23283199.883     -594061.087 6   -454695.891 9  23283203.539
  21237775.180     1379419.773 7   1020554.707 9  21237777.020
 94  3 22 18 41 30.0000000  0  6 31 18 19 27 28 29
  22707712.203    -2195659.282 6  -1654437.865 9  22707716.387
  20285872.547     -355704.061 8   -277988.097 9  20285873.801
  21254139.789    -1091189.682 8   -833564.050 9  21254142.121
  22900309.297    -2248852.465 6  -1692170.169 9  22900312.836
  23279404.938     -614005.307 6   -470236.821 9  23279408.570
  21245436.383     1419680.489 7   1051926.658 9  21245438.316
 94  3 22 18 42  0.0000000  0  6 31 18 19 27 28 29
  22693929.586    -2268087.406 6  -1710875.279 9  22693933.418
  20283457.164     -368397.621 8   -287879.181 9  20283458.465
  21246590.063    -1130865.038 8   -864479.907 9  21246592.148
  22885795.633    -2325119.386 6  -1751598.899 9  22885799.242
  23275653.484     -633718.982 6   -485598.105 9  23275657.164
  21253126.531     1460090.782 7   1083415.157 9  21253128.324
 94  3 22 18 42 30.0000000  0  6 31 18 19 27 28 29
  22680166.531    -2340412.872 6  -1767232.689 9  22680170.375
  20281075.242     -380914.763 8   -297632.796 9  20281076.531
  21239024.461    -1170622.151 8   -895459.472 9  21239026.582
  22871250.477    -2401555.475 6  -1811159.446 9  22871254.402
  23271951.586     -653173.248 6   -500757.262 9  23271955.219
  21260842.930     1500641.080 7   1115012.758 9  21260844.734
 94  3 22 18 43  0.0000000  0  6 31 18 19 27 28 29
  22666428.688    -2412601.925 6  -1823483.793 9  22666432.602
  20278731.406     -393230.735 8   -307229.654 9  20278732.648
  21231444.742    -1210453.604 8   -926496.970 9  21231446.863
  22856678.836    -2478131.827 6  -1870829.299 9  22856682.270
  23268304.797     -672335.314 6   -515688.729 9  23268308.266
  21268587.977     1541342.122 7   1146727.820 9  21268589.992
 94  3 22 18 43 30.0000000  0  6 31 18 19 27 28 29
  22652718.039    -2484655.682 6  -1879629.454 9  22652722.035
  20276427.625     -405337.228 8   -316663.291 9  20276428.984
  21223848.953    -1250368.734 8   -957599.664 9  21223851.238
  22842079.602    -2554849.308 6  -1930609.105 9  22842083.480
  23264715.117     -691200.457 6   -530388.836 9  23264718.492
  21276358.211     1582173.241 7   1178544.236 9  21276360.332
 94  3 22 18 44  0.0000000  0  6 31 18 19 27 28 29
  22639034.164    -2556561.671 6  -1935659.969 9  22639038.125
  20274166.945     -417217.836 8   -325920.907 9  20274168.293
  21216241.688    -1290345.036 8   -988750.018 9  21216244.020
  22827455.547    -2631699.144 6  -1990492.047 9  22827459.016
  23261182.109     -709766.625 6   -544855.966 9  23261185.508
  21284157.562     1623158.097 7   1210480.454 9  21284159.461
 94  3 22 18 44 30.0000000  0  6 31 18 19 27 28 29
  22625385.195    -2628291.222 6  -1991552.998 9  22625389.133
  20271954.641     -428842.055 8   -334978.745 9  20271955.988
  21208626.805    -1330362.019 8  -1019932.080 9  21208629.301
  22812808.938    -2708668.164 6  -2050467.875 9  22812812.594
  23257708.688     -728020.886 6   -559080.057 9  23257712.039
  21291991.805     1664328.340 7   1242561.126 9  21291993.785
 94  3 22 18 45  0.0000000  0  6 31 18 19 27 28 29
  22611767.328    -2699850.914 6  -2047313.670 9  22611771.242
  20269792.508     -440204.363 8   -343832.499 9  20269793.926
  21201001.680    -1370431.061 8  -1051154.703 9  21201004.035
  22798136.414    -2785773.089 6  -2110549.597 9  22798139.672
  23254290.914     -745980.384 6   -573074.454 9  23254294.641
  21299861.516     1705682.938 7   1274785.448 9  21299863.496
 94  3 22 18 45 30.0000000  0  6 31 18 19 27 28 29
  22598182.695    -2771239.227 6  -2102940.803 9  22598186.316
  20267681.938     -451296.565 8   -352475.775 9  20267683.227
  21193368.078    -1410546.461 8  -1082413.449 9  21193370.469
  22783439.953    -2863002.227 6  -2170728.116 9  22783443.492
  23250931.609     -763632.856 6   -586829.625 9  23250935.078
  21307766.039     1747222.700 7   1307154.056 9  21307768.148
 94  3 22 18 46  0.0000000  0  6 31 18 19 27 28 29
  22584635.820    -2842426.258 6  -2158411.099 9  22584639.160
  20265625.609     -462103.111 8   -360896.467 9  20265626.910
  21185727.047    -1450700.500 8  -1113702.297 9  21185729.355
  22768722.688    -2940342.887 6  -2230993.522 9  22768726.355
  23247634.445     -780959.819 6   -600331.137 9  23247637.668
  21315711.891     1788977.999 7   1339690.611 9  21315713.871
 94  3 22 18 46 30.0000000  0  6 31 18 19 27 28 29
  22571129.930    -2913402.444 6  -2213717.115 9  22571133.398
  20263624.508     -472619.963 8   -369091.422 9  20263626.078
  21178077.156    -1490900.257 8  -1145026.771 9  21178079.547
  22753987.117    -3017777.559 6  -2291332.176 9  22753990.727
  23244403.242     -797940.618 6   -613562.923 9  23244406.219
  21323699.070     1830948.571 7   1372394.908 9  21323700.852
 94  3 22 18 47  0.0000000  0  6 31 18 19 27 28 29
  22557663.891    -2984166.043 6  -2268857.484 9  22557667.477
  20261678.711     -482844.355 8   -377058.492 9  20261680.176
  21170420.094    -1531139.537 8  -1176382.036 9  21170422.543
  22739236.867    -3095290.969 6  -2351732.193 9  22739240.066
  23241235.984     -814584.929 6   -626532.494 9  23241238.984
  21331728.063     1873141.482 7   1405272.456 9  21331729.926
 94  3 22 18 47 30.0000000  0  6 31 18 19 27 28 29
  22544243.070    -3054690.383 6  -2323811.436 9  22544246.258
  20259790.805     -492764.368 8   -384788.378 9  20259792.387
  21162756.641    -1571412.333 8  -1207763.417 9  21162759.090
  22724472.570    -3172875.941 6  -2412187.971 9  22724476.039
  23238134.703     -830881.135 6   -639230.829 9  23238137.891
  21339801.391     1915567.838 7   1438331.909 9  21339803.254
 94  3 22 18 48  0.0000000  0  6 31 18 19 27 28 29
  22530874.117    -3124947.036 6  -2378556.807 9  22530877.410
  20257962.586     -502373.267 8   -392275.840 9  20257964.027
  21155090.430    -1611697.907 8  -1239154.755 9  21155092.809
  22709696.930    -3250524.512 6  -2472693.323 9  22709700.293
  23235101.938     -846818.099 6   -651649.232 9  23235105.477
  21347923.813     1958251.454 7   1471591.823 9  21347925.699
 94  3 22 18 48 30.0000000  0  6 31 18 19 27 28 29
  22517557.469    -3194925.907 6  -2433085.730 9  22517560.586
  20256194.953     -511660.647 8   -399512.766 9  20256196.500
  21147428.992    -1651958.547 8  -1270526.669 9  21147431.406
  22694910.664    -3328226.741 6  -2533240.474 9  22694913.852
  23232140.414     -862380.946 6   -663776.127 9  23232143.988
  21356094.563     2001189.333 7   1505049.859 9  21356096.555
 94  3 22 18 49  0.0000000  0  6 31 18 19 27 28 29
  22504292.289    -3264634.431 6  -2487404.006 9  22504295.523
  20254486.609     -520638.562 8   -406508.548 9  20254488.227
  21139773.750    -1692186.281 8  -1301872.943 9  21139776.246
  22680110.898    -3405999.096 6  -2593842.273 9  22680114.297
  23229249.484     -877572.348 6   -675613.578 9  23229253.293
  21364310.734     2044365.860 7   1538693.861 9  21364312.797
 94  3 22 18 49 30.0000000  0  6 31 18 19 27 28 29
  22491076.219    -3334083.973 6  -2541520.484 9  22491079.805
  20252835.070     -529317.205 8   -413271.137 9  20252836.676
  21132123.969    -1732387.573 8  -1333198.614 9  21132126.324
  22665295.742    -3483852.732 6  -2654507.415 9  22665298.906
  23226433.211     -892371.973 6   -687145.754 9  23226437.137
  21372569.617     2087764.169 7   1572510.670 9  21372571.656
 94  3 22 18 50  0.0000000  0  6 31 18 19 27 28 29
  22477908.008    -3403284.237 6  -2595442.730 9  22477911.512
  20251243.141     -537683.861 8   -419790.611 9  20251244.770
  21124483.984    -1772535.480 8  -1364482.682 9  21124486.410
  22650467.914    -3561775.055 6  -2715226.078 9  22650470.973
  23223692.398     -906776.285 6   -698369.896 9  23223696.289
  21380870.789     2131389.204 7   1606504.156 9  21380873.027
 94  3 22 18 50 30.0000000  0  6 31 18 19 27 28 29
  22464786.078    -3472238.899 6  -2649173.610 9  22464789.781
  20249711.586     -545731.480 8   -426061.496 9  20249713.180
  21116853.789    -1812630.576 7  -1395725.596 9  21116856.484
  22635630.188    -3639747.250 6  -2775983.610 9  22635633.363
  23221024.766     -920793.237 6   -709292.199 9  23221029.031
  21389214.977     2175238.178 7   1640672.133 9  21389217.039
 94  3 22 18 51  0.0000000  0  6 31 18 19 27 28 29
  22451713.563    -3540934.642 6  -2702702.730 9  22451717.500
  20248242.250     -553453.727 8   -432078.840 9  20248243.773
  21109230.867    -1852688.842 7  -1426939.811 9  21109233.668
  22620786.586    -3717752.254 6  -2836766.694 9  22620789.680
  23218431.766     -934418.714 6   -719909.458 9  23218435.926
  21397606.352     2219334.028 7   1675032.489 9  21397608.461
 94  3 22 18 51 30.0000000  0  6 31 18 19 27 28 29
  22438692.203    -3609360.777 6  -2756021.774 9  22438696.082
  20246836.273     -560842.049 8   -437835.987 9  20246837.832
  21101615.367    -1892709.835 7  -1458124.986 9  21101618.074
  22605935.844    -3795791.911 6  -2897576.802 9  22605939.195
  23215912.578     -947658.311 6   -730226.044 9  23215916.773
  21406047.906     2263695.105 7   1709599.514 9  21406050.039
 94  3 22 18 52  0.0000000  0  6 31 18 19 27 28 29
  22425730.141    -3677478.371 6  -2809100.399 9  22425733.750
  20245497.188     -567878.579 8   -443319.012 9  20245498.688
  21094010.469    -1932673.847 7  -1489265.764 9  21094012.941
  22591082.539    -3873847.173 6  -2958399.059 9  22591086.160
  23213468.883     -960499.518 6   -740232.195 9  23213473.195
  21414544.516     2308344.604 7   1744391.285 9  21414546.637
 94  3 22 18 52 30.0000000  0  6 31 18 19 27 28 29
  22412830.164    -3745268.739 6  -2861924.043 9  22412833.785
  20244223.984     -574569.511 8   -448532.742 9  20244225.496
  21086413.828    -1972594.431 8  -1520372.702 9  21086416.430
  22576226.367    -3951915.035 6  -3019231.128 9  22576229.836
  23211106.492     -972914.794 6   -749906.453 9  23211110.383
  21423096.555     2353284.692 7   1779409.489 9  21423098.816
 94  3 22 18 53  0.0000000  0  6 31 18 19 27 28 29
  22399995.125    -3812718.403 6  -2914482.208 9  22399998.570
  20243018.961     -580903.274 8   -453468.156 9  20243020.543
  21078826.969    -2012462.978 7  -1551439.101 9  21078829.371
  22561366.656    -4030004.254 6  -3080079.843 9  22561370.008
  23208828.844     -984882.322 6   -759231.820 9  23208833.238
  21431704.617     2398521.657 7   1814659.023 9  21431706.914
 94  3 22 18 53 30.0000000  0  6 31 18 19 27 28 29
  22387225.805    -3879820.258 6  -2966769.354 9  22387229.051
  20241883.930     -586866.240 8   -458114.630 9  20241885.547
  21071251.414    -2052273.843 8  -1582460.547 9  21071253.934
  22546501.813    -4108119.886 6  -3140949.149 9  22546505.105
  23206639.227     -996388.457 6   -768197.646 9  23206643.492
  21440368.141     2444047.533 7   1850133.680 9  21440370.484
 94  3 22 18 54  0.0000000  0  6 31 18 19 27 28 29
  22374523.758    -3946570.562 7  -3018782.573 9  22374527.016
  20240819.273     -592462.300 8   -462475.218 9  20240820.809
  21063685.570    -2092032.640 8  -1613441.415 9  21063687.926
  22531635.828    -4186241.315 6  -3201822.970 9  22531638.992
  23204537.000    -1007434.873 6   -776805.257 9  23204541.090
  21449084.750     2489854.392 7   1885827.282 9  21449087.023
 94  3 22 18 54 30.0000000  0  6 31 18 19 27 28 29
  22361886.641    -4012979.514 6  -3070529.797 9  22361889.887
  20239828.203     -597669.674 8   -466532.929 9  20239829.902
  21056129.773    -2131737.603 7  -1644380.338 9  21056132.234
  22516769.406    -4264364.268 6  -3262697.983 9  22516772.441
  23202521.891    -1018025.867 6   -785057.983 9  23202526.098
  21457856.063     2535947.485 7   1921743.921 9  21457858.254
 94  3 22 18 55  0.0000000  0  6 31 18 19 27 28 29
  22349315.563    -4079040.371 6  -3122005.774 9  22349319.031
  20238916.273     -602462.195 8   -470267.378 9  20238917.926
  21048587.492    -2171373.557 8  -1675265.494 9  21048589.977
  22501904.320    -4342481.517 6  -3323568.554 9  22501907.332
  23200590.195    -1028179.838 6   -792970.180 9  23200594.508
  21466682.641     2582330.888 7   1957886.771 9  21466684.926
 94  3 22 18 55 30.0000000  0  6 31 18 19 27 28 29
  22336814.219    -4144735.384 6  -3173196.679 9  22336817.863
  20238085.063     -606831.078 8   -473671.721 9  20238086.656
  21041061.273    -2210923.830 8  -1706083.890 9  21041063.840
  22487043.914    -4420573.885 6  -3384419.746 9  22487046.973
  23198741.219    -1037898.683 6   -800543.314 9  23198745.320
  21475568.180     2629024.714 7   1994271.508 9  21475570.406
 94  3 22 18 56  0.0000000  0  6 31 18 19 27 28 29
  22324381.789    -4210068.580 6  -3224105.650 9  22324385.445
  20237333.133     -610781.532 8   -476750.021 9  20237334.727
  21033551.313    -2250390.639 8  -1736837.247 9  21033553.715
  22472186.164    -4498649.636 6  -3445257.974 9  22472189.680
  23196969.977    -1047202.992 6   -807793.433 9  23196974.031
  21484510.586     2676016.702 7   2030888.576 9  21484512.895
 94  3 22 18 56 30.0000000  0  6 31 18 19 27 28 29
  22312018.156    -4275040.112 6  -3274732.794 9  22312021.801
  20236661.211     -614313.503 8   -479502.234 9  20236662.734
  21026057.414    -2289771.010 8  -1767523.249 9  21026059.828
  22457328.438    -4576725.512 6  -3506096.285 9  22457331.813
  23195279.016    -1056090.173 6   -814718.533 9  23195283.188
  21493508.438     2723300.527 7   2067733.053 9  21493510.828
 94  3 22 18 57  0.0000000  0  6 31 18 19 27 28 29
  22299726.711    -4339631.427 6  -3325063.662 9  22299730.355
  20236064.328     -617450.337 8   -481946.545 9  20236065.828
  21018580.508    -2329061.123 8  -1798138.920 9  21018582.687
  22442470.234    -4654808.397 6  -3566940.065 9  22442473.551
  23193666.789    -1064562.811 6   -821320.591 9  23193670.762
  21502563.336     2770883.927 7   2104810.961 9  21502565.785
 94  3 22 18 57 30.0000000  0  6 31 18 19 27 28 29
  22287507.688    -4403842.080 6  -3375097.907 9  22287511.344
  20235541.258     -620198.839 8   -484088.261 9  20235542.676
  21011120.805    -2368261.651 8  -1828684.789 9  21011123.172
  22427610.297    -4732898.129 6  -3627789.177 9  22427613.508
  23192138.781    -1072594.883 6   -827579.375 9  23192142.648
  21511677.188     2818777.811 7   2142130.806 9  21511679.355
 94  3 22 18 58  0.0000000  0  6 31 18 19 27 28 29
  22275360.805    -4467673.628 6  -3424836.728 9  22275364.637
  20235092.984     -622555.115 8   -485924.342 9  20235094.332
  21003679.102    -2407369.247 8  -1859158.235 9  21003681.527
  22412750.266    -4810987.839 6  -3688638.277 9  22412753.676
  23190697.836    -1080167.279 6   -833479.964 9  23190701.703
  21520848.898     2866974.234 7   2179686.399 9  21520851.172
 94  3 22 18 58 30.0000000  0  6 31 18 19 27 28 29
  22263285.680    -4531129.603 7  -3474282.905 9  22263289.078
  20234718.898     -624520.787 8   -487456.057 9  20234720.328
  20996256.203    -2446378.430 8  -1889555.002 9  20996258.617
  22397890.961    -4889073.753 6  -3749484.415 9  22397894.172
  23189346.281    -1087268.360 6   -839013.292 9  23189350.031
  21530081.328     2915490.683 7   2217491.359 9  21530083.695
 94  3 22 18 59  0.0000000  0  6 31 18 19 27 28 29
  22251280.813    -4594215.638 7  -3523440.807 9  22251284.246
  20234419.648     -626092.451 8   -488680.750 9  20234421.102
  20988851.461    -2485289.311 8  -1919875.173 9  20988853.934
  22383033.367    -4967151.553 6  -3810324.219 9  22383036.730
  23188085.578    -1093892.678 6   -844175.124 9  23188089.164
  21539375.188     2964331.149 7   2255548.803 9  21539377.602
 94  3 22 18 59 30.0000000  0  6 31 18 19 27 28 29
  22239345.805    -4656935.180 7  -3572313.122 9  22239349.379
  20234199.938     -627247.773 8   -489581.022 9  20234201.555
  20981467.336    -2524093.823 8  -1950112.470 9  20981469.586
  22368180.422    -5045204.632 7  -3871144.761 9  22368183.422
  23186917.594    -1100032.828 6   -848959.675 9  23186920.945
  21548729.023     3013484.963 7   2293850.413 9  21548731.438
 94  3 22 19  0  0.0000000  0  6 31 18 19 27 28 29
  22227481.727    -4719282.584 7  -3620895.461 9  22227485.324
  20234059.945     -627984.051 8   -490154.766 9  20234061.492
  20974103.297    -2562791.160 8  -1980266.249 9  20974105.570
  22353332.320    -5123231.780 7  -3931945.102 9  22353335.109
  23185837.609    -1105709.458 6   -853383.045 9  23185841.254
  21558140.570     3062942.245 7   2332388.496 9  21558143.020
 94  3 22 19  0 30.0000000  0  6 31 18 19 27 28 29
  22215692.867    -4781231.231 7  -3669167.082 9  22215696.395
  20234003.961     -628279.765 8   -490385.210 9  20234005.426
  20966761.305    -2601374.179 8  -2010330.950 9  20966763.555
  22338491.953    -5201219.950 7  -3992715.064 9  22338494.988
  23184848.055    -1110909.120 6   -857434.747 9  23184851.711
  21567613.742     3112722.813 7   2371178.474 9  21567616.285
 94  3 22 19  1  0.0000000  0  6 31 18 19 27 28 29
  22203981.297    -4842777.107 7  -3717124.854 9  22203984.848
  20234030.914     -628135.948 8   -490273.164 9  20234032.367
  20959440.109    -2639847.272 8  -2040309.982 9  20959442.430
  22323658.000    -5279169.337 6  -4053454.809 9  22323661.117
  23183947.703    -1115637.755 6   -861119.420 9  23183951.359
  21577144.461     3162807.568 7   2410205.485 9  21577147.004
 94  3 22 19  1 30.0000000  0  6 31 18 19 27 28 29
  22192351.227    -4903893.822 7  -3764748.212 9  22192354.871
  20234144.250     -627542.769 8   -489810.969 9  20234145.680
  20952139.117    -2678213.490 8  -2070205.743 9  20952141.484
  22308833.680    -5357071.781 6  -4114157.983 9  22308836.949
  23183139.969    -1119884.866 6   -864428.880 9  23183143.426
  21586735.133     3213206.770 7   2449477.520 9  21586737.641
 94  3 22 19  2  0.0000000  0  6 31 18 19 27 28 29
  22180801.617    -4964585.683 7  -3812040.516 9  22180805.074
  20234338.828     -626518.444 8   -489012.813 9  20234340.328
  20944853.359    -2716501.177 8  -2100040.316 9  20944855.750
  22294014.422    -5434947.571 6  -4174840.375 9  22294017.480
  23182421.891    -1123657.210 6   -867368.381 9  23182425.465
  21596382.703     3263904.310 7   2488982.024 9  21596385.152
 94  3 22 19  2 30.0000000  0  6 31 18 19 27 28 29
  22169335.617    -5024842.165 7  -3858993.578 9  22169339.027
  20234615.195     -625066.327 8   -487881.315 9  20234616.637
  20937584.539    -2754699.099 8  -2129804.943 9  20937586.883
  22279202.891    -5512784.519 7  -4235492.505 9  22279205.703
  23181799.539    -1126927.548 6   -869916.716 9  23181803.031
  21606089.578     3314914.329 7   2528730.015 9  21606092.227
 94  3 22 19  3  0.0000000  0  6 31 18 19 27 28 29
  22157950.711    -5084669.649 7  -3905612.351 9  22157953.910
  20234971.641     -623193.858 8   -486422.268 9  20234973.152
  20930333.906    -2792802.687 8  -2159496.059 9  20930336.145
  22264397.430    -5590587.788 7  -4296118.399 9  22264400.465
  23181272.672    -1129697.309 6   -872074.990 9  23181276.176
  21615856.273     3366238.035 7   2568722.439 9  21615858.723
 94  3 22 19  3 30.0000000  0  7  2 31 18 19 27 28 29
  24348864.742      -17816.51715
  22146645.750    -5144074.246 7  -3951901.615 9  22146649.195
  20235407.117     -620905.118 8   -484638.853 9  20235408.617
  20923098.719    -2830823.987 8  -2189123.046 9  20923100.945
  22249598.500    -5668356.382 7  -4356717.270 9  22249601.477
  23180839.938    -1131970.629 6   -873846.427 9  23180843.266
  21625681.648     3417872.763 7   2608957.210 9  21625684.262
 94  3 22 19  4  0.0000000  0  7  2 31 18 19 27 28 29
  24328527.023     -124689.065 5
  22135422.898    -5203051.566 7  -3997857.927 9  22135426.285
  20235921.961     -618199.310 8   -482530.451 9  20235923.543
  20915882.758    -2868742.813 8  -2218670.187 9  20915885.078
  22234806.937    -5746085.727 7  -4417285.555 9  22234810.242
  23180501.375    -1133750.962 6   -875233.719 9  23180504.832
  21635567.133     3469820.089 7   2649435.569 9  21635569.793
 94  3 22 19  4 30.0000000  0  7  2 31 18 19 27 28 29
  24308208.766     -231462.308 5    -52681.48119  24308215.363
  22124283.305    -5261590.125 7  -4043472.358 9  22124286.621
  20236516.531     -615076.310 8   -480096.964 9  20236518.066
  20908688.242    -2906550.283 8  -2248130.553 9  20908690.516
  22220023.547    -5823773.770 7  -4477821.671 9  22220026.723
  23180255.195    -1135042.319 6   -876239.985 9  23180258.699
  21645515.742     3522098.186 7   2690171.672 9  21645518.438
 94  3 22 19  5  0.0000000  0  7  2 31 18 19 27 28 29
  24287912.133     -338119.059 5   -135790.491 9  24287919.813
  22113231.836    -5319666.682 7  -4088726.788 9  22113235.199
  20237194.273     -611513.760 8   -477320.971 9  20237195.855
  20901515.766    -2944242.180 8  -2277500.863 9  20901518.063
  22205250.695    -5901404.083 7  -4538312.800 9  22205253.930
  23180102.016    -1135849.230 6   -876868.764 9  23180105.344
  21655527.148     3574708.809 7   2731166.887 9  21655529.797
 94  3 22 19  5 30.0000000  0  7  2 31 18 19 27 28 29
  24267641.211     -444645.307 5   -218797.810 9  24267648.082
  22102269.570    -5377273.196 7  -4133614.953 9  22102273.109
  20237957.727     -607501.985 8   -474194.937 9  20237959.285
  20894365.336    -2981817.056 8  -2306779.986 9  20894367.691
  22190491.281    -5978965.224 7  -4598750.032 9  22190494.680
  23180039.766    -1136173.907 6   -877121.778 9  23180043.434
  21665601.633     3627650.171 7   2772419.819 9  21665604.223
 94  3 22 19  6  0.0000000  0  7  2 31 18 19 27 28 29
  24247394.586     -551043.094 5   -301705.048 9  24247400.926
  22091396.031    -5434413.947 7  -4178140.185 9  22091399.535
  20238805.687     -603046.138 8   -470722.875 9  20238807.340
  20887239.898    -3019262.915 8  -2335958.578 9  20887242.043
  22175742.688    -6056470.227 7  -4659143.520 9  22175745.676
  23180069.375    -1136022.541 6   -877003.849 9  23180072.762
  21675738.375     3680919.475 7   2813928.289 9  21675741.070
 94  3 22 19  6 30.0000000  0  7  2 31 18 19 27 28 29
  24227174.484     -657300.713 5   -384503.054 9  24227181.402
  22080608.500    -5491104.748 7  -4222314.807 9  22080611.734
  20239740.172     -598135.387 8   -466896.343 9  20239741.824
  20880139.484    -3056572.983 8  -2365031.370 9  20880141.570
  22161005.992    -6133910.746 7  -4719486.753 9  22161009.004
  23180190.742    -1135382.217 6   -876504.900 9  23180194.785
  21685936.883     3734513.546 7   2855689.828 9  21685939.508
 94  3 22 19  7  0.0000000  0  7  2 31 18 19 27 28 29
  24206980.961     -763414.952 5   -467189.407 9  24206988.359
  22069902.953    -5547361.873 7  -4266151.498 9  22069906.223
  20240762.828     -592761.284 8   -462708.762 9  20240764.551
  20873067.477    -3093739.054 8  -2393991.947 9  20873069.645
  22146283.820    -6211277.377 7  -4779772.430 9  22146286.891
  23180407.023    -1134243.815 6   -875617.856 9  23180410.645
  21696195.781     3788424.212 7   2897698.059 9  21696198.523
 94  3 22 19  7 30.0000000  0  7  2 31 18 19 27 28 29
  24186813.180     -869398.017 5   -549773.519 9  24186819.953
  22059279.375    -5603187.594 7  -4309652.030 9  22059282.539
  20241874.328     -586920.983 8   -458157.910 9  20241876.016
  20866025.227    -3130747.617 8  -2422829.789 9  20866027.383
  22131572.609    -6288584.996 7  -4840012.107 9  22131575.656
  23180720.664    -1132598.686 6   -874335.951 9  23180724.332
  21706516.250     3842656.426 7   2939956.855 9  21706519.027
 94  3 22 19  8  0.0000000  0  7  2 31 18 19 27 28 29
  24166665.758     -975272.101 5   -632272.752 9  24166672.711
  22048740.133    -5658573.958 7  -4352810.200 9  22048743.391
  20243072.016     -580625.592 8   -453252.441 9  20243073.820
  20859010.773    -3167606.471 8  -2451550.972 9  20859012.965
  22116868.484    -6365855.309 7  -4900222.721 9  22116871.695
  23181130.148    -1130444.251 6   -872657.189 9  23181133.734
  21716896.688     3897206.994 7   2982463.710 9  21716899.500
 94  3 22 19  8 30.0000000  0  7  2 31 18 19 27 28 29
  24146540.859    -1081031.534 5   -714682.598 9  24146547.340
  22038289.859    -5713489.223 7  -4395601.287 9  22038293.328
  20244357.430     -573871.792 8   -447989.773 9  20244359.328
  20852024.758    -3204319.389 8  -2480158.447 9  20852026.984
  22102173.664    -6443077.470 7  -4960395.814 9  22102176.816
  23181640.172    -1127766.826 6   -870570.901 9  23181643.535
  21727341.242     3952092.363 7   3025231.450 9  21727344.137
 94  3 22 19  9  0.0000000  0  7  2 31 18 19 27 28 29
  24126439.906    -1186661.504 5   -796991.589 9  24126446.211
  22027934.133    -5767908.940 7  -4438006.235 9  22027937.262
  20245728.664     -566665.835 8   -442374.776 9  20245730.598
  20845065.164    -3240891.329 8  -2508656.062 9  20845067.414
  22087488.688    -6520247.601 7  -5020528.372 9  22087491.746
  23182246.523    -1124578.479 6   -868086.484 9  23182250.109
  21737850.297     4007318.069 7   3068264.396 9  21737852.980
 94  3 22 19  9 30.0000000  0  7  2 31 18 19 27 28 29
  24106366.883    -1292145.500 5   -879186.877 9  24106372.883
  22017675.547    -5821817.185 7  -4480012.636 9  22017678.652
  20247186.297     -559005.695 8   -436405.873 9  20247188.195
  20838133.805    -3277316.496 8  -2537039.313 9  20838136.219
  22072811.648    -6597374.565 7  -5080627.289 9  22072814.848
  23182948.891    -1120889.138 6   -865211.696 9  23182952.441
  21748423.617     4062879.227 7   3111558.722 9  21748426.430
 94  3 22 19  9 59.9990000  0  7  2 31 18 19 27 28 29
  24086325.948    -1397461.071 5   -961250.902 9  24086332.593
  22007513.081    -5875219.680 7  -4521624.941 9  22007516.503
  20248728.128     -550904.008 8   -430092.906 9  20248730.050
  20831228.823    -3313602.996 8  -2565314.511 9  20831231.085
  22058146.979    -6674440.207 7  -5140678.420 9  22058149.815
  23183744.948    -1116705.892 6   -861952.030 9  23183748.663
  21759058.878     4118767.932 7   3155108.282 9  21759061.679
 94  3 22 19 10 29.9990000  0  7  2 31 18 19 27 28 29
  24066317.839    -1502602.477 5  -1043179.203 9  24066324.980
  21997443.620    -5928136.722 7  -4562858.978 9  21997446.749
  20250355.183     -542353.258 8   -423430.020 9  20250357.210
  20824350.948    -3349745.890 8  -2593477.810 9  20824353.304
  22043497.245    -6751422.801 7  -5200664.840 9  22043500.128
  23184632.159    -1112042.174 6   -858317.994 9  23184635.288
  21769754.542     4174974.229 7   3198905.315 9  21769757.062
 94  3 22 19 10 59.9990000  0  7  2 31 18 19 27 28 29
  24046342.964    -1607570.334 5  -1124972.305 9  24046349.929
  21987462.479    -5980588.576 7  -4603730.521 9  21987465.620
  20252069.698     -533344.247 8   -416410.049 9  20252071.772
  20817499.534    -3385749.736 8  -2621532.750 9  20817501.972
  22028864.222    -6828321.280 7  -5260585.701 9  22028867.304
  23185609.604    -1106905.863 6   -854315.686 9  23185613.003
  21780507.940     4231484.608 7   3242939.292 9  21780510.319
 94  3 22 19 11 29.9990000  0  7  2 31 18 19 27 28 29
  24026396.925    -1712390.374 5  -1206650.197 9  24026403.913
  21977569.300    -6032576.515 7  -4644240.580 9  21977572.464
  20253872.159     -523872.042 8   -409029.149 9  20253874.339
  20810672.604    -3421626.705 8  -2649488.826 9  20810674.866
  22014245.089    -6905145.399 7  -5320448.624 9  22014247.925
  23186680.386    -1101280.294 6   -849932.156 9  23186684.112
  21791320.878     4288304.862 7   3287214.730 9  21791323.374
 94  3 22 19 11 59.9990000  0  7  2 31 18 19 27 28 29
  24006473.183    -1817087.313 5  -1288232.185 9  24006480.112
  21967763.214    -6084106.939 7  -4684394.136 9  21967766.401
  20255760.808     -513947.613 8   -401295.869 9  20255763.011
  20803865.925    -3457395.560 8  -2677360.663 9  20803868.257
  21999640.667    -6981891.019 7  -5380250.381 9  21999643.772
  23187845.409    -1095156.649 6   -845160.509 9  23187849.007
  21802195.112     4345451.579 7   3331744.549 9  21802197.749
 94  3 22 19 12 29.9990000  0  7  2 31 18 19 27 28 29
  23986572.753    -1921666.538 5  -1369722.445 9  23986579.612
  21958045.792    -6135174.158 7  -4724186.753 9  21958049.108
  20257738.401     -503555.254 8   -393197.964 9  20257740.663
  20797079.261    -3493060.078 8  -2705151.199 9  20797081.534
  21985048.823    -7058572.783 7  -5440002.373 9  21985051.858
  23189107.308    -1088526.659 6   -839994.319 9  23189110.894
  21813133.526     4402929.654 7   3376532.572 9  21813136.421
 94  3 22 19 12 59.9990000  0  7  2 31 18 19 27 28 29
  23966697.769    -2026110.557 5  -1451107.338 9  23966704.804
  21948421.284    -6185750.615 7  -4763596.949 9  21948424.272
  20259808.003     -492678.822 8   -384722.861 9  20259810.253
  20790315.339    -3528605.073 8  -2732848.609 9  20790317.776
  21970467.628    -7135194.756 7  -5499707.784 9  21970470.757
  23190470.323    -1081363.608 6   -834412.752 9  23190473.733
  21824140.769     4460775.592 7   3421607.227 9  21824143.886
 94  3 22 19 13 29.9990000  0  7  2 31 18 19 27 28 29
  23946850.558    -2130406.405 5  -1532376.765 9  23946856.616
  21938893.737    -6235817.800 7  -4802610.316 9  21938896.855
  20261969.300     -481321.508 8   -375873.047 9  20261971.585
  20783577.862    -3564009.766 8  -2760436.679 9  20783580.347
  21955901.612    -7211742.133 7  -5559355.061 9  21955904.659
  23191937.378    -1073654.486 6   -828405.670 9  23191940.905
  21835218.878     4518990.037 7   3466969.042 9  21835221.866
 94  3 22 19 13 59.9990000  0  7  2 31 18 19 27 28 29
  23927037.573    -2234527.421 5  -1613509.969 9  23927044.503
  21929464.565    -6285371.347 7  -4841223.451 9  21929467.425
  20264222.620     -469480.219 8   -366646.112 9  20264224.952
  20776870.940    -3599254.929 8  -2787900.441 9  20776873.390
  21941350.917    -7288204.342 7  -5618935.982 9  21941353.776
  23193505.222    -1065413.540 6   -821984.194 9  23193508.714
  21846364.276     4577559.696 7   3512607.644 9  21846367.358
 94  3 22 19 14 29.9990000  0  7  2 31 18 19 27 28 29
  23907259.573    -2338459.463 5  -1694495.863 9  23907266.562
  21920134.581    -6334397.551 7  -4879425.666 9  21920137.616
  20266569.128     -457149.721 8   -357037.975 9  20266571.448
  20770196.753    -3634329.001 8  -2815230.883 9  20770199.108
  21926817.112    -7364579.862 7  -5678449.348 9  21926819.913
  23195174.190    -1056645.480 6   -815151.969 9  23195177.812
  21857572.159     4636458.320 7   3558502.581 9  21857575.112
 94  3 22 19 14 59.9990000  0  7  2 31 18 19 27 28 29
  23887516.065    -2442213.894 5  -1775343.397 9  23887523.124
  21910905.675    -6382895.552 7  -4917216.296 9  21910908.980
  20269005.175     -444348.287 8   -347062.872 9  20269007.577
  20763555.948    -3669226.102 7  -2842423.430 9  20763558.304
  21912302.753    -7440854.001 7  -5737883.721 9  21912305.812
  23196940.581    -1047362.599 6   -807918.595 9  23196944.519
  21868841.698     4695678.495 7   3604648.063 9  21868844.722
 94  3 22 19 15 29.9990000  0  7  2 31 18 19 27 28 29
  23867805.042    -2545794.514 5  -1856055.445 9  23867811.276
  21901776.987    -6430867.897 7  -4954597.321 9  21901780.222
  20271528.222     -431089.266 8   -336731.207 9  20271530.589
  20756946.690    -3703957.190 8  -2869486.625 9  20756949.069
  21897807.847    -7517025.004 7  -5797237.721 9  21897810.835
  23198804.261    -1037568.454 6   -800286.842 9  23198808.292
  21880169.862     4755205.307 7   3651032.489 9  21880172.780
 94  3 22 19 15 59.9990000  0  7  2 31 18 19 27 28 29
  23848125.620    -2649210.494 5  -1936639.209 9  23848132.323
  21892745.847    -6478326.521 7  -4991578.056 9  21892749.151
  20274138.245     -417373.380 8   -326043.546 9  20274140.577
  20750366.136    -3738539.139 8  -2896433.605 9  20750368.585
  21883329.034    -7593111.315 7  -5856525.730 9  21883332.198
  23200762.284    -1027277.795 6   -792268.186 9  23200766.339
  21891555.331     4815038.913 7   3697655.975 9  21891558.437
 94  3 22 19 16 29.9990000  0  7  2 31 18 19 27 28 29
  23828475.792    -2752470.622 5  -2017101.536 9  23828482.155
  21883810.792    -6525280.159 7  -5028165.297 9  21883814.366
  20276833.589     -403210.331 8   -315007.440 9  20276835.839
  20743811.870    -3772981.808 7  -2923272.054 9  20743814.472
  21868866.081    -7669115.629 7  -5915749.843 9  21868868.917
  23202817.581    -1016478.291 6   -783853.027 9  23202821.577
  21903002.386     4875193.369 7   3744529.471 9  21903005.585
 94  3 22 19 16 59.9990000  0  7  2 31 18 19 27 28 29
  23808855.112    -2855576.857 5  -2097443.908 9  23808861.745
  21874971.964    -6571728.157 7  -5064358.527 9  21874975.327
  20279614.698     -388595.160 8   -303619.031 9  20279617.030
  20737282.745    -3807292.761 7  -2950007.865 9  20737285.265
  21854417.714    -7745042.221 7  -5974913.397 9  21854420.819
  23204969.589    -1005171.311 6   -775042.428 9  23204973.538
  21914513.425     4935682.792 7   3791663.977 9  21914516.671
 94  3 22 19 17 29.9990000  0  7  2 31 18 19 27 28 29
  23789265.565    -2958518.264 5  -2177657.847 9  23789271.753
  21866231.862    -6617659.004 7  -5100148.784 9  21866235.144
  20282484.651     -373515.335 8   -291868.558 9  20282487.007
  20730779.714    -3841465.858 7  -2976636.254 9  20730782.222
  21839980.394    -7820910.153 7  -6034031.242 9  21839983.183
  23207219.448     -993347.042 6   -765828.749 9  23207223.222
  21926088.128     4996506.435 7   3839058.912 9  21926091.468
 94  3 22 19 17 59.9990000  0  7  2 31 18 19 27 28 29
  23769705.651    -3061304.374 5  -2257750.788 9  23769712.073
  21857589.878    -6663071.346 7  -5135535.015 9  21857592.995
  20285442.722     -357969.501 8   -279754.958 9  20285445.065
  20724302.276    -3875504.304 7  -3003159.722 9  20724304.901
  21825552.433    -7896730.725 7  -6093112.184 9  21825555.468
  23209567.120     -981012.247 6   -756217.258 9  23209571.562
  21937723.386     5057649.757 7   3886702.950 9  21937726.690
 94  3 22 19 18 29.9990000  0  7  2 31 18 19 27 28 29
  23750176.761    -3163930.444 5  -2337719.022 9  23750184.007
  21849050.347    -6707948.015 7  -5170503.844 9  21849053.452
  20288490.534     -341953.566 8   -267275.046 9  20288492.784
  20717852.847    -3909398.972 8  -3029571.159 9  20717855.296
  21811135.870    -7972489.483 7  -6152144.960 9  21811138.718
  23212011.815     -968165.890 6   -746207.137 9  23212015.507
  21949418.417     5119108.640 7   3934592.884 9  21949421.511
 94  3 22 19 18 59.9990000  0  7  2 31 18 19 27 28 29
  23730679.058    -3266388.690 5  -2417556.467 9  23730685.702
  21840615.737    -6752270.875 7  -5205041.135 9  21840618.948
  20291632.558     -325442.640 8   -254409.423 9  20291634.843
  20711433.479    -3943132.092 8  -3055856.715 9  20711435.894
  21796733.026    -8048174.531 7  -6211120.295 9  21796736.038
  23214552.464     -954814.187 6   -735803.238 9  23214556.519
  21961172.729     5180876.177 7   3982723.331 9  21961175.823
 94  3 22 19 19 29.9990000  0  7  2 31 18 19 27 28 29
  23711215.800    -3368669.627 5  -2497255.765 9  23711222.315
  21832285.214    -6796049.935 7  -5239154.685 9  21832288.413
  20294867.034     -308445.902 8   -241165.247 9  20294869.167
  20705046.737    -3976694.802 8  -3082009.483 9  20705049.069
  21782348.003    -8123770.132 7  -6270025.949 9  21782350.675
  23217190.042     -940952.052 6   -725001.592 9  23217194.062
  21972985.417     5242952.696 7   4031094.538 9  21972988.640
 94  3 22 19 19 59.9990000  0  7  2 31 18 19 27 28 29
  23691786.198    -3470772.504 5  -2576816.306 9  23691793.030
  21824054.769    -6839300.263 7  -5272856.240 9  21824057.944
  20298192.386     -290969.224 8   -227547.091 9  20298194.530
  20698688.870    -4010105.856 8  -3108044.078 9  20698691.460
  21767984.917    -8199249.320 7  -6328840.878 9  21767987.847
  23219922.612     -926593.323 6   -713812.989 9  23219926.550
  21984858.050     5305343.063 7   4079710.308 9  21984861.366
 94  3 22 19 20 29.9990000  0  7  2 31 18 19 27 28 29
  23672390.909    -3572698.977 5  -2656239.391 9  23672397.519
  21815922.190    -6882036.002 7  -5306156.816 9  21815925.284
  20301608.183     -273020.795 8   -213561.342 9  20301610.456
  20692360.237    -4043362.547 8  -3133958.391 9  20692362.804
  21753645.198    -8274603.915 7  -6387558.729 9  21753648.081
  23222747.253     -911750.399 6   -702247.100 9  23222750.909
  21996791.245     5368050.781 7   4128573.351 9  21996794.562
 94  3 22 19 20 59.9990000  0  7  2 31 18 19 27 28 29
  23653027.081    -3674451.885 5  -2735527.233 9  23653033.632
  21807888.503    -6924255.402 7  -5339055.050 9  21807891.597
  20305112.526     -254604.842 8   -199211.285 9  20305114.882
  20686061.815    -4076460.075 8  -3159748.673 9  20686064.417
  21739327.612    -8349844.891 7  -6446188.037 9  21739330.284
  23225664.948     -896416.077 6   -690298.279 9  23225668.804
  22008785.097     5431077.803 7   4177685.213 9  22008788.530
 94  3 22 19 21 29.9990000  0  7  2 31 18 19 27 28 29
  23633698.401    -3776027.167 5  -2814676.678 9  23633705.069
  21799954.573    -6965946.872 7  -5371541.908 9  21799957.585
  20308705.565     -235724.029 8   -184499.002 9  20308707.780
  20679793.753    -4109400.628 8  -3185416.636 9  20679796.378
  21725029.120    -8424982.547 7  -6504736.842 9  21725031.897
  23228679.222     -880578.493 6   -677957.330 9  23228682.843
  22020839.894     5494425.346 7   4227046.827 9  22020843.116
 94  3 22 19 21 59.9990000  0  7  2 31 18 19 27 28 29
  23614399.573    -3877440.515 5  -2893699.941 9  23614405.292
  21792123.261    -7007099.851 7  -5403609.156 9  21792126.425
  20312387.519     -216374.965 8   -169421.845 9  20312389.827
  20673554.831    -4142186.785 8  -3210964.290 9  20673557.292
  21710745.683    -8500042.017 7  -6563224.724 9  21710748.565
  23231786.589     -864246.433 6   -665231.077 9  23231790.491
  22032950.284     5558069.911 7   4276639.891 9  22032953.659
 94  3 22 19 22 29.9990000  0  7  2 31 18 19 27 28 29
  23595132.175    -3978690.921 5  -2972596.252 9  23595138.632
  21784397.940    -7047697.920 7  -5435244.007 9  21784401.104
  20316159.886     -196552.322 8   -153975.664 9  20316162.065
  20667348.229    -4174802.443 8  -3236379.091 9  20667350.749
  21696473.175    -8575044.264 7  -6621668.015 9  21696475.987
  23234992.534     -847400.309 6   -652104.249 9  23234996.366
  22045116.917     5622004.495 7   4326458.932 9  22045120.456
 94  3 22 19 22 59.9990000  0  7  2 31 18 19 27 28 29
  23575898.019    -4079767.183 5  -3051356.888 9  23575904.804
  21776780.144    -7087730.248 7  -5466438.011 9  21776783.437
  20320024.269     -176243.927 8   -138150.982 9  20320026.425
  20661172.761    -4207253.911 8  -3261665.951 9  20661175.187
  21682210.995    -8649994.188 7  -6680070.537 9  21682213.890
  23238299.034     -830026.980 6   -638566.617 9  23238303.499
  22057338.487     5686227.743 7   4376502.912 9  22057341.851
 94  3 22 19 23 29.9990000  0  7  2 31 18 19 27 28 29
  23556698.854    -4180661.214 6  -3129975.518 9  23556705.534
  21769267.183    -7127210.608 7  -5497201.914 9  21769270.323
  20323979.472     -155460.116 8   -121955.842 9  20323981.733
  20655026.495    -4239552.796 8  -3286833.916 9  20655029.015
  21667960.050    -8724881.846 7  -6738424.535 9  21667963.097
  23241704.331     -812127.590 6   -624619.075 9  23241709.101
  22069614.940     5750740.168 6   4426772.218 9  22069618.456
 94  3 22 19 23 59.9990000  0  7  2 31 18 19 27 28 29
  23537536.753    -4281355.228 5  -3208438.294 9  23537543.351
  21761859.534    -7166137.791 7  -5527534.768 9  21761862.745
  20328024.698     -134202.232 8   -105391.296 9  20328026.925
  20648911.042    -4271689.720 8  -3311875.670 9  20648913.503
  21653727.159    -8799677.407 7  -6796706.767 9  21653729.913
  23245212.339     -793693.775 6   -610255.106 9  23245216.616
  22081951.550     5815569.684 6   4477288.613 9  22081955.194
 94  3 22 19 24 29.9990000  0  7  2 31 18 19 27 28 29
  23518415.925    -4381839.654 6  -3286737.783 9  23518422.831
  21754555.565    -7204522.127 7  -5557444.615 9  21754558.706
  20332160.222     -112469.743 8    -88456.934 9  20332162.495
  20642825.964    -4303667.083 8  -3336793.086 9  20642828.425
  21639514.956    -8874362.487 7  -6854902.910 9  21639517.769
  23248819.284     -774740.216 6   -595486.147 9  23248823.397
  22094352.714     5880737.928 7   4528068.951 9  22094356.101
 94  3 22 19 24 59.9990000  0  7  2 31 18 19 27 28 29
  23499332.519    -4482122.774 6  -3364880.417 9  23499338.917
  21747351.433    -7242379.134 7  -5586943.552 9  21747354.397
  20336384.550      -90271.592 8    -71159.711 9  20336386.765
  20636769.456    -4335494.118 8  -3361593.366 9  20636772.011
  21625326.151    -8948926.303 7  -6913004.563 9  21625328.718
  23252520.401     -755287.426 6   -580328.174 9  23252524.491
  22106817.667     5946239.974 6   4579109.390 9  22106821.124
 94  3 22 19 25 29.9990000  0  7  2 31 18 19 27 28 29
  23480288.519    -4582196.689 6  -3442860.019 9  23480294.999
  21740248.722    -7279705.118 7  -5616028.704 9  21740251.745
  20340699.417      -67596.667 8    -53490.981 9  20340701.538
  20630743.917    -4367159.954 8  -3386268.039 9  20630746.378
  21611162.784    -9023355.284 7  -6971001.144 9  21611165.679
  23256319.042     -735329.047 6   -564776.229 9  23256323.284
  22119347.620     6012085.718 6   4630417.650 9  22119351.194
 94  3 22 19 25 59.9990000  0  7  2 31 18 19 27 28 29
  23461282.862    -4682071.507 6  -3520684.503 9  23461289.097
  21733244.206    -7316513.087 7  -5644710.202 9  21733247.136
  20345105.542      -44443.381 8    -35449.501 9  20345107.628
  20624746.901    -4398673.240 8  -3410823.839 9  20624749.397
  21597020.589    -9097672.164 7  -7028910.382 9  21597023.343
  23260207.979     -714891.465 6   -548850.870 9  23260212.198
  22131940.237     6078258.180 6   4681980.497 9  22131943.741
 94  3 22 19 26 29.9990000  0  7  2 31 18 19 27 28 29
  23442315.995    -4781746.011 6  -3598352.887 9  23442322.370
  21726340.933    -7352789.991 7  -5672977.891 9  21726343.886
  20349605.636      -20795.060 8    -17022.276 9  20349607.862
  20618782.440    -4430016.045 8  -3435246.799 9  20618784.796
  21582899.729    -9171876.657 7  -7086732.029 9  21582902.612
  23264188.948     -693970.162 6   -532548.606 9  23264193.929
  22144593.081     6144747.273 7   4733790.077 9  22144596.550
 94  3 22 19 26 59.9990000  0  7  2 31 18 19 27 28 29
  23423384.175    -4881230.643 6  -3675873.330 9  23423390.386
  21719539.776    -7388529.599 7  -5700826.906 9  21719543.022
  20354196.886        3332.703 8      1778.542 9  20354199.101
  20612849.815    -4461194.114 8  -3459541.391 9  20612852.276
  21568796.487    -9245990.557 7  -7144483.079 9  21568799.499
  23268265.667     -672548.212 6   -515856.214 9  23268269.897
  22157301.433     6211532.845 6   4785830.663 9  22157304.808
 94  3 22 19 27 29.9990000  0  7  2 31 18 19 27 28 29
  23404492.933    -4980504.865 6  -3753229.808 9  23404499.425
  21712843.370    -7423719.212 7  -5728247.358 9  21712846.745
  20358878.667       27935.709 8     20949.676 9  20358881.011
  20606949.722    -4492199.399 8  -3483701.350 9  20606952.065
  21554707.667    -9320026.093 7  -7202173.070 9  21554710.585
  23272437.940     -650623.849 6   -498772.330 9  23272442.101
  22170066.573     6278614.503 6   4838101.958 9  22170070.147
 94  3 22 19 27 59.9990000  0  7  2 31 18 19 27 28 29
  23385641.487    -5079569.633 6  -3830423.088 9  23385648.050
  21706254.815    -7458342.241 7  -5755226.313 9  21706257.851
  20363647.589       52996.439 8     40477.473 9  20363649.921
  20601085.394    -4523015.887 8  -3507714.193 9  20601087.690
  21540634.925    -9393978.950 7  -7259798.642 9  21540637.808
  23276702.714     -628211.853 6   -481308.471 9  23276707.026
  22182887.651     6345987.156 6   4890600.018 9  22182891.132
 94  3 22 19 28 29.9990000  0  7  2 31 18 19 27 28 29
  23366827.659    -5178435.224 6  -3907461.157 9  23366834.612
  21699778.276    -7492376.223 7  -5781746.269 9  21699781.476
  20368503.362       78513.234 8     60360.647 9  20368505.788
  20595256.987    -4553645.698 8  -3531581.565 9  20595259.331
  21526580.620    -9467836.730 7  -7317350.133 9  21526583.128
  23281065.019     -605289.376 6   -463446.822 9  23281069.308
  22195762.409     6413647.465 6   4943322.215 9  22195765.995
 94  3 22 19 28 59.9990000  0  7  2 31 18 19 27 28 29
  23348056.300    -5277082.277 6  -3984328.924 9  23348061.854
  21693415.159    -7525815.655 7  -5807802.941 9  21693418.511
  20373446.698      104490.434 8     80602.573 9  20373449.183
  20589462.831    -4584093.030 8  -3555306.753 9  20589465.198
  21512545.378    -9541591.911 7  -7374821.673 9  21512547.851
  23285525.878     -581847.355 6   -445180.345 9  23285530.354
  22208695.792     6481609.240 6   4996279.321 9  22208699.589
 94  3 22 19 29 29.9990000  0  7  2 31 18 19 27 28 29
  23329324.815    -5375514.017 6  -4061028.917 9  23329330.522
  21687164.808    -7558661.657 7  -5833397.203 9  21687168.030
  20378477.526      130927.107 8    101202.536 9  20378479.999
  20583701.183    -4614370.358 8  -3578899.473 9  20583703.632
  21498531.706    -9615232.944 7  -7432204.261 9  21498534.519
  23290080.659     -557910.630 6   -426528.360 9  23290084.866
  22221685.894     6549874.179 6   5049472.669 9  22221689.538
 94  3 22 19 29 59.9990000  0  7  2 31 18 19 27 28 29
  23310629.706    -5473754.179 6  -4137579.607 9  23310635.261
  21681026.909    -7590915.610 7  -5858530.138 9  21681030.144
  20383597.440      157832.454 8    122167.702 9  20383599.972
  20577968.683    -4644494.146 8  -3602372.555 9  20577971.226
  21484543.339    -9688743.557 7  -7489485.229 9  21484546.093
  23294731.854     -533470.273 6   -407483.950 9  23294736.062
  22234735.620     6618449.726 6   5102908.041 9  22234739.229
 94  3 22 19 30 29.9990000  0  7  2 31 18 19 27 28 29
  23291972.401    -5571802.167 6  -4213980.552 9  23291978.812
  21674998.339    -7622596.024 7  -5883216.155 9  21675001.538
  20388808.065      185216.165 8    143505.609 9  20388810.597
  20572262.831    -4674479.463 8  -3625737.735 9  20572265.140
  21470576.823    -9762137.687 7  -7546675.434 9  21470579.706
  23299481.933     -508509.733 6   -388034.208 9  23299485.882
  22247844.362     6687333.763 6   5156583.790 9  22247847.831
 94  3 22 19 30 59.9990000  0  7  2 31 18 19 27 28 29
  23273354.136    -5669642.338 6  -4290219.549 9  23273360.429
  21669077.120    -7653712.167 7  -5907462.486 9  21669080.144
  20394110.854      213081.796 8    165219.048 9  20394113.433
  20566584.261    -4704321.817 8  -3648991.508 9  20566586.569
  21456633.909    -9835409.176 7  -7603770.074 9  21456636.698
  23304326.354     -483051.518 6   -368196.661 9  23304330.046
  22261011.917     6756529.231 6   5210502.221 9  22261015.515
 94  3 22 19 31 29.9990000  0  7  2 31 18 19 27 28 29
  23254772.331    -5767288.159 6  -4366307.126 9  23254778.448
  21663261.800    -7684271.680 7  -5931275.072 9  21663265.081
  20399506.448      241435.409 8    187312.729 9  20399508.991
  20560934.878    -4734009.224 8  -3672124.544 9  20560937.187
  21442714.487    -9908554.160 7  -7660766.138 9  21442717.241
  23309265.964     -457093.011 6   -347969.275 9  23309269.878
  22274235.964     6826022.600 6   5264652.787 9  22274239.526
 94  3 22 19 31 59.9990000  0  7  2 31 18 19 27 28 29
  23236227.972    -5864739.531 6  -4442243.157 9  23236234.265
  21657548.839    -7714293.714 7  -5954668.856 9  21657552.003
  20404992.909      270266.847 8    209778.741 9  20404995.464
  20555316.628    -4763531.915 8  -3695129.236 9  20555319.089
  21428815.909    -9981592.352 7  -7717678.995 9  21428818.522
  23314300.136     -430639.153 6   -327355.902 9  23314304.108
  22287512.651     6895793.936 6   5319019.945 9  22287516.812
 94  3 22 19 32 29.9990000  0  7  2 31 18 19 27 28 29
  23217726.089    -5961966.862 6  -4518004.618 9  23217732.171
  21651941.167    -7743761.128 7  -5977630.568 9  21651945.163
  20410571.394      299580.987 8    232620.884 9  20410573.925
  20549737.901    -4792850.184 8  -3717974.604 9  20549740.022
  21414939.276   -10054514.546 7  -7774501.460 9  21414941.890
  23319429.323     -403687.291 6   -306354.477 9  23319432.921
  22300841.628     6965836.253 6   5373598.251 9  22300845.261
 94  3 22 19 32 59.9990000  0  7  2 31 18 19 27 28 29
  23199265.894    -6058978.714 6  -4593598.179 9  23199271.636
  21646440.675    -7772667.591 7  -6000154.978 9  21646443.874
  20416238.862      329363.214 8    255827.769 9  20416241.171
  20544196.315    -4821969.199 8  -3740664.774 9  20544198.636
  21401086.120   -10127312.559 7  -7831227.163 9  21401088.792
  23324650.831     -376248.533 6   -284973.651 9  23324654.300
  22314222.019     7036150.945 6   5428388.813 9  22314226.050
 94  3 22 19 33 29.9990000  0  7  2 31 18 19 27 28 29
  23180845.854    -6155774.632 6  -4669023.455 9  23180851.374
  21641049.011    -7801001.726 7  -6022233.514 9  21641051.870
  20421992.894      359600.275 8    279389.072 9  20421995.425
  20538693.229    -4850890.077 8  -3763200.514 9  20538695.550
  21387253.487   -10200002.448 7  -7887868.611 9  21387256.194
  23329967.175     -348310.307 6   -263203.636 9  23329970.515
  22327655.808     7106745.577 6   5483397.502 9  22327659.827
 94  3 22 19 33 59.9990000  0  7  2 31 18 19 27 28 29
  23162467.894    -6252350.780 6  -4744277.503 9  23162472.675
  21635771.480    -7828735.943 7  -6043844.589 9  21635774.644
  20427832.854      390290.335 8    303303.363 9  20427835.269
  20533225.479    -4879622.013 8  -3785589.034 9  20533227.765
  21373440.433   -10272592.371 7  -7944432.164 9  21373443.046
  23335378.698     -319874.155 6   -241045.627 9  23335381.757
  22341144.589     7177629.605 6   5538631.688 9  22341148.644
 94  3 22 19 34 29.9990000  0  7  2 31 18 19 27 28 29
  23144128.690    -6348723.313 6  -4819372.888 9  23144134.339
  21630609.917    -7855858.801 7  -6064979.283 9  21630613.245
  20433759.690      421436.059 8    327572.708 9  20433762.292
  20527790.386    -4908184.680 8  -3807845.655 9  20527792.448
  21359644.636   -10345089.841 7  -8000923.673 9  21359646.909
  23340885.644     -290936.243 6   -218496.655 9  23340888.866
  22354689.800     7248808.579 6   5594095.701 9  22354693.690
 94  3 22 19 34 59.9990000  0  7  2 31 18 19 27 28 29
  23125828.261    -6444891.938 6  -4894309.372 9  23125833.663
  21625567.190    -7882357.698 7  -6085627.778 9  21625570.472
  20439775.620      453048.657 8    352205.855 9  20439778.222
  20522385.183    -4936589.586 8  -3829979.346 9  20522387.351
  21345865.589   -10417498.358 7  -8057345.871 9  21345868.226
  23346488.386     -261492.637 6   -195553.607 9  23346491.608
  22368295.433     7320305.234 6   5649807.265 9  22368299.440
 94  3 22 19 35 29.9990000  0  7  2 31 18 19 27 28 29
  23107567.440    -6540853.896 6  -4969084.830 9  23107572.819
  21620643.519    -7908232.221 7  -6105789.742 9  21620646.788
  20445882.831      485142.142 8    377213.713 9  20445885.351
  20517011.730    -4964826.031 8  -3851981.768 9  20517014.167
  21332102.737   -10489822.520 7  -8113702.340 9  21332105.433
  23352186.495     -231548.669 6   -172220.692 9  23352189.765
  22381957.948     7392103.285 6   5705753.671 9  22381962.226
 94  3 22 19 35 59.9990000  0  7  2 31 18 19 27 28 29
  23089344.542    -6636614.917 6  -5043703.724 9  23089349.909
  21615835.683    -7933497.454 7  -6125476.942 9  21615838.917
  20452081.940      517718.801 8    402598.075 9  20452084.437
  20511671.854    -4992889.255 8  -3873849.214 9  20511674.187
  21318358.300   -10562050.317 7  -8169983.713 9  21318360.995
  23357978.417     -201110.836 6   -148502.952 9  23357981.358
  22395675.753     7464188.608 6   5761923.937 9  22395679.714
 94  3 22 19 36 29.9990000  0  7  2 31 18 19 27 28 29
  23071162.753    -6732160.227 6  -5118154.525 9  23071168.343
  21611139.878    -7958175.078 7  -6144706.255 9  21611143.124
  20458371.339      550769.261 8    428351.631 9  20458373.905
  20506363.956    -5020780.881 8  -3895582.951 9  20506366.312
  21304636.776   -10634156.938 7  -8226170.654 9  21304639.460
  23363864.206     -170181.732 6   -124402.393 9  23363867.276
  22409448.151     7536563.236 6   5818319.617 9  22409452.394
 94  3 22 19 36 59.9990000  0  7  2 31 18 19 27 28 29
  23053023.206    -6827484.761 6  -5192433.288 9  23053029.335
  21606553.112    -7982278.282 7  -6163487.974 9  21606556.335
  20464749.058      584284.431 8    454467.299 9  20464751.530
  20501090.792    -5048491.083 8  -3917175.317 9  20501093.194
  21290942.784   -10706118.268 7  -8282244.397 9  21290945.444
  23369840.901     -138774.761 6    -99929.476 9  23369843.749
  22423274.722     7609221.398 6   5874936.244 9  22423278.812
 94  3 22 19 37 29.9990000  0  7  2 31 18 19 27 28 29
  23034925.362    -6922589.216 6  -5266540.580 9  23034930.636
  21602070.183    -8005836.519 7  -6181845.049 9  21602073.546
  20471214.878      618261.994 8    480943.271 9  20471217.315
  20495853.073    -5076015.587 8  -3938622.980 9  20495855.511
  21277278.370   -10777926.837 7  -8338199.098 9  21277280.925
  23375906.933     -106895.725 6    -75088.722 9  23375910.413
  22437151.362     7682144.287 6   5931759.142 9  22437155.546
 94  3 22 19 37 59.9990000  0  7  2 31 18 19 27 28 29
  23016870.808    -7017465.342 6  -5340469.959 9  23016876.011
  21597690.214    -8028853.613 7  -6199780.448 9  21597693.343
  20477767.550      652695.847 8    507774.796 9  20477770.128
  20490650.237    -5103358.260 8  -3959928.956 9  20490652.581
  21263644.409   -10849572.619 7  -8394026.953 9  21263647.069
  23382062.315      -74549.040 6    -49883.555 9  23382066.335
  22451082.487     7755350.448 6   5988802.769 9  22451086.823
 94  3 22 19 38 29.9990000  0  7  2 31 18 19 27 28 29
  22998859.206    -7112114.955 6  -5414222.828 9  22998864.679
  21593413.386    -8051328.786 7  -6217293.574 9  21593416.386
  20484406.558      687585.282 8    534961.316 9  20484409.112
  20485481.104    -5130520.119 8  -3981094.051 9  20485483.390
  21250038.519   -10921071.608 7  -8449740.421 9  21250041.155
  23388305.362      -41741.214 6    -24319.056 9  23388309.358
  22465064.901     7828829.175 6   6046058.786 9  22465069.085
 94  3 22 19 38 59.9990000  0  7  2 31 18 19 27 28 29
  22980891.987    -7206536.014 6  -5487797.607 9  22980897.425
  21589241.847    -8073249.977 7  -6234375.018 9  21589245.093
  20491136.644      722950.360 8    562518.478 9  20491139.128
  20480350.534    -5157482.671 8  -4002103.836 9  20480352.784
  21236457.854   -10992439.203 7  -8505351.510 9  21236460.444
  23394638.167       -8461.874 6      1612.841 9  23394641.905
  22479100.370     7902584.993 6   6103530.712 9  22479104.835
 94  3 22 19 39 29.9990000  0  7  2 31 18 19 27 28 29
  22962969.839    -7300716.049 6  -5561184.575 9  22962974.983
  21585179.659    -8094598.138 7  -6251009.950 9  21585182.741
  20497957.847      758795.555 8    590449.755 9  20497960.472
  20475254.573    -5184262.642 8  -4022971.345 9  20475256.882
  21222898.206   -11063694.739 7  -8560875.282 9  21222901.030
  23401062.097       25298.848 6     27919.855 9  23401066.550
  22493186.690     7976608.074 6   6161210.898 9  22493191.249
 94  3 22 19 39 59.9990000  0  7  2 31 18 19 27 28 29
  22945094.433    -7394653.219 6  -5634382.306 9  22945099.765
  21581232.362    -8115339.851 7  -6267172.321 9  21581235.480
  20504867.925      795109.500 8    618746.286 9  20504870.515
  20470190.378    -5210874.183 8  -4043707.618 9  20470192.815
  21209359.808   -11134839.199 7  -8616312.495 9  21209362.585
  23407579.870       59550.468 6     54609.385 9  23407584.077
  22507324.729     8050904.482 6   6219104.063 9  22507329.335
 94  3 22 19 40 29.9990000  0  7  2 31 18 19 27 28 29
  22927264.159    -7488350.846 6  -5707393.374 9  22927269.151
  21577402.761    -8135466.741 7  -6282855.613 9  21577405.843
  20511866.401      831886.195 8    647403.404 9  20511869.073
  20465159.776    -5237310.407 8  -4064307.280 9  20465162.050
  21195843.722   -11205866.793 7  -8671658.644 9  21195846.511
  23414192.347       94299.218 6     81686.286 9  23414196.976
  22521514.526     8125471.026 6   6277207.722 9  22521518.991
 94  3 22 19 40 59.9990000  0  7  2 31 18 19 27 28 29
  22909480.378    -7581804.116 6  -5780214.041 9  22909485.593
  21573691.604    -8154966.478 7  -6298050.214 9  21573694.745
  20518952.034      869120.562 8    676417.147 9  20518954.753
  20460160.737    -5263580.437 8  -4084777.442 9  20460163.187
  21182351.644   -11276767.671 7  -8726906.062 9  21182354.444
  23420897.581      129535.406 6    109143.016 9  23420902.690
  22535754.495     8200305.916 6   6335520.485 9  22535758.913
 94  3 22 19 41 29.9990000  0  7  2 31 18 19 27 28 29
  22891741.604    -7675022.503 6  -5852851.680 9  22891746.983
  21570098.370    -8173848.172 7  -6312763.220 9  21570101.522
  20526119.769      906787.219 8    705767.749 9  20526122.522
  20455191.229    -5289695.567 8  -4105126.895 9  20455193.538
  21168883.698   -11347543.209 7  -8782055.808 9  21168886.499
  23427691.776      165239.726 6    136964.536 9  23427696.851
  22550044.386     8275396.289 6   6394032.333 9  22550049.038
 94  3 22 19 41 59.9990000  0  7  2 31 18 19 27 28 29
  22874045.964    -7768012.482 6  -5925311.339 9  22874051.519
  21566617.753    -8192140.120 7  -6327016.681 9  21566620.929
  20533367.808      944877.065 8    735448.103 9  20533370.456
  20450256.448    -5315628.354 8  -4125334.268 9  20450258.815
  21155439.761   -11418191.618 7  -8837106.490 9  21155442.550
  23434571.956      201393.342 6    165136.130 9  23434576.960
  22564383.737     8350747.789 6   6452747.649 9  22564388.296
 94  3 22 19 42 29.9990000  0  7  2 31 18 19 27 28 29
  22856393.620    -7860773.890 6  -5997592.899 9  22856398.940
  21563244.362    -8209866.419 7  -6340829.380 9  21563247.503
  20540699.136      983403.316 8    765468.519 9  20540701.784
  20445359.464    -5341361.773 8  -4145386.281 9  20445361.937
  21142016.347   -11488731.614 7  -8892072.709 9  21142018.995
  23441536.362      237988.963 6    193652.173 9  23441541.261
  22578769.761     8426345.849 6   6511655.082 9  22578773.980
 94  3 22 19 42 59.9990000  0  7  2 31 18 19 27 28 29
  22838787.792    -7953295.372 6  -6069687.487 9  22838793.229
  21559978.831    -8227026.448 7  -6354200.832 9  21559981.960
  20548116.854     1022384.158 8    795843.163 9  20548119.456
  20440498.644    -5366906.650 8  -4165291.388 9  20440501.175
  21128612.058   -11559172.821 7  -8946961.937 9  21128614.753
  23448585.831      275035.323 6    222519.420 9  23448590.706
  22593201.526     8502182.872 6   6570748.727 9  22593206.073
 94  3 22 19 43 29.9990000  0  7  2 31 18 19 27 28 29
  22821225.612    -8045584.970 6  -6141601.392 9  22821230.815
  21556817.972    -8243637.193 7  -6367144.259 9  21556821.405
  20555621.565     1061820.216 8    826572.518 9  20555624.226
  20435675.222    -5392252.482 8  -4185041.391 9  20435677.753
  21115227.901   -11629505.899 7  -9001766.912 9  21115230.644
  23455723.433      312544.496 6    251747.318 9  23455727.921
  22607679.362     8578266.905 6   6630034.844 9  22607684.202
 94  3 22 19 43 59.9990000  0  7  2 31 18 19 27 28 29
  22803704.808    -8137658.502 6  -6213346.932 9  22803709.964
  21553762.573    -8259693.651 7  -6379655.773 9  21553765.784
  20563215.128     1101724.758 8    857666.923 9  20563217.671
  20430889.667    -5417401.278 8  -4204637.849 9  20430892.163
  21101863.753   -11699734.548 7  -9056490.512 9  21101866.425
  23462950.214      350521.334 6    281339.639 9  23462955.042
  22622202.112     8654587.397 6   6689505.213 9  22622206.659
 94  3 22 19 44 29.9990000  0  7  2 31 18 19 27 28 29
  22786224.683    -8229517.996 6  -6284925.690 9  22786229.769
  21550820.558    -8275154.321 7  -6391703.033 9  21550823.616
  20570899.378     1142104.931 8    889131.948 9  20570901.944
  20426140.526    -5442358.052 8  -4224084.680 9  20426142.894
  21088524.253   -11769835.414 7  -9111114.540 9  21088526.761
  23470268.386      388978.042 6    311305.869 9  23470273.249
  22636771.800     8731151.152 6   6749165.133 9  22636776.522
 94  3 22 19 44 59.9990000  0  7  2 31 18 19 27 28 29
  22768783.854    -8321167.824 6  -6356341.077 9  22768789.081
  21547994.308    -8290006.077 7  -6403275.813 9  21547997.437
  20578670.854     1182944.112 8    920954.645 9  20578673.456
  20421428.729    -5467118.866 8  -4243378.812 9  20421431.237
  21075214.409   -11839778.598 7  -9165615.696 9  21075216.940
  23477677.815      427913.071 6    341644.828 9  23477682.011
  22651390.620     8807970.940 6   6809024.561 9  22651395.272
 94  3 22 19 45 29.9990000  0  7  2 31 18 19 27 28 29
  22751382.581    -8412612.377 6  -6427596.506 9  22751387.796
  21545286.487    -8304236.754 7  -6414364.641 9  21545289.394
  20586528.558     1224236.195 8    953130.256 9  20586531.276
  20416758.339    -5491661.573 8  -4262502.997 9  20416760.800
  21061935.784   -11909557.408 7  -9219988.774 9  21061938.526
  23485176.065      467317.292 6    372349.383 9  23485180.894
  22666059.573     8885054.216 6   6869089.315 9  22666064.214
 94  3 22 19 45 59.9990000  0  7  2 31 18 19 27 28 29
  22734025.940    -8503822.621 6  -6498669.353 9  22734030.745
  21542700.456    -8317826.154 7  -6424953.770 9  21542703.608
  20594474.089     1265991.613 7    985666.902 9  20594476.737
  20412130.104    -5515983.061 8  -4281454.802 9  20412132.460
  21048687.776   -11979177.524 7  -9274238.197 9  21048690.284
  23492764.159      507190.022 6    403419.020 9  23492768.179
  22680778.776     8962408.194 6   6929364.983 9  22680783.675
 94  3 22 19 46 29.9990000  0  8  2 31 16 18 19 27 28 29
  22716715.112    -8594791.740 6  -6569554.311 9  22716720.233
  21540232.019    -8330797.648 7  -6435061.414 9  21540235.065
  23964007.003      -38855.90715
  20602503.956     1308188.294 8   1018547.390 9  20602506.815
  20407539.300    -5540107.439 8  -4300253.015 9  20407541.655
  21035466.878   -12048651.863 7  -9328374.025 9  21035469.444
  23500436.808      547512.842 6    434839.371 9  23500441.237
  22695548.612     9040022.925 6   6989843.848 9  22695552.948
 94  3 22 19 46 59.9990000  0  8  2 31 16 18 19 27 28 29
  22699451.862    -8685508.838 6  -6640242.887 9  22699457.089
  21537877.456    -8343172.643 7  -6444704.247 9  21537880.644
  23954446.050      -89100.557 5     -9098.59419  23954452.858
  20610619.042     1350833.501 8   1051777.380 9  20610621.761
  20402984.190    -5564044.531 8  -4318905.291 9  20402986.487
  21022272.026   -12117991.505 7  -9382404.889 9  21022274.616
  23508196.511      588287.901 6    466612.114 9  23508200.753
  22710368.089     9117899.799 6   7050526.968 9  22710373.292
 94  3 22 19 47 29.9990000  0  8  2 31 16 18 19 27 28 29
  22682238.284    -8775968.860 6  -6710731.147 9  22682243.452
  21535634.190    -8354960.424 7  -6453889.510 9  21535637.284
  23944982.198     -138833.426 5    -47851.458 9  23944989.198
  20618821.526     1393938.353 7   1085365.534 9  20618824.280
  20398460.636    -5587816.817 8  -4337429.137 9  20398463.026
  21009100.128   -12187210.240 7  -9436341.541 9  21009102.612
  23516037.737      629498.037 5    498723.896 9  23516042.050
  22725237.651     9196036.978 6   7111412.930 9  22725242.761
 94  3 22 19 47 59.9990000  0  8  2 31 16 18 19 27 28 29
  22665072.644    -8866171.552 6  -6781018.888 9  22665077.472
  21533500.690    -8366172.585 7  -6462626.245 9  21533503.925
  23935616.417     -188046.141 5    -86199.038 9  23935621.151
  20627111.003     1437498.334 8   1119308.332 9  20627113.733
  20393966.058    -5611436.585 8  -4355834.136 9  20393968.612
  20995952.589   -12256301.120 7  -9490178.563 9  20995955.062
  23523964.605      671153.202 6    531182.443 9  23523968.894
  22740156.667     9274435.885 6   7172502.834 9  22740161.390
 94  3 22 19 48 29.9990000  0  8  2 31 16 18 19 27 28 29
  22647953.206    -8956135.449 6  -6851120.552 9  22647958.104
  21531479.667    -8376793.181 7  -6470902.020 9  21531482.854
  23926351.503     -236733.676 5   -124137.360 9  23926356.800
  20635486.542     1481513.444 7   1153605.770 9  20635489.366
  20389504.011    -5634883.771 8  -4374104.659 9  20389506.589
  20982834.401   -12325237.615 7  -9543895.289 9  20982836.804
  23531979.378      713267.957 6    563999.104 9  23531983.104
  22755126.636     9353103.754 6   7233802.317 9  22755131.663
 94  3 22 19 48 59.9990000  0  8  2 31 16 18 19 27 28 29
  22630875.823    -9045876.359 6  -6921048.458 9  22630881.179
  21529569.745    -8386827.916 7  -6478721.288 9  21529572.851
  23917183.261     -284913.150 5   -161679.809 9  23917188.112
  20643945.917     1525966.243 7   1188244.269 9  20643948.788
  20385077.339    -5658146.861 8  -4392231.735 9  20385079.858
  20969743.862   -12394029.767 7  -9597499.529 9  20969746.487
  23540079.550      755831.878 6    597165.764 9  23540083.276
  22770144.722     9432023.987 6   7295298.432 9  22770149.315
 94  3 22 19 49 29.9990000  0  8  2 31 16 18 19 27 28 29
  22613844.370    -9135376.987 6  -6990789.131 9  22613849.608
  21527774.784    -8396261.663 7  -6486072.245 9  21527777.983
  23908111.604     -332585.217 5   -198826.890 9  23908116.526
  20652489.456     1570862.930 7   1223228.650 9  20652492.362
  20380691.253    -5681196.022 8  -4410192.111 9  20380693.702
  20956683.386   -12462660.893 7  -9650978.303 9  20956685.812
  23548268.823      798869.084 6    630701.220 9  23548273.030
  22785212.011     9511201.055 6   7356994.700 9  22785216.792
 94  3 22 19 49 59.9990000  0  8  2 31 16 18 19 27 28 29
  22596855.386    -9224653.970 6  -7060355.533 9  22596860.671
  21526093.667    -8405096.516 7  -6492956.536 9  21526096.901
  23899135.144     -379753.850 5   -235581.650 9  23899140.593
  20661113.440     1616181.253 8   1258541.578 9  20661116.347
  20376348.886    -5704014.914 8  -4427973.057 9  20376351.194
  20943652.073   -12531142.455 7  -9704340.543 9  20943654.581
  23556549.839      842387.152 6    664611.380 9  23556553.858
  22800323.167     9590610.872 6   7418872.309 9  22800328.265
 94  3 22 19 50 29.9990000  0  8  2 31 16 18 19 27 28 29
  22579911.456    -9313695.312 6  -7129738.311 9  22579916.659
  21524528.479    -8413320.077 7  -6499364.499 9  21524531.620
  23890257.104     -426411.528 5   -271938.276 9  23890262.565
  20669817.042     1661920.812 8   1294182.743 9  20669819.890
  20372051.487    -5726597.853 8  -4445570.146 9  20372053.796
  20930648.183   -12599477.913 7  -9757588.931 9  20930650.585
  23564919.214      886368.058 6    698882.182 9  23564923.222
  22815477.386     9670246.027 6   7480925.524 9  22815482.483
 94  3 22 19 50 59.9990000  0  8  2 31 16 18 19 27 28 29
  22563017.925    -9402470.914 6  -7198914.031 9  22563022.940
  21523080.433    -8420929.497 7  -6505293.911 9  21523083.690
  23881478.019     -472546.859 5   -307887.881 9  23881482.753
  20678604.519     1708097.769 8   1330164.732 9  20678607.308
  20367796.690    -5748956.848 8  -4462992.730 9  20367799.128
  20917672.433   -12667664.839 7  -9810721.577 9  20917674.800
  23573374.190      930801.795 5    733505.835 9  23573378.198
  22830674.597     9750106.284 6   7543154.110 9  22830680.315
 94  3 22 19 51 29.9990000  0  8  2 31 16 18 19 27 28 29
  22546172.058    -9490996.072 6  -7267894.590 9  22546177.261
  21521751.722    -8427911.932 7  -6510734.765 9  21521754.874
  23872800.667     -518148.820 5   -343421.873 9  23872806.163
  20687475.628     1754715.595 8   1366490.261 9  20687478.452
  20363579.847    -5771116.647 8  -4480260.101 9  20363582.366
  20904725.425   -12735702.041 7  -9863737.555 9  20904727.897
  23581914.120      975677.356 6    768473.794 9  23581917.858
  22845913.214     9830187.914 6   7605555.216 9  22845918.733
 94  3 22 19 51 59.9990000  0  8  2 31 16 18 19 27 28 29
  22529374.690    -9579267.457 6  -7336677.408 9  22529379.940
  21520545.065    -8434252.817 7  -6515675.704 9  21520548.101
  23864224.167     -563215.878 5   -378539.073 9  23864229.546
  20696431.729     1801779.027 8   1403163.013 9  20696434.413
  20359399.081    -5793085.728 8  -4497378.861 9  20359401.507
  20891806.948   -12803588.735 7  -9916636.260 9  20891809.397
  23590534.886     1020974.927 6    803770.554 9  23590538.718
  22861194.198     9910488.010 6   7668126.535 9  22861199.483
 94  3 22 19 52 29.9990000  0  8  2 31 16 18 19 27 28 29
  22512624.206    -9667293.008 6  -7405268.663 9  22512629.315
  21519457.362    -8439969.358 7  -6520130.146 9  21519460.480
  23855744.183     -607781.004 5   -413265.126 9  23855749.105
  20705471.011     1849280.064 8   1440176.758 9  20705473.870
  20355249.284    -5814894.119 8  -4514372.411 9  20355251.675
  20878913.604   -12871344.492 7  -9969432.934 9  20878916.030
  23599229.753     1066667.291 6    839374.953 9  23599233.714
  22876513.581     9990993.265 6   7730857.732 9  22876518.784
 94  3 22 19 52 59.9990000  0  8  2 31 16 18 19 27 28 29
  22495917.987    -9755081.685 6  -7473675.339 9  22495922.944
  21518486.558    -8445069.119 7  -6524103.980 9  21518489.687
  23847360.097     -651840.963 5   -447597.533 9  23847364.362
  20714596.034     1897232.681 8   1477542.377 9  20714598.718
  20351132.190    -5836530.044 8  -4531231.569 9  20351134.616
  20866046.854   -12938959.609 7 -10022120.025 9  20866049.245
  23608003.565     1112777.315 6    875304.794 9  23608007.690
  22891875.042    10071711.960 6   7793755.256 9  22891879.976
 94  3 22 19 53 29.9990000  0  8  2 31 16 18 19 27 28 29
  22479258.120    -9842631.146 6  -7541895.619 9  22479263.147
  21517632.175    -8449562.053 7  -6527604.957 9  21517635.304
  23839071.198     -695399.298 5   -481539.091 9  23839075.358
  20723806.933     1945636.958 8   1515259.941 9  20723809.733
  20347050.698    -5857977.165 8  -4547943.608 9  20347053.042
  20853207.253   -13006432.412 7 -10074696.217 9  20853209.714
  23616860.761     1159321.078 6    911572.632 9  23616864.476
  22907275.886    10152644.063 6   7856819.063 9  22907280.937
 94  3 22 19 53 59.9990000  0  8  2 31 16 18 19 27 28 29
  22462646.245    -9929925.214 6  -7609916.885 9  22462651.226
  21516887.456    -8453473.663 7  -6530652.953 9  21516890.386
  23830876.308     -738465.908 5   -515097.496 9  23830881.745
  20733101.776     1994480.193 8   1553319.551 9  20733104.694
  20343008.972    -5879216.888 8  -4564494.038 9  20343011.456
  20840394.323   -13073764.435 7 -10127162.707 9  20840396.808
  23625800.269     1206302.613 5    948181.592 9  23625805.132
  22922718.300    10233795.027 6   7920053.411 9  22922723.222
 94  3 22 19 54 29.9980000  0  8  2 31 16 18 19 27 28 29
  22446081.404   -10016975.582 6  -7677748.262 9  22446086.525
  21516249.623    -8456827.035 7  -6533265.959 9  21516252.436
  23822775.201     -781035.271 5   -548268.426 9  23822780.322
  20742476.951     2043747.536 8   1591709.632 9  20742479.869
  20339005.951    -5900251.700 8  -4580884.801 9  20339008.518
  20827609.904   -13140946.542 7 -10179512.384 9  20827612.271
  23634825.795     1253729.859 6    985137.847 9  23634830.412
  22938201.592    10315161.901 6   7983455.985 9  22938206.936
 94  3 22 19 54 59.9980000  0  8  2 31 16 18 19 27 28 29
  22429562.475   -10103781.755 6  -7745389.351 9  22429567.525
  21515716.404    -8459628.470 7  -6535448.877 9  21515719.135
  23814771.178     -823095.155 5   -581042.356 9  23814776.709
  20751931.584     2093432.868 7   1630425.422 9  20751934.443
  20335040.764    -5921088.780 7  -4597121.486 9  20335043.307
  20814857.029   -13207965.022 7 -10231734.551 9  20814859.432
  23643938.381     1301614.856 6   1022450.784 9  23643943.033
  22953727.670    10396748.776 6   8047029.995 9  22953733.260
 94  3 22 19 55 29.9980000  0  8  2 31 16 18 19 27 28 29
  22413093.123   -10190329.386 6  -7812828.984 9  22413098.010
  21515291.397    -8461861.510 7  -6537188.892 9  21515294.326
  23806865.084     -864639.343 5   -613414.455 9  23806869.854
  20761463.076     2143519.305 8   1669453.759 9  20761466.029
  20331113.756    -5941726.597 8  -4613202.898 9  20331116.311
  20802134.982   -13274818.188 7 -10283827.904 9  20802137.408
  23653136.404     1349955.344 5   1060118.660 9  23653140.576
  22969293.639    10478549.586 5   8110770.712 9  22969299.205
 94  3 22 19 55 59.9980000  0  8  2 31 16 18 19 27 28 29
  22396668.943   -10276638.420 6  -7880082.696 9  22396673.736
  21514973.865    -8463528.239 7  -6538487.627 9  21514976.760
  23799058.998     -905664.006 5   -645381.703 9  23799065.986
  20771067.272     2193990.157 7   1708781.637 9  20771070.272
  20327223.896    -5962168.227 8  -4629131.443 9  20327226.357
  20789442.990   -13341515.573 7 -10335799.863 9  20789445.322
  23662419.764     1398738.762 5   1098131.674 9  23662423.854
  22984899.592    10560558.776 5   8174673.792 9  22984904.959
 94  3 22 19 56 29.9980000  0  8  2 31 16 18 19 27 28 29
  22380292.037   -10362698.945 6  -7947142.764 9  22380296.760
  21514770.412    -8464599.850 7  -6539322.641 9  21514773.365
  23791353.709     -946153.738 5   -676932.159 9  23791358.514
  20780750.795     2244877.190 7   1748433.815 9  20780753.830
  20323371.022    -5982415.405 8  -4644908.467 9  20323373.436
  20776781.381   -13408052.113 7 -10387646.495 9  20776783.654
  23671787.896     1447963.270 5   1136488.363 9  23671792.666
  23000546.193    10642778.725 5   8238741.088 9  23000551.713
 94  3 22 19 56 59.9980000  0  8  2 31 16 18 19 27 28 29
  22363964.459   -10448501.677 6  -8014001.969 9  22363969.369
  21514682.740    -8465060.871 7  -6539681.861 9  21514685.576
  23783748.271     -986118.648 5   -708073.657 9  23783753.604
  20790513.975     2296183.880 7   1788412.994 9  20790516.951
  20319556.365    -6002461.772 8  -4660529.016 9  20319558.697
  20764147.545   -13474442.856 7 -10439379.521 9  20764149.994
  23681237.131     1497617.668 5   1175180.079 9  23681240.787
  23016233.607    10725217.635 5   8302979.038 9  23016240.490
 94  3 22 19 57 29.9980000  0  8  2 31 16 18 19 27 28 29
  22347684.272   -10534051.614 6  -8080664.184 9  22347688.947
  21514711.092    -8464910.997 7  -6539565.064 9  21514714.174
  23776240.834    -1025572.952 5   -738817.288 9  23776246.670
  20800358.936     2347918.228 7   1828725.415 9  20800361.889
  20315780.842    -6022301.718 8  -4675988.709 9  20315783.350
  20751539.490   -13540700.234 7 -10491008.609 9  20751542.080
  23690763.482     1547676.372 5   1214186.793 9  23690767.209
  23031963.592    10807876.929 5   8367388.677 9  23031970.791
 94  3 22 19 57 59.9980000  0  8  2 31 16 18 19 27 28 29
  22331453.912   -10619344.365 6  -8147125.997 9  22331458.647
  21514853.529    -8464163.116 7  -6538982.289 9  21514856.541
  23768828.654    -1064523.742 5   -769168.569 9  23768833.506
  20810288.709     2400100.641 7   1869386.981 9  20810291.592
  20312043.131    -6041943.398 8  -4691293.915 9  20312045.744
  20738956.162   -13606825.318 7 -10542534.613 9  20738958.635
  23700362.670     1598125.186 5   1253497.517 9  23700367.217
  23047736.436    10890764.750 5   8431976.390 9  23047743.318
 94  3 22 19 58 29.9980000  0  8  2 31 16 18 19 27 28 29
  22315273.639   -10704371.132 6  -8213380.555 9  22315278.525
  21515110.170    -8462813.208 7  -6537930.411 9  21515113.018
  23761511.881    -1102973.013 5   -799129.033 9  23761516.580
  20820303.982     2452730.048 7   1910396.848 9  20820307.076
  20308342.498    -6061390.294 7  -4706447.345 9  20308345.123
  20726397.670   -13672819.943 7 -10593958.965 9  20726400.154
  23710039.068     1648971.574 5   1293118.039 9  23710043.275
  23063554.709    10973890.327 5   8496749.353 9  23063561.377
 94  3 22 19 58 59.9980000  0  8  2 31 16 18 19 27 28 29
  22299139.600   -10789156.029 6  -8279446.646 9  22299144.486
  21515475.842    -8460891.398 7  -6536432.892 9  21515478.818
  23754288.740    -1140933.555 5   -828708.673 9  23754293.451
  20830398.248     2505775.484 8   1951730.890 9  20830401.178
  20304680.318    -6080633.816 7  -4721442.297 9  20304683.119
  20713865.021   -13738678.824 7 -10645277.535 9  20713867.447
  23719789.600     1700212.479 5   1333045.947 9  23719793.736
  23079415.584    11057239.002 5   8561696.166 9  23079422.807
 94  3 22 19 59 29.9980000  0  8  2 31 16 18 19 27 28 29
  22283050.912   -10873704.800 6  -8345328.737 9  22283055.623
  21515951.467    -8458391.756 7  -6534485.119 9  21515954.432
  23747161.514    -1178387.845 5   -857893.845 9  23747166.049
  20840574.045     2559248.344 8   1993398.002 9  20840576.916
  20301059.818    -6099660.640 8  -4736268.401 9  20301062.443
  20701361.842   -13804384.144 7 -10696476.457 9  20701364.197
  23729615.982     1751854.263 5   1373286.254 9  23729621.865
  23095315.865    11140794.427 5   8626804.091 9  23095323.264
 94  3 22 19 59 59.9980000  0  8  2 31 16 18 19 27 28 29
  22267004.193   -10958027.520 6  -8411034.690 9  22267009.033
  21516537.482    -8455312.371 7  -6532085.594 9  21516540.740
  23740131.279    -1215330.179 5   -886680.083 9  23740137.174
  20850828.131     2613133.445 8   2035386.332 9  20850830.897
  20297482.561    -6118460.002 8  -4750917.260 9  20297484.893
  20688889.178   -13869929.316 8 -10747550.585 9  20688891.533
  23739521.982     1803909.891 5   1413849.039 9  23739527.455
  23111254.311    11224548.003 5   8692066.395 9  23111261.791
 94  3 22 20  0 29.9980000  0  8  2 31 16 18 19 27 28 29
  22251002.334   -11042119.194 6  -8476560.596 9  22251006.881
  21517237.873    -8451631.626 7  -6529217.481 9  21517240.885
  23733197.943    -1251764.801 5   -915070.697 9  23733202.701
  20861157.162     2667412.554 8   2077681.682 9  20861159.787
  20293949.537    -6137026.132 8  -4765384.380 9  20293951.799
  20676449.811   -13935297.996 7 -10798487.194 9  20676452.014
  23749507.232     1856382.979 5   1454737.130 9  23749512.248
  23127225.428    11308478.581 5   8757466.631 9  23127231.979
 94  3 22 20  0 59.9980000  0  8  2 31 16 18 19 27 28 29
  22235045.264   -11125973.739 6  -8541901.734 9  22235049.986
  21518055.740    -8447333.929 7  -6525868.629 9  21518058.799
  23726360.451    -1287694.564 5   -943067.944 9  23726365.033
  20871563.342     2722097.835 8   2120293.534 9  20871566.096
  20290461.717    -6155355.097 8  -4779666.694 9  20290464.119
  20664048.670   -14000467.553 7 -10849268.633 9  20664051.002
  23759570.772     1909265.667 5   1495944.399 9  23759577.123
  23143227.365    11392569.864 5   8822992.099 9  23143234.283
 94  3 22 20  1 29.9980000  0  8  2 31 16 18 19 27 28 29
  22219134.740   -11209582.971 6  -8607051.713 9  22219139.404
  21518989.373    -8442428.835 7  -6522046.479 9  21518992.467
  23719617.475    -1323131.073 5   -970680.808 9  23719622.654
  20882046.607     2777187.488 8   2163220.475 9  20882049.584
  20287013.717    -6173473.805 8  -4793785.177 9  20287016.178
  20651682.686   -14065449.192 7 -10899903.652 9  20651684.912
  23769710.240     1962550.472 5   1537464.998 9  23769714.893
  23159258.264    11476813.446 5   8888636.231 9  23159264.522
 94  3 22 20  1 59.9980000  0  8  2 31 16 18 19 27 28 29
  22203273.022   -11292938.938 6  -8672004.338 9  22203277.568
  21520035.787    -8436928.312 7  -6517760.362 9  21520038.963
  23712967.123    -1358080.598 5   -997914.206 9  23712971.893
  20892603.029     2832661.646 8   2206447.032 9  20892605.982
  20283602.857    -6191398.594 8  -4807752.548 9  20283605.482
  20639352.037   -14130247.474 7 -10950395.788 9  20639354.252
  23779925.631     2016232.591 5   1579295.188 9  23779930.260
  23175320.334    11561214.296 5   8954402.901 9  23175326.029
 94  3 22 20  2 29.9980000  0  7  2 31 16 18 19 27 29
  22187462.146   -11376025.482 6  -8736747.033 9  22187466.939
  21521196.225    -8430830.687 7  -6513008.969 9  21521199.201
  23706411.326    -1392532.794 5  -1024760.089 9  23706416.354
  20903233.107     2888523.541 7   2249975.723 9  20903236.131
  20280228.748    -6209128.306 8  -4821567.914 9  20280231.514
  20627056.521   -14194859.796 7 -11000743.036 9  20627058.678
  23191412.990    11645782.164 5   9020299.727 9  23191418.885
 94  3 22 20  2 59.9980000  0  7  2 31 16 18 19 27 29
  22171700.272   -11458853.231 6  -8801288.067 9  22171705.193
  21522463.967    -8424169.003 7  -6507818.046 9  21522466.990
  23699951.959    -1426473.761 5  -1051207.615 9  23699957.502
  20913939.615     2944786.422 7   2293816.865 9  20913942.838
  20276893.342    -6226656.214 8  -4835226.030 9  20276896.236
  20614794.443   -14259298.499 8 -11050954.987 9  20614796.447
  23207538.600    11730525.644 5   9086333.405 9  23207545.256
 94  3 22 20  3 29.9980000  0  7  2 31 16 18 19 27 29
  22155990.303   -11541408.735 6  -8865616.958 9  22155995.061
  21523838.615    -8416943.871 7  -6502188.071 9  21523841.416
  23693592.631    -1459892.488 5  -1077248.193 9  23693597.881
  20924722.357     3001448.814 7   2337969.317 9  20924725.580
  20273596.936    -6243980.390 8  -4848725.394 9  20273599.584
  20602563.264   -14323573.647 8 -11101039.498 9  20602565.408
  23223702.115    11815460.624 5   9152516.289 9  23223708.643
 94  3 22 20  3 59.9980000  0  7  2 31 16 18 19 27 29
  22140333.459   -11623686.563 6  -8929729.479 9  22140338.147
  21525326.756    -8409123.626 7  -6496094.373 9  21525329.850
  23687335.256    -1492776.609 5  -1102872.192 9  23687339.662
  20935581.490     3058514.554 7   2382436.065 9  20935584.736
  20270342.662    -6261081.349 8  -4862050.820 9  20270345.111
  20590363.139   -14387685.654 8 -11150996.885 9  20590365.272
  23239904.646    11900608.628 5   9218865.149 9  23239912.396
 94  3 22 20  4 29.9980000  0  7  2 31 16 18 19 27 29
  22124727.045   -11705696.988 6  -8993633.633 9  22124731.662
  21526928.381    -8400706.500 7  -6489535.565 9  21526931.709
  23681176.029    -1525141.093 5  -1128091.292 9  23681181.256
  20946520.264     3115998.983 7   2427229.063 9  20946523.721
  20267131.514    -6277957.009 8  -4875200.692 9  20267133.799
  20578191.732   -14451648.450 8 -11200838.016 9  20578193.701
  23256147.428    11985960.917 5   9285373.201 9  23256153.404
 94  3 22 20  4 59.9980000  0  7  2 31 16 18 19 27 29
  22109171.350   -11787444.043 7  -9057332.563 9  22109175.873
  21528642.396    -8391699.108 7  -6482516.823 9  21528645.748
  23675113.842    -1557003.523 5  -1152919.166 9  23675118.752
  20957541.521     3173915.381 7   2472358.661 9  20957545.166
  20263961.670    -6294614.196 8  -4888180.315 9  20263963.920
  20566048.084   -14515463.123 8 -11250563.719 9  20566050.053
  23272427.967    12071514.618 5   9352038.195 9  23272434.658
 94  3 22 20  5 29.9980000  0  7  2 31 16 18 19 27 29
  22093663.107   -11868939.578 6  -9120835.500 9  22093667.701
  21530471.725    -8382087.175 7  -6475027.007 9  21530475.029
  23669142.732    -1588378.434 5  -1177367.160 9  23669147.936
  20968639.709     3232236.039 7   2517803.265 9  20968643.307
  20260831.881    -6311061.658 8  -4900996.523 9  20260834.307
  20553931.412   -14579135.899 8 -11300178.857 9  20553933.486
  23288744.717    12157258.510 5   9418851.370 9  23288751.635
 94  3 22 20  5 59.9980000  0  7  2 31 16 18 19 27 29
  22078200.553   -11950194.721 6  -9184151.122 9  22078205.182
  21532413.490    -8371881.803 7  -6467074.763 9  21532416.807
  23663267.545    -1619253.736 5  -1201425.872 9  23663272.525
  20979812.889     3290951.727 7   2563555.685 9  20979816.439
  20257743.092    -6327291.554 7  -4913643.197 9  20257745.775
  20541842.451   -14642662.611 8 -11349680.179 9  20541844.584
  23305095.732    12243179.014 5   9485802.178 9  23305102.482
 94  3 22 20  6 29.9980000  0  7  2 31 16 18 19 27 29
  22062782.600   -12031216.728 6  -9247285.079 9  22062787.393
  21534461.412    -8361120.707 7  -6458689.485 9  21534464.822
  23657487.631    -1649627.247 5  -1225093.576 9  23657492.295
  20991057.740     3350043.888 7   2609601.458 9  20991061.092
  20254694.404    -6343312.983 8  -4926127.427 9  20254697.018
  20529783.678   -14706032.381 8 -11399059.212 9  20529785.600
  23321474.436    12329248.678 5   9552869.198 9  23321482.033
 94  3 22 20  6 59.9980000  0  7  2 31 16 18 19 27 29
  22047412.225   -12111987.029 6  -9310222.902 9  22047416.994
  21536617.209    -8349792.545 7  -6449862.338 9  21536620.420
  23651808.975    -1679471.769 5  -1248349.073 9  23651814.729
  21002371.123     3409495.962 7   2655927.684 9  21002374.334
  20251686.248    -6359120.931 8  -4938445.306 9  20251688.908
  20517759.686   -14769220.798 8 -11448296.919 9  20517761.373
  23337881.256    12415468.077 5   9620052.906 9  23337888.807
 94  3 22 20  7 29.9980000  0  7  2 31 16 18 19 27 29
  22032089.029   -12192512.389 7  -9372969.862 9  22032093.670
  21538883.006    -8337885.668 7  -6440584.240 9  21538886.463
  23646234.717    -1708762.100 5  -1271172.722 9  23646240.482
  21013750.279     3469293.055 7   2702522.757 9  21013753.549
  20248719.553    -6374712.074 8  -4950594.246 9  20248722.295
  20505770.686   -14832221.665 8 -11497388.493 9  20505772.643
  23354315.217    12501829.358 5   9687347.167 9  23354322.627
 94  3 22 20  7 59.9980000  0  7  2 31 16 18 19 27 29
  22016814.123   -12272783.026 7  -9435518.341 9  22016818.951
  21541259.201    -8325397.839 7  -6430853.459 9  21541262.553
  23640766.467    -1737496.657 5  -1293563.310 9  23640772.408
  21025201.154     3529465.920 7   2749410.638 9  21025204.471
  20245795.357    -6390078.921 8  -4962568.415 9  20245797.924
  20493820.529   -14895018.427 8 -11546321.025 9  20493822.486
  23370778.014    12588342.698 5   9754759.913 9  23370783.885
 94  3 22 20  8 29.9980000  0  7  2 31 16 18 19 27 29
  22001586.693   -12352803.533 7  -9497871.914 9  22001590.936
  21543748.131    -8312317.873 7  -6420661.266 9  21543751.506
  23635397.693    -1765709.333 5  -1315547.218 9  23635403.869
  21036724.725     3590023.632 7   2796598.401 9  21036727.900
  20242910.928    -6405236.582 8  -4974379.581 9  20242913.424
  20481908.373   -14957619.323 8 -11595100.935 9  20481910.471
  23387271.904    12675014.120 5   9822295.828 8  23387278.951
 94  3 22 20  8 59.9980000  0  7  2 31 16 18 19 27 29
  21986404.232   -12432585.168 7  -9560039.352 9  21986408.896
  21546352.717    -8298631.461 7  -6409996.519 9  21546356.022
  23630125.029    -1793417.641 5  -1337138.147 9  23630130.889
  21048325.490     3650983.651 7   2844099.648 9  21048328.678
  20240067.209    -6420179.777 8  -4986023.627 9  20240069.635
  20470031.248   -15020033.164 8 -11643735.084 9  20470033.404
  23403796.045    12761851.190 5   9889960.830 9  23403803.994
 94  3 22 20  9 29.9980000  0  7  2 31 16 18 19 27 29
  21971266.803   -12512132.649 7  -9622024.328 9  21971271.479
  21549069.529    -8284353.796 7  -6398871.050 9  21549072.822
  23624945.717    -1820636.360 5  -1358347.598 9  23624951.436
  21060005.717     3712364.848 7   2891929.088 9  21060008.869
  20237265.670    -6434902.168 8  -4997495.618 9  20237268.107
  20458189.998   -15082259.115 8 -11692222.823 9  20458192.225
  23420356.061    12848874.085 5   9957770.638 9  23420361.498
 94  3 22 20  9 59.9980000  0  7  2 31 16 18 19 27 29
  21956175.639   -12591438.461 7  -9683820.993 9  21956179.986
  21551894.475    -8269509.381 7  -6387303.964 9  21551897.873
  23619854.053    -1847393.048 5  -1379196.982 9  23619859.994
  21071764.889     3774161.274 7   2940082.085 9  21071767.994
  20234504.420    -6449412.987 8  -5008802.748 9  20234507.033
  20446381.607   -15144313.673 8 -11740577.010 9  20446383.623
  23436950.701    12936079.278 5  10025722.473 9  23436957.572
 94  3 22 20 10 29.9980000  0  7  2 31 16 18 19 27 29
  21941132.592   -12670490.906 7  -9745420.226 9  21941137.057
  21554826.920    -8254099.726 7  -6375296.430 9  21554830.178
  23614852.904    -1873673.834 5  -1399675.542 9  23614858.096
  21083599.467     3836349.433 7   2988540.323 9  21083602.678
  20231784.959    -6463702.717 7  -5019937.601 9  20231787.572
  20434607.232   -15206187.854 8 -11788790.643 9  20434609.424
  23453580.256    13023467.549 5  10093817.005 9  23453587.631
 94  3 22 20 10 59.9980000  0  7  2 31 16 18 19 27 29
  21926140.725   -12749274.146 7  -9806809.692 9  21926145.014
  21557867.311    -8238121.014 7  -6362845.475 9  21557870.709
  23609950.295    -1899439.861 5  -1419752.994 9  23609956.787
  21095507.014     3898923.646 7   3037299.380 9  21095510.295
  20229112.186    -6477748.010 8  -5030881.979 9  20229114.881
  20422869.201   -15267871.851 8 -11836856.075 9  20422871.229
  23470244.357    13111035.770 5  10162051.754 9  23470252.436
 94  3 22 20 11 29.9980000  0  7  2 31 16 18 19 27 29
  21911203.771   -12827766.730 7  -9867972.674 9  21911208.084
  21561019.295    -8221559.627 7  -6349940.488 9  21561022.518
  23605149.084    -1924669.409 5  -1439412.426 9  23605154.299
  21107485.006     3961870.236 7   3086348.601 9  21107488.322
  20226484.459    -6491556.484 7  -5041641.823 9  20226487.166
  20411166.045   -15329371.963 7 -11884778.229 9  20411168.189
  23486943.256    13198781.388 5  10230424.700 9  23486951.217
 94  3 22 20 11 59.9980000  0  7  2 31 16 18 19 27 29
  21896321.811   -12905972.851 7  -9928912.432 9  21896326.240
  21564283.928    -8204403.207 7  -6336571.836 9  21564287.033
  23600450.584    -1949360.505 5  -1458652.234 9  23600456.912
  21119529.061     4025161.322 7   3135666.258 9  21119532.553
  20223901.826    -6505129.708 8  -5052218.348 9  20223904.475
  20399498.334   -15390684.407 7 -11932554.142 9  20399500.678
  23503670.029    13286683.648 5  10298919.725 9  23503678.025
 94  3 22 20 12 29.9980000  0  7  2 31 16 18 19 27 29
  21881491.834   -12983903.322 7  -9989637.406 9  21881496.182
  21567662.928    -8186645.428 7  -6322734.594 9  21567666.174
  23595855.982    -1973505.351 5  -1477466.428 9  23595861.971
  21131635.732     4088783.194 7   3185241.673 9  21131639.225
  20221362.896    -6518471.180 8  -5062614.296 9  20221365.428
  20387868.178   -15451801.626 7 -11980177.929 9  20387870.592
  23520424.756    13374733.471 5  10367529.743 9  23520433.139
 94  3 22 20 12 59.9980000  0  7  2 31 16 18 19 27 29
  21866713.264   -13061564.891 7 -10050152.840 9  21866717.471
  21571155.615    -8168291.511 7  -6308432.839 9  21571158.697
  23591364.131    -1997110.536 5  -1495860.107 9  23591369.732
  21143807.631     4152746.102 7   3235082.827 9  21143811.299
  20218866.850    -6531588.967 8  -5072835.943 9  20218869.287
  20376274.568   -15512726.604 7 -12027651.918 9  20376276.854
  23537207.209    13462921.492 5  10436247.405 9  23537215.756
 94  3 22 20 13 29.9980000  0  7  2 31 16 18 19 27 29
  21851980.061   -13138988.127 7 -10110482.566 9  21851984.443
  21574755.225    -8149375.736 7  -6293693.264 9  21574758.283
  23586964.959    -2020225.297 5  -1513871.624 9  23586971.486
  21156041.193     4217033.288 7   3285176.669 9  21156044.779
  20216408.373    -6544506.449 8  -5082901.506 9  20216410.998
  20364719.240   -15573450.642 7 -12074969.334 9  20364721.467
  23554011.350    13551232.779 5  10505061.147 9  23554019.533
 94  3 22 20 13 59.9980000  0  7  2 31 16 18 19 27 29
  21837291.975   -13216173.910 7 -10170627.259 9  21837296.264
  21578459.248    -8129910.616 7  -6278525.639 9  21578462.412
  23582657.818    -2042859.948 5  -1531509.042 9  23582664.510
  21168340.131     4281663.926 7   3335538.135 9  21168343.693
  20213990.779    -6557210.224 7  -5092800.543 9  20213993.627
  20353206.701   -15633949.615 7 -12122111.368 9  20353208.916
  23570840.787    13639668.054 5  10573971.490 9  23570848.549
 94  3 22 20 14 29.9980000  0  7  2 31 16 18 19 27 29
  21822647.365   -13293132.571 7 -10230594.980 9  21822651.455
  21582263.498    -8109921.152 7  -6262949.438 9  21582266.521
  23578441.217    -2065020.901 5  -1548777.361 9  23578446.900
  21180705.967     4346646.264 7   3386173.649 9  21180709.658
  20211613.193    -6569704.402 7  -5102536.256 9  20211615.994
  20341732.123   -15694248.691 7 -12169097.635 9  20341734.326
  23587690.920    13728216.562 5  10642970.071 9  23587699.162
 94  3 22 20 14 59.9980000  0  7  2 31 16 18 19 27 29
  21808046.428   -13369860.099 7 -10290382.589 9  21808050.646
  21586168.412    -8089400.049 7  -6246958.973 9  21586171.389
  23574312.967    -2086712.322 5  -1565679.807 9  23574318.756
  21193141.576     4411996.514 7   3437095.849 9  21193145.174
  20209278.326    -6581975.314 7  -5112098.003 9  20209281.162
  20330295.389   -15754349.522 7 -12215929.428 9  20330297.674
  23604563.147    13816881.201 5  10712059.144 9  23604572.209
 94  3 22 20 15 29.9980000  0  7  2 31 16 18 19 27 29
  21793493.998   -13446333.200 7 -10349971.949 9  21793498.311
  21590178.412    -8068325.995 7  -6230537.638 9  21590181.283
  23570277.357    -2107923.661 5  -1582208.122 9  23570282.982
  21205647.818     4477716.020 7   3488305.780 9  21205651.486
  20206988.178    -6594010.677 7  -5121476.194 9  20206990.885
  20318897.115   -15814248.113 7 -12262603.635 9  20318899.354
  23621460.529    13905670.427 5  10781245.285 9  23621468.104
 94  3 22 20 15 59.9980000  0  6  2 31 16 18 19 27
  21778994.709   -13522527.545 7 -10409344.099 9  21778998.939
  21594298.514    -8046674.541 7  -6213666.383 9  21594301.232
  23566339.076    -2128617.694 5  -1598333.410 9  23566344.795
  21218224.678     4543810.536 7   3539807.924 9  21218228.357
  20204744.920    -6605799.895 8  -5130662.595 9  20204747.369
  20307532.904   -15873966.453 7 -12309137.381 9  20307535.213
 94  3 22 20 16 29.9980000  0  6  2 31 16 18 19 27
  21764548.107   -13598442.680 7 -10468498.681 9  21764552.631
  21598530.186    -8024436.053 7  -6196337.709 9  21598533.256
  23562500.490    -2148786.996 5  -1614049.769 9  23562507.947
  21230873.654     4610277.194 7   3591600.051 9  21230877.205
  20202548.186    -6617344.428 8  -5139658.334 9  20202550.611
  20296200.998   -15933516.341 7 -12355539.863 9  20296203.271
 94  3 22 20 16 59.9980000  0  6  2 31 16 18 19 27
  21750158.701   -13674061.313 7 -10527422.222 9  21750162.979
  21602874.975    -8001603.307 7  -6178545.968 9  21602878.350
  23558761.170    -2168440.901 5  -1629364.548 9  23558766.443
  21243592.998     4677118.124 7   3643683.818 9  21243596.736
  20200394.654    -6628661.529 8  -5148476.853 9  20200397.021
  20284905.170   -15992877.443 8 -12401795.249 9  20284907.408
 94  3 22 20 17 29.9980000  0  6  2 31 16 18 19 27
  21735824.318   -13749386.661 7 -10586117.234 9  21735828.842
  21607329.514    -7978196.765 7  -6160307.116 9  21607332.701
  23555119.256    -2187580.574 5  -1644278.592 9  23555124.717
  21256382.451     4744328.017 7   3696055.080 9  21256386.025
  20198281.686    -6639765.611 8  -5157129.385 9  20198284.064
  20273645.850   -16052046.585 8 -12447901.056 9  20273648.064
 94  3 22 20 17 59.9980000  0  6  2 31 16 18 19 27
  21721541.639   -13824442.954 7 -10644602.585 9  21721546.197
  21611888.897    -7954238.312 7  -6141638.199 9  21611892.084
  23551574.842    -2206206.542 5  -1658792.366 9  23551581.736
  21269244.529     4811918.072 7   3748722.581 9  21269248.127
  20196209.865    -6650651.488 8  -5165611.887 9  20196212.350
  20262422.131   -16111025.966 8 -12493858.984 9  20262424.217
 94  3 22 20 18 29.9980000  0  6  2 31 16 18 19 27
  21707308.146   -13899241.278 7 -10702886.922 9  21707312.658
  21616549.725    -7929745.301 7  -6122552.749 9  21616552.725
  23548125.006    -2224334.575 5  -1672918.169 8  23548130.760
  21282178.053     4879884.729 7   3801683.531 9  21282181.861
  20194180.365    -6661316.436 8  -5173922.234 9  20194182.850
  20251237.256   -16169802.189 8 -12539658.623 9  20251239.365
 94  3 22 20 18 59.9980000  0  6  2 31 16 18 19 27
  21693122.436   -13973786.658 7 -10760974.163 9  21693126.713
  21621313.045    -7904714.156 7  -6103047.976 9  21621315.916
  23544769.334    -2241965.673 5  -1686656.727 8  23544775.615
  21295179.021     4948202.620 7   3854918.168 9  21295182.561
  20192196.389    -6671742.586 8  -5182046.510 9  20192198.979
  20240091.889   -16228372.619 8 -12585297.894 9  20240093.975
 94  3 22 20 19 29.9980000  0  6  2 31 16 18 19 27
  21678979.240   -14048109.383 7 -10818887.907 9  21678983.482
  21626176.561    -7879155.159 7  -6083131.875 9  21626179.537
  23541509.748    -2259096.547 5  -1700005.505 9  23541515.373
  21308241.631     5016848.175 7   3908408.132 9  21308245.334
  20190260.561    -6681914.496 8  -5189972.674 9  20190263.186
  20228980.748   -16286761.954 8 -12630796.059 9  20228982.682
 94  3 22 20 19 59.9980000  0  6  2 31 16 18 19 27
  21664881.592   -14122195.031 7 -10876616.912 9  21664885.881
  21631145.365    -7853042.689 7  -6062784.498 9  21631148.541
  23538346.545    -2275720.196 5  -1712959.056 9  23538351.982
  21321365.412     5085813.015 7   3962146.876 9  21321369.092
  20188377.584    -6691810.858 8  -5197684.121 9  20188380.279
  20217904.873   -16344966.115 8 -12676149.936 9  20217906.865
 94  3 22 20 20 29.9980000  0  6  2 31 16 18 19 27
  21650836.350   -14196002.099 7 -10934128.848 9  21650840.475
  21636226.959    -7826338.936 7  -6041976.377 9  21636229.854
  23535280.514    -2291834.975 5  -1725516.060 9  23535286.748
  21334548.568     5155091.604 7   4016130.103 9  21334552.365
  20186548.264    -6701423.745 8  -5205174.682 9  20186550.959
  20206867.787   -16402966.037 8 -12721344.673 9  20206869.662
 94  3 22 20 20 59.9980000  0  6  2 31 16 18 19 27
  21636844.779   -14269528.882 7 -10991422.378 9  21636848.869
  21641419.357    -7799052.536 7  -6020714.246 9  21641422.533
  23532309.420    -2307447.768 5  -1737681.904 9  23532315.900
  21347789.920     5224674.876 7   4070350.744 9  21347793.658
  20184769.951    -6710768.321 8  -5212456.174 9  20184772.623
  20195868.115   -16460769.963 8 -12766386.688 9  20195869.990
 94  3 22 20 21 29.9980000  0  6  2 31 16 18 19 27
  21622908.943   -14342763.352 7 -11048488.138 9  21622912.740
  21646721.670    -7771191.067 7  -5999004.003 9  21646724.705
  23529433.389    -2322558.428 5  -1749456.488 9  23529439.904
  21361094.811     5294594.046 7   4124833.123 9  21361098.561
  20183040.920    -6719854.435 8  -5219536.263 9  20183043.510
  20184909.764   -16518356.514 8 -12811259.307 9  20184911.721
 94  3 22 20 21 59.9980000  0  6  2 31 16 18 19 27
  21609031.295   -14415688.051 7 -11105312.517 9  21609035.408
  21652134.107    -7742748.686 7  -5976841.100 9  21652136.967
  23526653.248    -2337169.700 5  -1760841.970 9  23526660.154
  21374466.850     5364863.912 7   4179588.767 9  21374470.646
  20181360.053    -6728688.128 8  -5226419.669 9  20181362.584
  20173998.365   -16575695.018 8 -12855938.653 9  20174000.193
 94  3 22 20 22 29.9980000  0  6  2 31 16 18 19 27
  21595209.209   -14488324.176 7 -11161912.038 9  21595213.146
  21657649.857    -7713761.764 7  -5954253.877 9  21657652.787
  23523963.842    -2351303.071 5  -1771855.021 9  23523970.287
  21387903.701     5435471.910 7   4234607.899 9  21387907.568
  20179721.553    -6737298.112 8  -5233128.757 9  20179723.896
  20163133.334   -16632792.229 8 -12900429.974 9  20163135.268
 94  3 22 20 22 59.9980000  0  6  2 31 16 18 19 27
  21581435.092   -14560705.074 7 -11218312.677 9  21581439.170
  21663265.928    -7684249.735 7  -5931257.484 9  21663268.834
  23521366.631    -2364949.333 5  -1782488.538 9  23521372.467
  21401406.334     5506430.392 7   4289900.128 9  21401410.272
  20178125.498    -6745687.005 8  -5239665.567 9  20178127.748
  20152315.764   -16689637.447 8 -12944724.941 9  20152317.814
 94  3 22 20 23 29.9980000  0  6  2 31 16 18 19 27
  21567705.959   -14632851.575 7 -11274530.675 9  21567709.990
  21668983.076    -7654205.450 7  -5907846.346 9  21668986.229
  23518859.740    -2378123.843 5  -1792754.445 9  23518865.412
  21414973.826     5577726.573 7   4345455.501 9  21414977.693
  20176569.975    -6753861.813 8  -5246035.549 9  20176572.342
  20141545.857   -16746235.005 8 -12988826.922 9  20141547.756
 94  3 22 20 23 59.9980000  0  6  2 31 16 18 19 27
  21554020.592   -14704770.689 7 -11330571.489 9  21554024.682
  21674802.115    -7623627.241 7  -5884019.168 9  21674805.045
  23516443.975    -2390819.975 5  -1802647.587 9  23516450.021
  21428601.568     5649340.703 7   4401258.623 9  21428605.518
  20175055.764    -6761817.335 8  -5252234.670 9  20175058.189
  20130820.537   -16802596.346 8 -13032744.844 9  20130822.377
 94  3 22 20 24 29.9980000  0  6  2 31 16 18 19 27
  21540378.232   -14776460.119 7 -11386433.328 9  21540382.252
  21680722.803    -7592511.784 7  -5859773.356 9  21680725.674
  23514121.100    -2403025.937 5  -1812158.797 9  23514126.994
  21442290.475     5721276.271 7   4457312.218 9  21442294.295
  20173586.248    -6769540.255 8  -5258252.540 9  20173588.744
  20120137.740   -16858734.397 8 -13076488.771 9  20120139.557
 94  3 22 20 24 59.9980000  0  6  2 31 16 18 19 27
  21526778.115   -14847930.665 7 -11442124.612 9  21526782.170
  21686748.498    -7560848.711 7  -5835100.834 9  21686751.275
  23511893.045    -2414737.719 5  -1821284.874 9  23511899.916
  21456040.896     5793534.553 7   4513617.280 9  21456044.811
  20172162.881    -6777019.051 8  -5264080.178 9  20172165.564
  20109495.357   -16914661.617 8 -13120068.407 9  20109497.186
 94  3 22 20 25 29.9980000  0  6  2 31 16 18 19 27
  21513223.967   -14919157.874 7 -11497626.280 9  21513227.834
  21692876.967    -7528643.269 7  -5810005.691 9  21692879.838
  23509758.209    -2425957.602 5  -1830027.714 9  23509764.924
  21469848.670     5866095.585 7   4570158.252 9  21469852.479
  20170788.100    -6784243.561 8  -5269709.672 9  20170790.912
  20098889.248   -16970396.104 8 -13163497.863 9  20098891.205
 94  3 22 20 25 59.9980000  0  6  2 31 16 18 19 27
  21499720.295   -14990119.111 7 -11552920.701 9  21499724.396
  21699107.295    -7495901.413 7  -5784492.565 9  21699110.225
  23507719.701    -2436670.965 5  -1838375.856 9  23507725.924
  21483717.600     5938973.829 7   4626946.399 9  21483721.537
  20169464.146    -6791201.088 8  -5275131.124 9  20169466.971
  20088321.029   -17025932.879 8 -13206773.247 9  20088322.939
 94  3 22 20 26 29.9980000  0  6  2 31 16 18 19 27
  21486269.959   -15060799.488 7 -11607996.270 9  21486273.873
  21705439.725    -7462626.211 7  -5758563.848 9  21705442.725
  23505776.889    -2446881.293 5  -1846332.014 9  23505782.174
  21497647.811     6012179.865 7   4683989.968 9  21497651.900
  20168191.295    -6797890.915 8  -5280343.979 9  20168194.107
  20077792.350   -17081261.131 8 -13249886.150 9  20077794.225
 94  3 22 20 26 59.9980000  0  6  2 31 16 18 19 27
  21472872.881   -15131201.062 7 -11662854.582 9  21472876.854
  21711871.943    -7428823.093 7  -5732223.777 9  21711874.850
  23503930.412    -2456585.102 5  -1853893.478 9  23503936.096
  21511638.600     6085697.346 7   4741276.219 9  21511642.314
  20166966.600    -6804326.830 8  -5285358.983 9  20166969.377
  20067303.006   -17136382.893 8 -13292838.153 9  20067304.893
 94  3 22 20 27 29.9980000  0  6  2 31 16 18 19 27
  21459530.537   -15201316.016 7 -11717489.558 9  21459534.709
  21718401.592    -7394509.175 7  -5705485.677 9  21718404.674
  23502180.482    -2465775.321 5  -1861054.727 9  23502188.197
  21525685.936     6159518.367 7   4798799.006 9  21525689.732
  20165787.662    -6810521.581 8  -5290186.067 9  20165790.334
  20056854.826   -17191289.169 8 -13335622.251 9  20056856.818
 94  3 22 20 27 59.9980000  0  6  2 31 16 18 19 27
  21446241.803   -15271147.555 7 -11771903.690 9  21446245.916
  21725030.498    -7359674.885 7  -5678342.092 9  21725033.709
  23500531.912    -2474441.955 5  -1867807.992 9  23500538.334
  21539793.514     6233656.647 7   4856569.002 9  21539797.346
  20164653.162    -6816484.200 8  -5294832.270 9  20164655.857
  20046450.662   -17245962.436 7 -13378224.783 9  20046452.772
 94  3 22 20 28 29.9980000  0  6  2 31 16 18 19 27
  21433003.936   -15340714.239 7 -11826111.448 9  21433008.119
  21731757.311    -7324324.289 7  -5650796.204 9  21731760.334
  23498982.162    -2482588.546 5  -1874156.011 8  23498988.443
  21553959.178     6308095.184 7   4914572.970 9  21553963.021
  20163562.014    -6822218.092 8  -5299300.243 9  20163564.709
  20036091.295   -17300400.686 7 -13420644.178 9  20036093.334
 94  3 22 20 28 59.9980000  0  6  2 31 16 18 19 27
  21419814.482   -15410025.569 7 -11880120.222 9  21419818.549
  21738583.584    -7288452.565 7  -5622844.227 9  21738586.830
  23497529.154    -2490218.974 5  -1880101.864 8  23497535.213
  21568181.889     6382834.801 7   4972811.542 9  21568185.943
  20162516.068    -6827714.959 8  -5303583.522 9  20162518.717
  20025777.037   -17354602.368 7 -13462879.234 9  20025779.100
 94  3 22 20 29 29.9980000  0  6  2 31 16 18 19 27
  21406676.576   -15479066.585 7 -11933918.357 9  21406680.525
  21745509.545    -7252056.683 7  -5594483.830 9  21745512.557
  23496172.201    -2497351.529 5  -1885659.760 9  23496177.791
  21582463.537     6457886.622 7   5031293.390 9  21582467.557
  20161520.404    -6832946.178 8  -5307659.798 9  20161522.971
  20015511.748   -17408546.885 7 -13504913.903 9  20015513.963
 94  3 22 20 29 59.9980000  0  6  2 31 16 18 19 27
  21393587.850   -15547846.467 7 -11987513.018 9  21393591.822
  21752535.623    -7215134.069 7  -5565712.979 9  21752538.975
  23494902.639    -2504022.561 5  -1890857.993 9  23494908.006
  21596805.006     6533252.411 7   5090019.887 9  21596809.049
  20160577.279    -6837901.541 8  -5311521.124 9  20160579.857
  20005294.561   -17462239.052 7 -13546751.941 9  20005296.623
 94  3 22 20 30 29.9980000  0  6  2 31 16 18 19 27
  21380549.709   -15616363.113 7 -12040902.559 9  21380553.635
  21759658.740    -7177701.877 7  -5536545.061 9  21759661.822
  23493715.920    -2510260.252 5  -1895718.597 8  23493722.025
  21611203.451     6608916.214 7   5148978.593 9  21611207.658
  20159687.514    -6842578.328 8  -5315165.379 9  20159690.209
  19995124.529   -17515681.917 7 -13588395.715 9  19995126.615
 94  3 22 20 30 59.9980000  0  6  2 31 16 18 19 27
  21367564.021   -15684603.167 7 -12094076.567 9  21367567.982
  21766879.982    -7139753.819 7  -5506975.168 9  21766883.135
  23492610.256    -2516070.241 5  -1900245.925 9  23492616.338
  21625658.256     6684875.860 7   5208167.832 9  21625662.428
  20158849.795    -6846979.879 8  -5318595.161 9  20158852.502
  19985001.857   -17568878.183 7 -13629847.344 9  19985003.838
 94  3 22 20 31 29.9980000  0  6  2 31 16 18 19 27
  21354629.545   -15752573.142 7 -12147040.131 9  21354633.447
  21774199.662    -7101290.589 7  -5477003.839 9  21774202.873
  23491584.670    -2521460.014 5  -1904445.751 9  23491591.705
  21640166.021     6761114.223 7   5267574.253 9  21640170.381
  20158062.639    -6851116.082 8  -5321818.173 9  20158065.393
  19974924.498   -17621834.429 7 -13671111.932 9  19974926.596
 94  3 22 20 31 59.9980000  0  6  2 31 16 18 19 27
  21341742.975   -15820292.696 7 -12199808.564 9  21341746.912
  21781618.061    -7062307.064 7  -5446627.079 9  21781621.283
  23490640.514    -2526419.635 5  -1908310.458 9  23490645.447
  21654724.475     6837617.992 7   5327187.472 9  21654728.588
  20157320.732    -6855015.432 8  -5324856.624 9  20157323.533
  19964891.037   -17674561.115 7 -13712197.648 9  19964893.217
 94  3 22 20 32 29.9980000  0  6  2 31 16 18 19 27
  21328904.646   -15887759.971 7 -12252380.413 9  21328908.467
  21789139.373    -7022784.200 7  -5415830.060 9  21789142.455
  23489786.686    -2530911.219 5  -1911810.452 9  23489793.639
  21669331.061     6914374.761 7   5386997.845 9  21669335.408
  20156623.303    -6858681.429 8  -5327713.242 9  20156626.022
  19954902.272   -17727051.517 7 -13753099.251 9  19954904.463
 94  3 22 20 32 59.9980000  0  6  2 31 16 18 19 27
  21316112.139   -15954983.359 7 -12304762.230 9  21316115.912
  21796765.436    -6982706.197 7  -5384600.459 9  21796768.377
  23489025.186    -2534912.825 5  -1914928.627 9  23489030.283
  21683987.451     6991397.355 7   5447015.348 9  21683991.740
  20155972.795    -6862099.095 8  -5330376.357 9  20155975.572
  19944958.326   -17779306.832 7 -13793817.661 9  19944960.447
 94  3 22 20 33 29.9980000  0  7  2 31 16 18 19  7 27
  21303365.873   -16021966.357 7 -12356956.719 9  21303369.611
  21804495.318    -6942086.454 7  -5352948.731 9  21804498.213
  23488355.584    -2538434.212 5  -1917672.592 9  23488361.689
  21698697.037     7068693.500 7   5507246.006 9  21698701.256
  20155369.818    -6865268.993 8  -5332846.406 9  20155372.525
  23591512.287      -21106.96215
  19935060.818   -17831319.354 7 -13834346.879 9  19935062.963
 94  3 22 20 33 59.9980000  0  7  2 31 16 18 19  7 27
  21290667.662   -16088694.339 7 -12408952.500 9  21290671.541
  21812324.959    -6900941.166 7  -5320887.474 9  21812327.748
  23487777.373    -2541465.076 5  -1920034.287 2  23487783.432
  21713459.662     7146272.479 7   5567697.057 9  21713463.822
  20154814.021    -6868190.187 8  -5335122.661 9  20154816.705
  23567416.795     -147732.203 5
  19925210.928   -17883081.147 8 -13874680.732 9  19925213.096
 94  3 22 20 34 29.9980000  0  7  2 31 16 18 19  7 27
  21278022.045   -16155146.767 7 -12460733.567 9  21278025.947
  21820248.357    -6859300.632 7  -5288440.314 9  21820251.475
  23487292.334    -2544016.125 5
  21728279.279     7224148.903 7   5628379.885 9  21728283.568
  20154308.725    -6870844.464 8  -5337190.927 9  20154311.326
  23543331.193     -274299.219 5    -62452.85319  23543340.525
  19915409.748   -17934586.911 8 -13914815.080 9  19915411.846
 94  3 22 20 34 59.9980000  0  7  2 31 16 18 19  7 27
  21265431.326   -16221312.417 7 -12512291.166 9  21265435.264
  21828261.959    -6817190.757 7  -5255627.434 9  21828264.936
  23486895.037    -2546109.975 5
  21743155.811     7302327.892 7   5689298.483 9  21743160.111
  20153852.889    -6873239.887 8  -5339057.491 9  20153855.678
  23519258.811     -400799.239 5   -161024.019 9  23519267.428
  19905657.357   -17985836.514 8 -13954749.815 9  19905659.490
 94  3 22 20 35 29.9980000  0  7  2 31 16 18 19  7 27
  21252894.022   -16287196.003 7 -12563628.981 9  21252898.158
  21836362.373    -6774622.682 7  -5222457.538 9  21836365.350
  23486582.818    -2547749.942 5      -266.80519  23486589.592
  21758088.670     7380798.489 7   5750444.302 9  21758092.994
  20153444.021    -6875387.957 8  -5340731.312 9  20153446.834
  23495198.975     -527235.604 5   -259545.585 9  23495207.861
  19895953.912   -18036827.627 8 -13994483.126 9  19895955.951
 94  3 22 20 35 59.9980000  0  7  2 31 16 18 19  7 27
  21240409.647   -16352799.038 7 -12614748.180 9  21240413.607
  21844552.975    -6731581.704 7  -5188919.135 9  21844555.986
  23486361.537    -2548911.140 5     -1171.703 9  23486368.396
  21773077.162     7459561.463 7   5811817.948 9  21773081.768
  20153085.014    -6877274.783 8  -5342201.567 9  20153087.744
  23471151.357     -653606.404 5   -358016.069 9  23471160.080
  19886297.936   -18087570.774 8 -14034023.224 9  19886299.822
 94  3 22 20 36 29.9970000  0  7  2 31 16 18 19  7 27
  21227975.978   -16418139.258 7 -12665662.590 9  21227980.056
  21852835.165    -6688059.846 7  -5155006.020 9  21852838.036
  23486229.485    -2549603.725 5     -1711.421 9  23486235.720
  21788117.712     7538601.863 7   5873407.770 9  21788122.153
  20152775.462    -6878902.174 8  -5343469.665 9  20152778.192
  23447114.845     -779916.919 5   -456439.561 9  23447123.720
  19876686.220   -18138079.635 8 -14073380.756 9  19876688.130
 94  3 22 20 36 59.9970000  0  7  2 31 16 18 19  7 27
  21215586.595   -16483246.944 7 -12716395.806 9  21215590.509
  21861214.767    -6644024.121 7  -5120692.482 9  21861217.450
  23486189.009    -2549820.322 5     -1880.255 9  23486193.696
  21803210.243     7617911.781 7   5935207.601 9  21803214.849
  20152514.501    -6880272.278 8  -5344537.284 9  20152517.360
  23423088.915     -906173.289 5   -554820.881 9  23423097.216
  19867116.556   -18188369.091 8 -14112567.326 9  19867118.571
 94  3 22 20 37 29.9970000  0  7  2 31 16 18 19  7 27
  21203239.595   -16548129.745 7 -12766953.791 9  21203243.532
  21869695.540    -6599458.208 7  -5085965.815 9  21869698.306
  23486238.720    -2549557.891 5     -1675.799 9  23486246.001
  21818353.142     7697486.498 7   5997213.763 9  21818357.606
  20152305.712    -6881369.254 8  -5345392.073 9  20152308.665
  23399070.845    -1032388.613 5   -653170.193 9  23399079.509
  19857588.556   -18238437.590 8 -14151581.727 9  19857590.536
 94  3 22 20 37 59.9970000  0  7  2 31 16 18 19  7 27
  21190938.845   -16612770.515 7 -12817323.182 9  21190942.747
  21878274.915    -6554371.041 7  -5050832.983 9  21878277.657
  23486378.399    -2548826.300 5     -1105.794 9  23486383.239
  21833545.259     7777322.097 7   6059423.217 9  21833549.478
  20152149.720    -6882187.869 8  -5346029.963 9  20152152.696
  23375061.907    -1158550.467 5   -751477.844 9  23375070.560
  19848102.071   -18288290.019 8 -14190427.760 9  19848104.087
 94  3 22 20 38 29.9970000  0  7  2 31 16 18 19  7 27
  21178682.821   -16677175.533 7 -12867508.873 9  21178686.595
  21886951.353    -6508777.602 7  -5015305.654 9  21886954.376
  23486600.313    -2547659.555 5      -196.713 9  23486606.325
  21848782.946     7857396.231 7   6121818.538 9  21848787.470
  20152044.735    -6882740.344 8  -5346460.464 9  20152047.735
  23351064.462    -1284657.457 5   -849742.748 9  23351072.481
  19838659.064   -18337914.157 8 -14229095.906 9  19838661.079
 94  3 22 20 38 59.9970000  0  7  2 31 16 18 19  7 27
  21166474.306   -16741333.614 7 -12917502.147 9  21166477.962
  21895722.314    -6462685.468 7  -4979389.734 9  21895724.939
  23486905.446    -2546052.308 5      1055.632 9  23486912.208
  21864066.603     7937711.720 6   6184401.924 9  21864071.149
  20151992.228    -6883016.651 8  -5346675.776 9  20151995.204
  23327080.517    -1410693.266 5   -947952.191 9  23327088.970
  19829263.829   -18387286.784 8 -14267568.065 9  19829265.763
 94  3 22 20 39 29.9970000  0  7  2 31 16 18 19  7 27
  21154314.634   -16805231.882 7 -12967292.964 9  21154318.466
  21904581.696    -6416127.902 7  -4943111.134 9  21904584.802
  23487294.993    -2544008.838 5      2647.896 9  23487301.755
  21879394.751     8018262.270 7   6247168.464 9  21879399.333
  20151990.001    -6883028.384 8  -5346684.923 9  20151992.872
  23303109.446    -1536659.397 5  -1046107.315 9  23303118.263
  19819918.040   -18436399.242 8 -14305837.499 9  19819919.974
 94  3 22 20 39 59.9970000  0  7  2 31 16 18 19  7 27
  21142206.532   -16868859.424 7 -13016872.826 9  21142210.306
  21913529.509    -6369107.863 7  -4906472.165 9  21913532.474
  23487770.001    -2541511.117 5      4594.119 9  23487776.657
  21894768.235     8099051.663 6   6310121.128 9  21894772.712
  20152039.978    -6882766.975 8  -5346481.242 9  20152042.931
  23279156.462    -1662534.745 5  -1144191.708 9  23279165.032
  19810626.399   -18485227.813 8 -14343885.722 9  19810628.286
 94  3 22 20 40 29.9970000  0  7  2 31 16 18 19  7 27
  21130146.485   -16932234.854 7 -13066256.241 9  21130150.317
  21922563.860    -6321631.449 7  -4869477.575 9  21922566.696
  23488332.493    -2538556.120 5      6896.609 9  23488338.552
  21910186.282     8180073.863 6   6373255.188 9  21910190.771
  20152138.993    -6882247.154 8  -5346076.193 9  20152141.759
  23255216.345    -1788338.154 5  -1242220.049 9  23255226.239
  19801389.462   -18533767.068 8 -14381708.508 9  19801391.372
 94  3 22 20 40 59.9970000  0  7  2 31 16 18 19  7 27
  21118137.540   -16995343.997 7 -13115432.151 9  21118141.325
  21931684.735    -6273700.315 7  -4832128.664 9  21931687.665
  23488986.329    -2535119.448 5      9574.478 9  23488992.200
  21925652.938     8261349.351 6   6436586.611 9  21925657.860
  20152288.618    -6881460.253 8  -5345463.031 9  20152291.407
  23231291.704    -1914064.912 5  -1340188.670 9  23231300.755
  19792208.321   -18582013.463 8 -14419303.098 9  19792210.325
 94  3 22 20 41 29.9970000  0  7  2 31 16 18 19  7 27
  21106179.282   -17058183.504 7 -13164397.960 9  21106182.950
  21940892.243    -6225316.316 7  -4794426.874 9  21940895.126
  23489732.282    -2531204.797 5     12624.805 9  23489738.681
  21941167.149     8342878.274 6   6500115.520 9  21941172.060
  20152487.626    -6880413.587 8  -5344647.460 9  20152490.450
  23207378.438    -2039733.013 5  -1438111.602 9  23207387.407
  19783083.298   -18629966.792 8 -14456669.321 9  19783085.208
 94  3 22 20 41 59.9970000  0  7  2 31 16 18 19  7 27
  21094271.485   -17120759.063 7 -13213158.100 9  21094275.247
  21950186.274    -6176475.825 7  -4756369.370 9  21950189.333
  23490566.384    -2526819.799 5     16041.599 9  23490571.446
  21956730.063     8424660.471 6   6563841.780 9  21956734.763
  20152737.415    -6879101.411 8  -5343624.991 9  20152740.157
  23183475.282    -2165342.890 5  -1535989.174 9  23183483.173
  19774012.462   -18677634.250 8 -14493812.782 9  19774014.431
 94  3 22 20 42 29.9970000  0  7  2 31 16 18 19  7 27
  21082414.212   -17183070.721 7 -13261712.597 9  21082418.021
  21959567.712    -6127176.622 7  -4717954.427 9  21959570.677
  23491488.399    -2521976.888 5     19815.238 8  23491494.083
  21972343.767     8506712.089 6   6627777.978 9  21972348.396
  20153037.251    -6877526.169 8  -5342397.543 9  20153039.841
  23159584.681    -2290886.207 5  -1633814.886 9  23159592.712
  19764992.985   -18725032.610 8 -14530746.556 9  19764994.872
 94  3 22 20 42 59.9970000  0  7  2 31 16 18 19  7 27
  21070607.204   -17245115.441 7 -13310059.089 9  21070610.966
  21969038.735    -6077404.586 7  -4679171.046 9  21969041.665
  23492493.407    -2516691.547 5     23933.576 9  23492498.329
  21988008.923     8589031.674 6   6691922.977 9  21988013.880
  20153390.165    -6875672.810 8  -5340953.381 9  20153392.896
  23135710.548    -2416344.845 5  -1731574.644 9  23135718.532
  19756023.837   -18772165.118 8 -14567473.171 9  19756025.665
 94  3 22 20 43 29.9970000  0  7  2 31 16 18 19  7 27
  21058849.985   -17306901.098 7 -13358203.709 9  21058853.794
  21978603.314    -6027144.648 7  -4640007.481 9  21978606.185
  23493581.704    -2510972.692 5     28389.777 9  23493588.536
  22003724.337     8671612.694 6   6756271.701 9  22003729.212
  20153797.798    -6873529.619 8  -5339283.373 9  20153800.599
  23111855.618    -2541698.366 5  -1829252.477 9  23111863.896
  19747104.845   -18819033.438 8 -14603993.930 9  19747106.802
 94  3 22 20 43 59.9970000  0  7  2 31 16 18 19  7 27
  21047138.556   -17368445.952 7 -13406160.691 9  21047142.106
  21988258.204    -5976406.709 7  -4600471.438 9  21988261.521
  23494747.157    -2504849.456 5     33161.056 9  23494753.439
  22019483.923     8754432.793 6   6820806.710 9  22019488.868
  20154259.649    -6871102.432 8  -5337392.069 9  20154262.321
  23088025.407    -2666930.601 5  -1926835.827 9  23088034.095
  19738231.524   -18865663.538 7 -14640329.056 9  19738233.470
 94  3 22 20 44 29.9970000  0  7  2 31 16 18 19  7 27
  21035472.540   -17429749.755 7 -13453929.833 9  21035476.220
  21998006.009    -5925182.916 7  -4560556.824 9  21998009.185
  23495987.110    -2498335.204 5     38237.002 9  23495993.298
  22035287.204     8837481.532 6   6885519.881 9  22035292.208
  20154774.532    -6868395.980 8  -5335283.154 9  20154777.450
  23064219.931    -2792026.651 5  -2024313.062 9  23064228.478
  19729405.735   -18912042.524 7 -14676468.513 9  19729407.833
 94  3 22 20 44 59.9970000  0  7  2 31 16 18 19  7 27
  21023853.032   -17490810.888 7 -13501509.891 9  21023856.759
  22007844.345    -5873481.329 7  -4520269.895 9  22007847.485
  23497302.376    -2491423.928 5     43622.342 9  23497309.739
  22051131.017     8920736.167 6   6950393.488 9  22051135.927
  20155342.876    -6865409.818 8  -5332956.285 9  20155345.935
  23040441.517    -2916981.820 5  -2121680.518 9  23040449.899
  19720631.868   -18958150.194 7 -14712396.552 9  19720633.919
 94  3 22 20 45 29.9970000  0  7  2 31 16 18 19  7 27
  21012280.767   -17551624.217 7 -13548896.856 9  21012284.282
  22017770.946    -5821315.414 6  -4479621.159 9  22017774.298
  23498694.298    -2484106.580 5     49324.088 9  23498700.896
  22067013.978     9004202.088 6   7015431.739 9  22067019.005
  20155962.860    -6862149.405 7  -5330415.716 9  20155965.802
  23016690.267    -3041795.582 5  -2218937.820 9  23016698.380
  19711909.853   -19003983.591 7 -14748110.864 9  19711911.938
 94  3 22 20 45 59.9970000  0  7  2 31 16 18 19  7 27
  21000758.735   -17612172.936 7 -13596077.629 9  21000762.099
  22027785.126    -5768689.799 6  -4438614.211 9  22027788.583
  23500167.431    -2476368.457 5     55353.693 9  23500173.185
  22082938.157     9087884.164 6   7080638.399 9  22082943.478
  20156634.571    -6858620.766 7  -5327666.135 9  20156637.853
  22992965.657    -3166473.680 5  -2316089.375 9  22992973.911
  19703243.228   -19049527.278 7 -14783599.434 9  19703245.372
 94  3 22 20 46 29.9970000  0  7  2 31 16 18 19  7 27
  20989284.829   -17672467.319 7 -13643060.215 9  20989288.263
  22037885.540    -5715612.717 6  -4397255.473 9  22037889.067
  23501722.524    -2468197.146 5     61720.875 9  23501729.204
  22098902.157     9171774.734 6   7146007.540 9  22098907.396
  20157355.899    -6854830.488 7  -5324712.678 9  20157359.157
  22969258.579    -3291047.447 5  -2413159.673 9  22969266.669
  19694631.743   -19094781.093 7 -14818862.126 9  19694633.806
 94  3 22 20 46 59.9970000  0  7  2 31 16 18 19  7 27
  20977860.673   -17732500.438 7 -13689839.220 9  20977864.177
  22048070.454    -5662089.573 6  -4355549.158 9  22048073.372
  23503365.095    -2459565.791 5     68446.497 9  23503372.821
  22114907.610     9255882.370 6   7211545.827 9  22114912.544
  20158129.407    -6850764.259 7  -5321544.191 9  20158132.712
  22945572.196    -3415520.840 5  -2510151.734 9  22945579.970
  19686075.571   -19139744.240 7 -14853898.321 9  19686077.622
 94  3 22 20 47 29.9970000  0  7  2 31 16 18 19  7 27
  20966487.313   -17792268.534 7 -13736411.716 9  20966490.829
  22058340.126    -5608123.563 6  -4313497.763 9  22058343.466
  23505095.423    -2450471.159 5     75533.138 9  23505101.153
  22130951.821     9340197.399 6   7277245.705 9  22130956.849
  20158954.665    -6846428.793 7  -5318165.918 9  20158957.970
  22921903.415    -3539902.491 6  -2607072.311 9  22921911.399
  19677573.064   -19184425.174 7 -14888714.610 9  19677575.185
 94  3 22 20 47 59.9970000  0  7  2 31 16 18 19  7 27
  20955164.173   -17851772.527 7 -13782778.416 9  20955167.712
  22068694.985    -5553710.706 6  -4271098.161 9  22068698.032
  23506914.274    -2440912.916 5     82981.060 9  23506921.708
  22147034.071     9424710.617 6   7343100.018 9  22147039.192
  20159831.899    -6841818.512 7  -5314573.495 9  20159835.192
  22898252.392    -3664187.845 6  -2703917.837 9  22898259.743
  19669125.353   -19228817.748 7 -14923306.207 9  19669127.544
 94  3 22 20 48 29.9970000  0  7  2 31 16 18 19  7 27
  20943887.517   -17911030.392 7 -13828953.328 9  20943891.079
  22079129.876    -5498873.701 6  -4228368.064 9  22079133.028
  23508814.931    -2430926.775 5     90762.387 9  23508822.552
  22163154.188     9509422.016 6   7409108.749 9  22163159.731
  20160761.048    -6836936.129 7  -5310769.049 9  20160764.306
  22874621.618    -3788372.019 6  -2800684.509 9  22874629.614
  19660731.290   -19272928.347 7 -14957678.084 9  19660733.376
 94  3 22 20 48 59.9970000  0  7  2 31 16 18 19  7 27
  20932657.532   -17970044.974 7 -13874938.668 9  20932660.931
  22089642.110    -5443632.590 6  -4185323.080 9  22089645.603
  23510792.071    -2420534.575 5     98860.136 8  23510799.048
  22179312.048     9594329.044 6   7475269.920 9  22179317.673
  20161741.540    -6831782.941 7  -5306753.585 9  20161744.599
  22851013.118    -3912431.357 6  -2897353.895 9  22851021.314
  19652390.673   -19316758.976 7 -14991831.806 9  19652392.829
 94  3 22 20 49 29.9970000  0  7  2 31 16 18 19  7 27
  20921472.462   -18028822.624 7 -13920739.389 9  20921476.048
  22100230.821    -5387987.889 6  -4141963.620 9  22100234.442
  23512842.603    -2409759.363 5    107256.308 9  23512849.294
  22195506.478     9679428.306 6   7541580.898 9  22195511.564
  20162772.087    -6826367.980 7  -5302534.143 9  20162775.157
  22827427.938    -4036369.364 6  -2993928.727 9  22827436.204
  19644101.876   -19360317.068 7 -15025773.157 9  19644103.974
 94  3 22 20 49 59.9970000  0  7  2 31 16 18 19  7 27
  20910331.868   -18087365.947 7 -13966357.510 9  20910335.419
  22110896.938    -5331935.963 6  -4098286.834 9  22110900.478
  23514959.618    -2398631.563 5    115927.230 9  23514966.700
  22211741.040     9764745.151 6   7608061.408 9  22211746.091
  20163855.829    -6820672.781 7  -5298096.335 9  20163858.806
  22803867.399    -4160175.665 5  -3090400.907 9  22803875.489
  19635865.087   -19403601.434 7 -15059501.217 9  19635867.161
 94  3 22 20 50 29.9970000  0  7  2 31 16 18 19  7 27
  20899237.079   -18145670.795 7 -14011789.810 9  20899240.630
  22121640.603    -5275478.980 6  -4054294.404 9  22121644.095
  23517145.353    -2387151.533 5    124872.628 9  23517153.923
  22228017.228     9850272.840 6   7674706.212 9  22228022.149
  20164994.071    -6814690.862 7  -5293435.114 9  20164997.048
  22780333.813    -4283844.562 5  -3186766.006 9  22780341.798
  19627680.274   -19446612.066 7 -15093015.977 9  19627682.302
 94  3 22 20 50 59.9970000  0  6  2 31 18 19  7 27
  20888190.368   -18203718.891 7 -14057022.043 9  20888193.954
  22132465.720    -5218594.510 6  -4009968.870 9  22132468.954
  22244329.017     9935993.900 6   7741501.688 9  22244333.939
  20166189.235    -6808411.040 7  -5288541.760 9  20166192.188
  22756827.563    -4407373.967 6  -3283022.406 9  22756835.712
  19619548.274   -19489346.391 7 -15126315.432 9  19619550.243
 94  3 22 20 51 29.9970000  0  6  2 31 18 19  7 27
  20877194.095   -18261505.434 7 -14102050.474 9  20877197.564
  22143374.454    -5161270.542 7  -3965300.883 9  22143377.935
  22260677.103    10021898.517 6   7808440.201 9  22260682.610
  20167438.345    -6801846.140 7  -5283426.266 9  20167441.485
  22733342.149    -4530789.506 6  -3379190.093 9  22733349.993
  19611467.571   -19531811.128 7 -15159404.824 9  19611469.528
 94  3 22 20 51 59.9970000  0  6  2 31 18 19  7 27
  20866250.493   -18319015.886 7 -14146863.768 9  20866253.997
  22154366.985    -5103502.927 6  -3920287.185 9  22154369.997
  22277059.915    10107992.882 6   7875526.573 9  22277065.130
  20168744.657    -6794982.066 7  -5278077.640 9  20168747.669
  22709882.079    -4654070.581 6  -3475252.962 9  22709889.548
  19603442.548   -19573982.899 7 -15192265.934 9  19603444.364
 94  3 22 20 52 29.9970000  0  6  2 31 18 19  7 27
  20855358.688   -18376250.867 7 -14191462.410 9  20855362.380
  22165444.392    -5045291.636 6  -3874927.762 9  22165447.474
  22293476.978    10194263.633 6   7942750.374 9  22293482.462
  20170106.040    -6787828.990 7  -5272503.822 9  20170109.075
  22686447.899    -4777218.389 6  -3571212.020 9  22686455.708
  19595475.610   -19615849.931 7 -15224889.580 9  19595477.521
 94  3 22 20 52 59.9970000  0  6  2 31 18 19  7 27
  20844517.978   -18433218.034 7 -14235852.365 9  20844521.692
  22176606.774    -4986632.948 6  -3829219.723 9  22176609.880
  22309929.423    10280723.568 6   8010121.604 9  22309934.626
  20171519.001    -6780403.594 7  -5266717.808 9  20171521.907
  22663037.524    -4900236.561 6  -3667070.063 9  22663044.794
  19587568.493   -19657401.953 7 -15257267.768 9  19587570.403
 94  3 22 20 53 29.9970000  0  6  2 31 18 19  7 27
  20833725.774   -18489932.296 7 -14280045.252 9  20833729.396
  22187852.587    -4927535.881 6  -3783170.093 9  22187855.517
  22326421.735    10367389.143 6   8077653.069 9  22326427.149
  20172983.610    -6772707.598 8  -5260720.936 9  20172986.505
  22639653.907    -5023117.341 6  -3762821.055 9  22639661.294
  19579723.946   -19698625.049 7 -15289389.643 9  19579726.067
 94  3 22 20 53 59.9970000  0  6  2 31 18 19  7 27
  20822976.399   -18546419.553 7 -14324061.249 9  20822980.044
  22199175.978    -4868029.988 6  -3736801.894 9  22199178.978
  22342951.220    10454250.773 6   8145337.297 9  22342956.423
  20174499.024    -6764744.692 8  -5254516.081 9  20174501.603
  22616299.376    -5145848.885 6  -3858455.760 9  22616306.810
  19571941.837   -19739519.885 7 -15321255.732 9  19571943.923
 94  3 22 20 54 29.9970000  0  6  2 31 18 19  7 27
  20812271.384   -18602675.465 7 -14367896.977 9  20812275.040
  22210578.329    -4808113.173 6  -3690113.502 9  22210581.341
  22359516.782    10541304.151 6   8213170.938 9  22359522.419
  20176066.353    -6756508.160 8  -5248098.011 9  20176068.813
  22592974.142    -5268422.156 6  -3953967.155 9  22592981.435
  19564222.907   -19780082.502 7 -15352862.948 9  19564224.935
 94  3 22 20 54 59.9970000  0  6  2 31 18 19  7 27
  20801609.470   -18658705.189 7 -14411556.453 9  20801612.833
  22222056.751    -4747792.555 6  -3643110.446 9  22222059.704
  22376117.524    10628540.400 6   8281147.070 9  22376123.032
  20177686.376    -6747994.890 8  -5241464.296 9  20177689.071
  22569678.509    -5390839.178 6  -4049356.802 9  22569685.591
  19556565.665   -19820323.152 7 -15384219.278 9  19556567.575
 94  3 22 20 55 29.9970000  0  6  2 31 18 19  7 27
  20790989.782   -18714512.050 7 -14455042.264 9  20790993.169
  22233609.595    -4687083.880 6  -3595805.023 9  22233612.196
  22392749.915    10715944.908 6   8349254.323 9  22392755.634
  20179362.806    -6739184.780 8  -5234599.278 9  20179365.384
  22546412.337    -5513103.985 6  -4144627.862 9  22546419.970
  19548964.712   -19860266.519 8 -15415343.956 9  19548966.481
 94  3 22 20 55 59.9970000  0  6  2 31 18 19  7 27
  20780414.720   -18770083.215 7 -14498344.428 9  20780418.153
  22245237.079    -4625977.311 6  -3548189.542 9  22245240.021
  22409414.173    10803515.617 6   8417491.061 9  22409419.845
  20181098.360    -6730065.802 8  -5227493.586 9  20181101.056
  22523175.954    -5635211.328 6  -4239776.229 9  22523183.599
  19541418.142   -19899922.912 7 -15446245.022 9  19541419.958
 94  3 22 20 56 29.9970000  0  6  2 31 18 19  7 27
  20769887.024   -18825405.714 7 -14541452.817 9  20769890.329
  22256945.337    -4564452.675 6  -3500248.303 9  22256948.114
  22426110.884    10891255.934 6   8485859.982 9  22426116.661
  20182892.860    -6720634.024 8  -5220144.149 9  20182895.474
  22499970.212    -5757156.974 6  -4334798.611 9  22499977.728
  19533926.110   -19939294.060 7 -15476923.822 9  19533927.915
 94  3 22 20 56 59.9970000  0  6  2 31 18 19  7 27
  20759405.790   -18880486.773 7 -14584373.076 9  20759408.989
  22268731.517    -4502515.636 6  -3451985.719 9  22268734.446
  22442841.564    10979175.583 6   8554368.640 9  22442848.009
  20184745.712    -6710898.362 8  -5212557.930 9  20184748.243
  22476796.540    -5878931.705 6  -4429687.818 9  22476804.009
  19526486.165   -19978391.808 7 -15507389.582 9  19526488.087
 94  3 22 20 57 29.9970000  0  6  2 31 18 19  7 27
  20748970.634   -18935322.128 7 -14627101.870 9  20748973.868
  22280594.759    -4440173.500 6  -3403407.471 9  22280598.028
  22459605.837    11067274.795 6   8623017.198 9  22459612.755
  20186654.962    -6700864.534 8  -5204739.367 9  20186657.575
  22453658.634    -6000520.884 6  -4524432.456 9  22453666.161
  19519097.946   -20017214.752 7 -15537641.205 9  19519100.067
 94  3 22 20 57 59.9970000  0  6  2 31 18 19  7 27
  20738584.360   -18989902.538 7 -14669632.017 9  20738587.630
  22292533.337    -4377433.753 6  -3354519.393 9  22292536.149
  22476406.353    11155559.499 6   8691810.307 9  22476413.021
  20188617.681    -6690551.798 8  -5196703.475 9  20188620.247
  22430557.024    -6121921.852 6  -4619030.436 9  22430563.989
  19511767.532   -20055737.662 7 -15567659.038 9  19511769.595
 94  3 22 20 58 29.9970000  0  6  2 31 18 19  7 27
  20728247.884   -19044221.194 7 -14711958.196 9  20728251.036
  22304544.946    -4314313.853 6  -3305335.099 9  22304547.864
  22493242.274    11244032.647 6   8760750.234 9  22493248.778
  20190632.587    -6679963.761 8  -5188453.060 9  20190635.282
  22407490.173    -6243139.092 6  -4713485.271 9  22407496.923
  19504497.142   -20093943.386 7 -15597429.709 9  19504499.134
 94  3 22 20 58 59.9970000  0  6  2 31 18 19  7 27
  20717960.079   -19098283.262 8 -14754084.435 9  20717963.126
  22316627.212    -4250820.622 6  -3255859.898 9  22316630.306
  22510115.001    11332697.071 6   8829839.212 9  22510121.353
  20192702.618    -6669084.257 8  -5179975.530 9  20192705.396
  22384455.806    -6364187.411 6  -4807808.468 9  22384462.700
  19497290.837   -20131813.413 7 -15626938.804 9  19497292.724
 94  3 22 20 59 29.9970000  0  6  2 31 18 19  7 27
  20707724.079   -19152074.326 7 -14795999.501 9  20707727.278
  22328782.149    -4186947.113 6  -3206088.385 9  22328784.856
  22527023.142    11421548.122 6   8899073.614 9  22527029.692
  20194832.345    -6657892.525 8  -5171254.709 9  20194835.181
  22361450.056    -6485083.926 6  -4902013.380 9  22361456.759
  19490151.329   -20169332.819 8 -15656174.696 9  19490152.970
 94  3 22 20 59 59.9970000  0  6  2 31 18 19  7 27
  20697541.040   -19205585.527 8 -14837696.490 9  20697544.169
  22341010.384    -4122687.560 6  -3156016.059 9  22341013.442
  22543964.501    11510576.214 6   8968445.969 9  22543970.958
  20197022.267    -6646385.869 8  -5162288.493 9  20197024.974
  22338472.540    -6605829.821 6  -4996100.934 9  22338479.575
  19483079.181   -20206497.747 8 -15685134.373 9  19483080.915
 94  3 22 21  0 29.9970000  0  6  2 31 18 19  7 27
  20687410.165   -19258825.282 8 -14879181.968 9  20687413.271
  22353314.118    -4058029.301 6  -3105633.048 9  22353317.153
  22560935.649    11599759.093 6   9037938.928 9  22560942.481
  20199273.657    -6634554.254 8  -5153069.070 9  20199276.388
  22315527.704    -6726400.916 6  -5090052.290 9  22315534.669
  19476070.813   -20243325.025 8 -15713830.944 9  19476072.524
 94  3 22 21  0 59.9970000  0  6  2 31 18 19  7 27
  20677329.462   -19311799.627 8 -14920460.633 9  20677332.403
  22365694.892    -3992970.070 6  -3054937.597 9  22365697.774
  22577932.790    11689075.954 6   9107536.300 9  22577939.587
  20201584.837    -6622408.410 8  -5143604.789 9  20201587.696
  22292620.571    -6846780.398 6  -5183854.327 9  22292627.380
  19469124.017   -20279831.852 7 -15742277.813 9  19469125.821
 94  3 22 21  1 29.9970000  0  6  2 31 18 19  7 27
  20667300.399   -19364501.491 8 -14961526.972 9  20667303.341
  22378150.142    -3927516.797 6  -3003935.108 9  22378153.364
  22594951.603    11778510.336 6   9177225.232 9  22594957.989
  20203951.712    -6609970.661 8  -5133913.050 9  20203954.560
  22269753.829    -6966943.964 6  -5277488.106 9  22269760.638
  19462234.665   -20316035.004 7 -15770488.055 9  19462236.564
 94  3 22 21  1 59.9970000  0  6  2 31 18 19  7 27
  20657318.743   -19416954.267 8 -15002399.223 9  20657321.778
  22390679.712    -3861672.889 6  -2952628.233 9  22390683.017
  22611990.931    11868054.979 6   9247000.100 9  22611997.341
  20206370.681    -6597257.851 8  -5124006.985 9  20206373.564
  22246932.540    -7086873.448 6  -5370939.488 9  22246939.302
  19455402.743   -20351937.152 7 -15798463.743 9  19455404.724
 94  3 22 21  2 29.9970000  0  6  2 31 18 19  7 27
  20647379.829   -19469184.214 8 -15043097.839 9  20647382.888
  22403281.696    -3795447.822 6  -2901024.345 9  22403284.872
  22629053.478    11957716.209 6   9316865.799 9  22629059.665
  20208841.735    -6584272.550 8  -5113888.583 9  20208844.642
  22224152.110    -7206586.117 6  -5464221.919 9  22224159.169
  19448627.368   -20387540.865 7 -15826206.885 9  19448629.396
 94  3 22 21  2 59.9970000  0  6  2 31 18 19  7 27
  20637480.493   -19521205.345 8 -15083633.737 9  20637483.552
  22415952.392    -3728863.964 6  -2849140.888 9  22415955.310
  22646139.001    12047500.623 6   9386827.498 9  22646144.825
  20211362.657    -6571024.124 8  -5103565.146 9  20211365.669
  22201407.337    -7326106.206 6  -5557354.279 9  22201414.099
  19441912.251   -20422829.196 7 -15853704.279 9  19441914.290
 94  3 22 21  3 29.9970000  0  6  2 31 18 19  7 27
  20627618.720   -19573028.423 8 -15124015.310 9  20627621.743
  22428691.642    -3661920.959 6  -2796977.585 9  22428695.368
  22663250.321    12137422.835 6   9456896.553 9  22663257.497
  20213935.056    -6557506.152 8  -5093031.678 9  20213938.138
  22178698.228    -7445442.383 6  -5650343.332 9  22178704.755
  19435259.548   -20457790.268 8 -15880946.664 9  19435261.517
 94  3 22 21  3 59.9970000  0  6  2 31 18 19  7 27
  20617791.970   -19624667.657 8 -15164253.633 9  20617795.017
  22441494.759    -3594639.693 6  -2744550.693 9  22441497.981
  22680388.673    12227484.348 6   9527074.148 9  22680395.720
  20216558.118    -6543722.204 8  -5082290.957 9  20216561.118
  22156021.376    -7564608.835 6  -5743200.134 9  22156028.149
  19428669.220   -20492422.300 8 -15907932.652 9  19428671.071
 94  3 22 21  4 29.9970000  0  6  2 31 18 19  7 27
  20608004.064   -19676105.054 8 -15204334.677 9  20608007.087
  22454359.634    -3527033.560 6  -2691870.657 9  22454362.763
  22697553.767    12317686.801 6   9597361.576 9  22697560.708
  20219234.978    -6529655.448 8  -5071329.863 9  20219237.966
  22133378.376    -7683599.493 6  -5835919.944 9  22133384.856
  19422143.298   -20526716.430 7 -15934655.345 9  19422145.278
 94  3 22 21  4 59.9970000  0  6  2 31 18 19  7 27
  20598258.704   -19727316.220 8 -15244239.438 9  20598261.774
  22467286.040    -3459105.798 6  -2638940.001 9  22467289.263
  22714745.462    12408028.981 6   9667757.864 9  22714752.001
  20221967.649    -6515296.046 8  -5060140.733 9  20221970.567
  22110773.743    -7802386.865 6  -5928481.345 9  22110780.106
  19415684.188   -20560658.532 7 -15961103.724 9  19415686.052
 94  3 22 21  5 29.9970000  0  6  2 31 18 19  7 27
  20588559.438   -19778287.005 8 -15283956.890 9  20588562.614
  22480273.134    -3390855.446 6  -2585757.970 9  22480276.392
  22731961.274    12498497.499 5   9738252.595 9  22731968.368
  20224756.954    -6500636.931 7  -5048718.061 9  20224760.142
  22088208.470    -7920965.449 6  -6020880.054 9  22088214.927
  19409289.259   -20594265.024 7 -15987290.587 9  19409291.075
 94  3 22 21  5 59.9970000  0  6  2 31 18 19  7 27
  20578909.548   -19828996.361 8 -15323470.632 9  20578912.642
  22493323.415    -3322277.316 6  -2532320.535 9  22493326.978
  22749199.173    12589084.205 5   9808839.415 9  22749206.700
  20227606.790    -6485662.080 7  -5037049.358 9  20227609.931
  22065685.962    -8039323.786 6  -6113107.127 9  22065692.314
  19402959.860   -20627526.994 7 -16013208.995 9  19402961.782
 94  3 22 21  6 29.9970000  0  6  2 31 18 19  7 27
  20569310.228   -19879440.755 8 -15362777.908 9  20569313.286
  22506439.181    -3253353.129 6  -2478613.442 9  22506442.931
  22766458.876    12679783.041 5   9879513.616 9  22766465.958
  20230518.540    -6470360.133 7  -5025125.781 9  20230521.728
  22043205.220    -8157459.291 6  -6205160.569 9  22043211.642
  19396695.392   -20660445.453 7 -16038859.729 9  19396697.384
 94  3 22 21  6 59.9970000  0  6  2 31 18 19  7 27
  20559762.782   -19929612.235 7 -15401872.523 9  20559766.052
  22519624.462    -3184063.294 6  -2424621.429 9  22519628.130
  22783741.571    12770600.065 6   9950279.895 9  22783749.099
  20233491.892    -6454734.225 7  -5012949.765 9  20233495.103
  22020767.634    -8275366.893 6  -6297036.420 9  22020774.185
  19390495.540   -20693026.142 7 -16064247.263 9  19390497.579
 94  3 22 21  7 29.9970000  0  6  2 31 18 19  7 27
  20550264.532   -19979526.125 8 -15440766.419 9  20550267.685
  22532882.337    -3114393.220 6  -2370333.125 9  22532886.392
  22801044.876    12861532.337 5  10021135.983 9  22801052.380
  20236526.071    -6438789.326 7  -5000525.184 9  20236529.282
  21998371.501    -8393060.911 6  -6388745.845 9  21998377.853
  19384356.946   -20725284.776 7 -16089383.848 9  19384359.056
 94  3 22 21  7 59.9970000  0  6  2 31 18 19  7 27
  20540811.563   -20029201.721 8 -15479474.632 9  20540814.798
  22546211.368    -3044349.570 6  -2315753.713 9  22546215.013
  22818373.157    12952588.184 5  10092088.353 9  22818381.024
  20239617.626    -6422543.785 7  -4987866.339 9  20239620.966
  21976013.306    -8510553.006 6  -6480297.925 9  21976019.552
  19378278.813   -20757226.466 7 -16114273.467 9  19378280.864
 94  3 22 21  8 29.9970000  0  6  2 31 18 19  7 27
  20531402.618   -20078646.459 7 -15518002.957 9  20531405.724
  22559611.321    -2973930.903 6  -2260882.079 9  22559615.306
  22835726.517    13043780.147 5  10163146.802 9  22835733.681
  20242765.782    -6406000.264 7  -4974975.303 9  20242769.005
  21953694.423    -8627838.234 6  -6571688.811 9  21953700.786
  19372262.056   -20788844.708 7 -16138911.044 9  19372263.989
 94  3 22 21  8 59.9970000  0  6  2 31 18 19  7 27
  20522035.829   -20127867.982 7 -15556357.351 9  20522039.040
  22573079.235    -2903156.629 6  -2205733.358 9  22573082.821
  22853102.524    13135095.426 5  10234301.341 9  22853109.923
  20245968.876    -6389166.715 7  -4961858.270 9  20245972.134
  21931415.595    -8744915.044 6  -6662917.313 9  21931421.349
  19366307.923   -20820133.281 7 -16163291.734 9  19366309.903
 94  3 22 21  9 29.9970000  0  6  2 31 18 19  7 27
  20512708.595   -20176882.602 7 -15594550.527 9  20512711.806
  22586610.384    -2832047.661 6  -2150323.825 9  22586613.724
  22870499.610    13226515.498 5  10305537.527 9  22870507.536
  20249226.392    -6372049.378 7  -4948520.099 9  20249229.544
  21909174.673    -8861788.321 6  -6753987.192 9  21909180.075
  19360418.603   -20851082.032 7 -16187407.633 9  19360420.536
 94  3 22 21  9 59.9970000  0  6  2 31 18 19  7 27
  20503420.759   -20225691.222 8 -15632583.180 9  20503423.970
  22600199.407    -2760640.114 6  -2094681.641 9  22600202.899
  22887912.884    13318020.459 5  10376839.862 9  22887920.177
  20252537.282    -6354651.054 7  -4934962.978 9  20252540.353
  21886974.228    -8978450.630 6  -6844892.698 9  21886979.747
  19354593.806   -20881690.189 7 -16211258.136 9  19354595.716
 94  3 22 21 10 29.9970000  0  6  2 31 18 19  7 27
  20494175.688   -20274273.289 7 -15670439.302 9  20494178.853
  22613844.837    -2688929.482 6  -2038803.299 9  22613849.220
  22905339.993    13409601.224 5  10448201.235 9  22905347.591
  20255907.259    -6336942.121 7  -4921163.827 9  20255910.341
  21864821.782    -9094868.309 6  -6935607.584 9  21864827.337
  19348838.962   -20911932.565 7 -16234823.610 9  19348840.931
 94  3 22 21 10 59.9970000  0  6  2 31 18 19  7 27
  20484975.165   -20322621.796 8 -15708113.426 9  20484978.399
  22627547.814    -2616923.358 6  -1982694.700 9  22627551.880
  22922779.993    13501248.808 5  10519614.708 9  22922788.282
  20259335.040    -6318929.035 7  -4907127.674 9  20259338.204
  21842713.376    -9211043.411 6  -7026133.443 9  21842719.036
  19343154.001   -20941807.479 7 -16258102.752 9  19343155.958
 94  3 22 21 11 29.9970000  0  6  2 31 18 19  7 27
  20475820.743   -20370730.647 8 -15745600.809 9  20475823.989
  22641305.540    -2544626.764 6  -1926359.754 9  22641309.419
  22940235.829    13592975.782 5  10591089.998 9  22940243.767
  20262820.642    -6300612.908 7  -4892855.387 9  20262823.606
  21820651.532    -9326977.713 6  -7116471.677 9  21820656.454
  19337537.454   -20971322.442 7 -16281101.411 9  19337539.540
 94  3 22 21 11 59.9970000  0  6  2 31 18 19  7 27
  20466711.954   -20418597.139 8 -15782899.339 9  20466715.188
  22655120.759    -2472027.723 6  -1869789.129 9  22655124.274
  22957708.313    13684794.089 5  10662636.490 9  22957716.661
  20266364.259    -6281990.230 7  -4878344.229 9  20266367.353
  21798637.274    -9442663.586 6  -7206616.333 9  21798642.665
  19331986.642   -21000491.507 7 -16303830.537 9  19331988.810
 94  3 22 21 12 29.9970000  0  6  2 31 18 19  7 27
  20457648.985   -20466222.705 8 -15820010.133 9  20457652.114
  22668995.806    -2399117.784 6  -1812976.252 9  22668999.392
  22975198.321    13776703.830 5  10734254.208 9  22975206.892
  20269965.079    -6263068.803 7  -4863600.272 9  20269967.985
  21776667.915    -9558112.343 6  -7296576.233 9  21776673.071
  19326500.298   -21029323.351 7 -16326296.896 9  19326502.349
 94  3 22 21 12 59.9970000  0  6  2 31 18 19  7 27
  20448631.649   -20513608.310 7 -15856933.942 9  20448634.790
  22682931.267    -2325886.019 6  -1755912.600 9  22682934.853
  22992710.470    13868726.547 5  10805959.966 9  22992718.642
  20273621.688    -6243853.588 7  -4848627.390 9  20273624.630
  21754743.603    -9673326.327 6  -7386353.189 9  21754748.513
  19321076.360   -21057825.404 7 -16348506.278 9  19321078.458
 94  3 22 21 13 29.9970000  0  6  2 31 18 19  7 27
  20439659.688   -20560758.014 8 -15893673.939 9  20439662.864
  22696928.915    -2252325.978 6  -1698593.165 9  22696932.360
  23010243.431    13960860.455 5  10877752.366 9  23010251.333
  20277337.478    -6224326.893 7  -4833411.801 9  20277340.255
  21732866.165    -9788291.722 6  -7475936.449 9  21732871.157
  19315713.978   -21086004.507 7 -16370464.011 9  19315716.052
 94  3 22 21 13 59.9970000  0  6  2 31 18 19  7 27
  20430728.876   -20607687.157 7 -15930242.061 9  20430732.028
  22710988.673    -2178445.615 6  -1641024.114 9  22710992.071
  23027791.454    14053074.423 5  10949607.133 9  23027798.981
  20281111.415    -6204494.142 7  -4817957.720 9  20281114.298
  21711033.438    -9903023.864 6  -7565337.947 9  21711038.431
  19310411.712   -21113868.918 7 -16392176.520 9  19310413.810
 94  3 22 21 14 29.9970000  0  6  2 31 18 19  7 27
  20421842.079   -20654386.858 7 -15966631.398 9  20421845.278
  22725107.462    -2104251.065 6  -1583210.246 9  22725110.931
  23045352.751    14145368.168 5  11021524.059 9  23045361.239
  20284947.368    -6184336.158 8  -4802250.216 9  20284950.146
  21689246.501   -10017510.824 6  -7654548.402 9  21689251.657
  19305175.556   -21141383.844 7 -16413616.712 9  19305177.806
 94  3 22 21 14 59.9970000  0  6  2 31 18 19  7 27
  20412997.642   -20700866.146 8 -16002848.993 9  20413000.618
  22739285.024    -2029743.663 6  -1525152.602 9  22739289.032
  23062930.587    14237737.975 5  11093500.261 9  23062938.864
  20288844.649    -6163858.176 8  -4786293.367 9  20288847.450
  21667508.681   -10131746.600 6  -7743563.131 9  21667513.638
  19300007.993   -21168540.715 7 -16434777.900 9  19300010.079
 94  3 22 21 15 29.9970000  0  6  2 31 18 19  7 27
  20404195.290   -20747122.001 8 -16038892.473 9  20404198.161
  22753521.603    -1954932.283 6  -1466858.098 9  22753525.692
  23080521.313    14330173.536 5  11165527.692 9  23080529.837
  20292802.071    -6143059.820 7  -4770086.869 9  20292804.849
  21645818.782   -10245726.397 6  -7832378.402 9  21645823.681
  19294910.087   -21195329.994 7 -16455652.655 9  19294912.173
 94  3 22 21 15 59.9970000  0  6  2 31 18 19  7 27
  20395437.337   -20793145.428 8 -16074754.844 9  20395440.278
  22767815.970    -1879813.113 6  -1408323.747 9  22767820.282
  23098127.642    14422692.657 5  11237620.248 9  23098134.853
  20296821.587    -6121938.654 8  -4753628.827 9  20296824.282
  21624180.548   -10359434.447 6  -7920981.919 9  21624185.634
  19289887.056   -21221725.961 7 -16476220.936 9  19289889.118
 94  3 22 21 16 29.9970000  0  6  2 31 18 19  7 27
  20386723.274   -20838938.538 8 -16110437.749 9  20386726.333
  22782169.985    -1804384.311 6  -1349548.149 9  22782174.321
  23115753.220    14515314.376 5  11309792.715 9  23115761.415
  20300901.306    -6100499.575 8  -4736923.063 9  20300903.966
  21602597.173   -10472856.229 6  -8009362.372 9  21602602.294
  19284938.665   -21247729.584 7 -16496483.494 9  19284940.751
 94  3 22 21 16 59.9970000  0  6  2 31 18 19  7 27
  20378053.532   -20884499.940 8 -16145940.102 9  20378056.415
  22796581.970    -1728650.551 6  -1290534.916 9  22796585.802
  23133399.454    14608040.794 5  11382046.815 9  23133407.450
  20305037.696    -6078761.625 8  -4719984.416 9  20305040.509
  21581066.337   -10585998.113 6  -8097524.730 9  21581071.552
  19280060.946   -21273361.484 7 -16516456.394 9  19280062.927
 94  3 22 21 17 29.9970000  0  6  2 31 18 19  7 27
  20369429.142   -20929819.994 8 -16181254.387 9  20369432.165
  22811049.915    -1652618.857 6  -1231289.523 9  22811054.075
  23151063.313    14700866.834 5  11454378.514 9  23151071.509
  20309233.017    -6056716.183 8  -4702806.168 9  20309235.794
  21559589.938   -10698859.089 6  -8185468.205 9  21559594.755
  19275254.845   -21298618.167 7 -16536136.918 9  19275256.767
 94  3 22 21 17 59.9970000  0  6  2 31 18 19  7 27
  20360852.314   -20974890.770 8 -16216374.433 9  20360855.372
  22825577.118    -1576280.217 6  -1171804.959 9  22825580.540
  23168745.642    14793790.128 5  11526785.995 9  23168753.919
  20313488.056    -6034356.625 8  -4685383.151 9  20313490.798
  21538169.657   -10811423.652 6  -8273180.703 9  21538174.509
  19270522.524   -21323487.016 7 -16555515.241 9  19270524.493
 94  3 22 21 18 29.9960000  0  6  2 31 18 19  7 27
  20352325.285   -21019700.375 8 -16251290.974 9  20352328.215
  22840161.613    -1499639.349 6  -1112084.882 9  22840164.707
  23186444.590    14886796.129 5  11599257.932 9  23186452.398
  20317801.535    -6011687.056 7  -4667718.567 9  20317804.277
  21516807.129   -10923682.834 6  -8360655.248 9  21516812.016
  19265865.668   -21347959.732 7 -16574584.887 9  19265867.707
 94  3 22 21 18 59.9960000  0  6  2 31 18 19  7 27
  20343849.059   -21064243.563 8 -16285999.915 9  20343852.000
  22854804.527    -1422693.410 6  -1052127.077 9  22854808.043
  23204156.566    14979868.464 5  11671781.535 9  23204164.773
  20322174.816    -5988704.942 7  -4649810.439 9  20322177.559
  21495504.066   -11035630.433 6  -8447887.003 9  21495509.000
  19261285.473   -21372028.385 7 -16593339.685 9  19261287.629
 94  3 22 21 19 29.9960000  0  6  2 31 18 19  7 27
  20335420.973   -21108533.168 8 -16320511.264 9  20335423.773
  22869504.223    -1345442.941 6   -991931.994 9  22869507.961
  23221873.145    15072974.359 5  11744331.288 9  23221880.977
  20326608.488    -5965406.275 7  -4631655.649 9  20326611.348
  21474262.887   -11147254.543 6  -8534866.695 9  21474267.691
  19256782.738   -21395689.610 7 -16611777.001 9  19256784.930
 94  3 22 21 19 59.9960000  0  6  2 31 18 19  7 27
  20327039.426   -21152578.506 8 -16354832.282 9  20327042.168
  22884261.566    -1267893.935 6   -931504.289 9  22884264.965
  23239596.434    15166108.610 5  11816903.140 9  23239605.848
  20331104.707    -5941778.448 7  -4613244.370 9  20331107.426
  21453084.363   -11258547.983 7  -8621588.721 9  21453089.262
  19252356.957   -21418948.580 7 -16629900.872 9  19252358.996
 94  3 22 21 20 29.9960000  0  7  2 31 26 18 19  7 27
  20318701.488   -21196394.142 8 -16388974.307 9  20318704.078
  22899072.738    -1190060.508 6   -870854.924 9  22899076.289
  23407979.551      -17419.42715
  23257323.496    15259269.267 5  11889495.529 9  23257332.629
  20335662.481    -5917825.904 7  -4594580.070 9  20335665.375
  21431963.543   -11369539.220 7  -8708075.273 9  21431967.961
  19248004.051   -21441823.184 7 -16647725.242 9  19248006.148
 94  3 22 21 20 59.9960000  0  7  2 31 26 18 19  7 27
  20310404.668   -21239995.718 8 -16422949.536 9  20310407.234
  22913936.387    -1111950.912 6   -809990.403 9  22913940.523
  23388113.457     -121817.589 5
  23275056.535    15352451.531 5  11962104.786 9  23275065.727
  20340283.316    -5893544.831 7  -4575659.774 9  20340286.434
  21410896.098   -11480249.188 7  -8794342.648 9  21410900.586
  19243720.574   -21464332.449 7 -16665264.932 9  19243722.707
 94  3 22 21 21 29.9960000  0  7  2 31 26 18 19  7 27
  20302146.793   -21283390.691 8 -16456763.773 9  20302149.500
  22928849.223    -1033582.078 6   -748923.860 9  22928853.523
  23368293.246     -225975.901 5    -51378.63419  23368297.324
  23292797.402    15445679.974 5  12034750.003 9  23292806.629
  20344966.246    -5868936.522 7  -4556484.494 9  20344969.316
  21389877.293   -11590697.601 6  -8880406.215 9  21389881.980
  19239506.199   -21486479.257 7 -16682522.186 9  19239508.180
 94  3 22 21 21 59.9960000  0  7  2 31 26 18 19  7 27
  20293928.504   -21326576.917 8 -16490415.353 9  20293931.129
  22943806.934     -954977.208 5   -687673.412 9  22943811.246
  23348518.863     -329886.262 5   -132347.668 9  23348522.789
  23310552.020    15538977.538 5  12107449.086 9  23310561.152
  20349708.387    -5844015.719 7  -4537065.715 9  20349711.539
  21368906.051   -11700903.663 7  -8966280.945 9  21368910.738
  19235359.012   -21508273.047 7 -16699504.361 9  19235361.121
 94  3 22 21 22 29.9960000  0  7  2 31 26 18 19  7 27
  20285749.027   -21369560.893 8 -16523909.336 9  20285751.875
  22958812.277     -876130.799 6   -626234.751 9  22958815.969
  23328796.387     -433532.594 5   -213110.944 9  23328801.109
  23328322.410    15632361.556 5  12180215.524 9  23328331.156
  20354507.098    -5818797.710 7  -4517415.344 9  20354510.297
  21347980.215   -11810870.312 7  -9051969.117 9  21347984.809
  19231280.816   -21529703.549 7 -16716203.456 9  19231283.113
 94  3 22 21 22 59.9960000  0  7  2 31 26 18 19  7 27
  20277608.004   -21412341.682 8 -16557244.989 9  20277610.676
  22973861.090     -797049.178 6   -564612.809 9  22973864.641
  23309124.988     -536905.644 5   -293661.304 9  23309129.266
  23346108.504    15725824.723 5  12253043.626 9  23346117.602
  20359362.191    -5793282.882 7  -4497533.689 9  20359365.590
  21327102.160   -11920585.587 7  -9137461.417 9  21327106.707
  19227273.832   -21550759.399 7 -16732610.610 9  19227276.176
 94  3 22 21 23 29.9960000  0  7  2 31 26 18 19  7 27
  20269506.801   -21454914.398 8 -16590418.509 9  20269509.438
  22988954.973     -717727.286 5   -502803.639 9  22988958.102
  23289509.941     -639982.607 5   -373980.930 9  23289514.688
  23363910.277    15819372.016 5  12325937.294 9  23363919.668
  20364276.402    -5767459.506 7  -4477411.608 9  20364279.836
  21306274.520   -12030034.323 7  -9222746.019 9  21306279.231
  19223340.004   -21571433.251 7 -16748720.106 9  19223342.254
 94  3 22 21 23 59.9960000  0  7  2 31 26 18 19  7 27
  20261444.207   -21497283.550 8 -16623433.410 9  20261446.832
  23004095.926     -638162.852 5   -440805.491 9  23004099.910
  23269951.621     -742758.350 5   -454065.859 9  23269956.719
  23381721.191    15912968.819 5  12398869.540 9  23381731.180
  20369251.207    -5741316.737 7  -4457040.648 9  20369254.641
  21285499.566   -12139205.564 7  -9307814.390 9  21285504.277
  19219477.566   -21591729.390 7 -16764535.280 9  19219479.887
 94  3 22 21 24 29.9960000  0  7  2 31 26 18 19  7 27
  20253418.840   -21539455.988 8 -16656295.018 9  20253421.465
  23019282.941     -558355.492 5   -378618.030 9  23019286.328
  23250450.160     -845241.404 5   -533922.698 9  23250454.285
  23399535.590    16006582.625 5  12471815.053 9  23399545.637
  20374285.738    -5714861.026 7  -4436425.836 9  20374289.090
  21264780.348   -12248085.674 7  -9392655.909 9  21264784.777
  19215687.199   -21611647.891 7 -16780056.184 9  19215689.484
 94  3 22 21 24 59.9960000  0  6  2 31 26 19  7 27
  20245436.949   -21581401.280 8 -16688979.633 9  20245439.598
  23034517.676     -478295.706 5   -316233.898 9  23034521.730
  23231006.871     -947417.737 5   -613540.567 9  23231010.621
  20379380.598    -5688088.393 7  -4415564.074 9  20379383.973
  21244121.402   -12356652.014 7  -9477252.930 9  21244125.984
  19211968.855   -21631188.714 7 -16795282.796 9  19211971.047
 94  3 22 21 25 29.9960000  0  6  2 31 26 19  7 27
  20237500.941   -21623104.858 8 -16721475.906 9  20237503.484
  23049801.020     -397981.991 5   -253651.884 9  23049804.781
  23211622.441    -1049283.605 5   -692916.474 9  23211626.496
  20384535.785    -5660995.780 7  -4394452.975 9  20384539.242
  21223524.996   -12464883.193 7  -9561588.782 9  21223529.238
  19208322.004   -21650352.713 7 -16810215.784 9  19208324.207
 94  3 22 21 25 59.9960000  0  6  2 31 26 19  7 27
  20229612.145   -21664560.832 8 -16753779.238 9  20229614.828
  23065131.215     -317419.574 5   -190876.096 9  23065135.457
  23192296.090    -1150840.018 5   -772051.262 9  23192300.777
  20389749.316    -5633599.256 7  -4373105.064 9  20389752.762
  21202994.488   -12572772.191 7  -9645658.004 9  21202998.754
  19204748.691   -21669129.923 7 -16824847.376 9  19204750.801
 94  3 22 21 26 29.9960000  0  6  2 31 26 19  7 27
  20221767.160   -21705787.413 8 -16785903.814 9  20221769.926
  23080508.410     -236615.206 6   -127911.741 9  23080512.535
  23173029.918    -1252088.606 5   -850946.180 9  23173034.172
  20395015.277    -5605926.393 7  -4351541.824 9  20395018.641
  21182525.645   -12680337.432 7  -9729474.939 9  21182529.910
  19201247.191   -21687530.793 7 -16839185.710 9  19201249.172
 94  3 22 21 26 59.9960000  0  6  2 31 26 19  7 27
  20213964.777   -21746788.816 8 -16817852.937 9  20213967.426
  23095927.840     -155582.193 6    -64769.224 9  23095931.566
  23153819.113    -1353044.397 5   -929612.981 9  23153822.945
  20400337.316    -5577959.464 7  -4329749.435 9  20400340.738
  21162114.684   -12787594.455 7  -9813051.704 9  21162118.680
  19197815.809   -21705563.261 7 -16853236.984 9  19197817.719
 94  3 22 21 27 29.9960000  0  6  2 31 26 19  7 27
  20206200.121   -21787593.368 8 -16849648.658 9  20206202.805
  23111387.887      -74338.821 5     -1462.760 9  23111392.211
  23134658.285    -1453731.608 5  -1008070.470 9  23134662.199
  20405715.387    -5549698.466 7  -4307727.906 9  20405718.563
  21141760.012   -12894561.442 7  -9896402.463 9  21141764.195
  19194454.059   -21723228.663 7 -16867002.232 9  19194456.109
 94  3 22 21 27 59.9960000  0  6  2 31 26 19  7 27
  20198467.606   -21828225.874 8 -16881310.325 9  20198470.313
  23126887.527        7108.744 5     62002.761 9  23126892.426
  23115548.043    -1554156.037 5  -1086323.199 9  23115552.238
  20411148.715    -5521146.423 7  -4285479.587 9  20411152.043
  21121454.754   -13001264.496 7  -9979547.565 9  21121459.043
  19191161.356   -21740532.271 7 -16880485.561 9  19191163.430
 94  3 22 21 28 29.9960000  0  6  2 31 26 19  7 27
  20190768.707   -21868683.870 8 -16912836.014 9  20190771.355
  23142426.481       88768.526 5    125633.689 9  23142431.273
  23096488.168    -1654316.053 5  -1164369.917 9  23096491.121
  20416641.277    -5492282.685 7  -4262988.392 9  20416644.453
  21101199.770   -13107704.249 7 -10062487.496 9  21101204.035
  19187937.832   -21757472.532 7 -16893685.763 9  19187939.906
 94  3 22 21 28 59.9960000  0  6  2 31 26 19  7 27
  20183105.934   -21908951.087 8 -16944213.045 9  20183108.547
  23158004.387      170635.592 5    189426.125 9  23158008.805
  23077480.207    -1754201.839 5  -1242202.939 9  23077483.969
  20422195.777    -5463094.523 7  -4240244.398 9  20422198.789
  21080997.543   -13213866.069 7 -10145210.860 9  21081001.832
  19184786.434   -21774032.462 7 -16906589.608 9  19184788.719
 94  3 22 21 29 29.9960000  0  6  2 31 26 19  7 27
  20175478.027   -21949035.655 8 -16975447.747 9  20175480.664
  23173623.316      252709.898 5    253380.038 9  23173627.582
  23058531.348    -1853777.717 5  -1319794.463 9  23058534.488
  20427808.457    -5433599.838 7  -4217261.553 9  20427811.445
  21060849.699   -13319742.107 7 -10227711.532 9  21060854.176
  19181707.551   -21790211.766 7 -16919196.858 9  19181709.824
 94  3 22 21 29 59.9960000  0  6  2 31 26 19  7 27
  20167888.488   -21988919.161 8 -17006525.785 9  20167891.031
  23189283.309      335003.357 5    317504.680 9  23189288.055
  23039649.793    -1953002.365 5  -1397112.294 9  23039653.648
  20433482.559    -5403783.341 7  -4194027.951 9  20433485.606
  21040760.004   -13425315.756 7 -10309976.585 9  21040764.422
  19178702.746   -21806001.578 7 -16931500.610 9  19178705.008
 94  3 22 21 30 29.9960000  0  5  2 26 19  7 27
  20160336.676   -22028604.466 8 -17037449.377 9  20160339.266
  23020833.254    -2051883.297 5  -1474162.305 9  23020836.488
  20439215.106    -5373656.497 7  -4170552.520 9  20439218.094
  21020730.379   -13530570.851 7 -10391993.408 9  21020734.844
  19175771.012   -21821409.174 7 -16943506.528 9  19175773.344
 94  3 22 21 30 59.9960000  0  5  2 26 19  7 27
  20152821.918   -22068095.491 8 -17068221.584 9  20152824.438
  23002083.434    -2150414.050 5  -1550939.458 9  23002087.418
  20445006.410    -5343224.468 7  -4146839.278 9  20445009.246
  21000765.191   -13635487.373 7 -10473746.407 9  21000769.492
  19172912.512   -21836430.209 7 -16955211.233 9  19172914.785
 94  3 22 21 31 29.9960000  0  5  2 26 19  7 27
  20145343.762   -22107393.412 8 -17098843.322 9  20145346.422
  22983400.199    -2248596.826 5  -1627445.449 9  22983404.055
  20450856.176    -5312482.070 7  -4122884.193 9  20450859.117
  20980866.957   -13740053.583 7 -10555226.441 9  20980871.258
  19170129.145   -21851057.848 7 -16966609.396 9  19170131.547
 94  3 22 21 31 59.9960000  0  5  2 26 19  7 27
  20137902.457   -22146497.047 8 -17129313.673 9  20137905.105
  22964777.824    -2346457.875 5  -1703700.751 9  22964781.715
  20456765.129    -5281431.174 7  -4098688.724 9  20456768.176
  20961035.754   -13844266.085 7 -10636430.868 9  20961039.738
  19167422.809   -21865278.389 7 -16977690.335 9  19167425.223
 94  3 22 21 32 29.9960000  0  5  2 26 19  7 27
  20130498.777   -22185404.639 8 -17159631.260 9  20130501.391
  22946211.856    -2444023.207 5  -1779725.627 9  22946215.348
  20462729.723    -5250088.470 7  -4074265.868 9  20462732.629
  20941273.379   -13948120.036 7 -10717355.907 9  20941277.281
  19164792.824   -21879098.406 7 -16988459.176 9  19164795.109
 94  3 22 21 32 59.9960000  0  5  2 26 19  7 27
  20123134.168   -22224105.121 8 -17189787.456 9  20123136.805
  22927702.207    -2541286.979 5  -1855515.495 9  22927706.156
  20468748.816    -5218456.531 7  -4049617.640 9  20468751.816
  20921575.566   -14051630.815 7 -10798013.539 9  20921579.574
  19162239.582   -21892516.946 7 -16998915.184 9  19162241.938
 94  3 22 21 33 29.9960000  0  5  2 26 19  7 27
  20115811.738   -22262584.678 8 -17219771.510 9  20115814.422
  22909250.254    -2638254.172 5  -1931074.259 9  22909254.145
  20474823.020    -5186535.717 7  -4024744.308 9  20474826.125
  20901941.035   -14154812.197 7 -10878414.503 9  20901944.809
  19159762.129   -21905536.595 7 -17009060.363 9  19159764.438
 94  3 22 21 33 59.9960000  0  5  2 26 19  7 27
  20108533.027   -22300832.606 8 -17249575.070 9  20108535.699
  22890855.074    -2734924.874 5  -2006402.008 9  22890858.789
  20480954.293    -5154315.904 7  -3999637.995 9  20480957.164
  20882369.902   -14257659.560 7 -10958555.202 9  20882373.676
  19157357.051   -21918175.650 7 -17018908.975 9  19157359.336
 94  3 22 21 34 29.9960000  0  5  2 26 19  7 27
  20101300.543   -22338839.180 8 -17279190.564 9  20101303.273
  22872519.293    -2831275.051 5  -2081479.994 9  22872523.195
  20487146.941    -5121774.328 7  -3974280.954 9  20487149.906
  20862863.715   -14360164.873 7 -11038429.372 9  20862867.477
  19155024.145   -21930435.075 7 -17028461.774 9  19155026.383
 94  3 22 21 34 59.9960000  0  5  2 26 19  7 27
  20094112.746   -22376613.395 8 -17308624.998 9  20094115.477
  22854249.871    -2927284.167 5  -2156292.220 9  22854253.668
  20493404.074    -5088893.928 7  -3948659.896 9  20493407.180
  20843419.754   -14462341.496 7 -11118047.415 9  20843423.504
  19152767.527   -21942292.629 7 -17037701.426 9  19152769.777
 94  3 22 21 35 29.9960000  0  5  2 26 19  7 27
  20086966.777   -22414165.687 8 -17337886.506 9  20086969.438
  22836047.473    -3022936.806 5  -2230826.672 9  22836050.930
  20499727.035    -5055665.836 7  -3922767.909 9  20499730.059
  20824041.465   -14564175.241 7 -11197398.279 9  20824045.473
  19150590.301   -21953734.224 7 -17046616.952 9  19150592.574
 94  3 22 21 35 59.9960000  0  5  2 26 19  7 27
  20079860.012   -22451510.820 8 -17366986.589 9  20079862.566
  22817916.231    -3118217.233 5  -2305071.074 9  22817919.852
  20506116.590    -5022089.033 7  -3896604.196 9  20506119.660
  20804729.285   -14665661.063 7 -11276478.037 9  20804733.305
  19148494.848   -21964746.058 7 -17055197.598 9  19148497.039
 94  3 22 21 36 29.9960000  0  5  2 26 19  7 27
  20072792.316   -22488652.100 8 -17395927.831 9  20072795.000
  22799859.379    -3213106.588 5  -2379010.758 9  22799862.520
  20512569.106    -4988180.264 7  -3870181.812 9  20512572.375
  20785480.668   -14766812.477 7 -11355297.218 9  20785484.547
  19146485.402   -21975305.447 7 -17063425.692 9  19146487.629
 94  3 22 21 36 59.9960000  0  5  2 26 19  7 27
  20065762.285   -22525594.066 8 -17424713.756 9  20065765.016
  22781874.840    -3307614.383 6  -2452653.122 9  22781877.488
  20519080.660    -4953961.893 7  -3843518.180 9  20519083.707
  20766296.566   -14867624.510 7 -11433851.948 9  20766300.574
  19144561.231   -21985416.983 7 -17071304.810 9  19144563.492
 94  3 22 21 37 29.9960000  0  6  2 15 26 19  7 27
  20058770.629   -22562337.731 8 -17453345.166 9  20058773.324
  23101239.316      -40551.68615
  22763960.441    -3401756.943 6  -2526010.910 9  22763963.863
  20525647.340    -4919453.171 7  -3816628.302 9  20525650.352
  20747180.856   -14968076.603 7 -11512126.203 9  20747184.781
  19142716.777   -21995109.527 7 -17078857.446 9  19142719.063
 94  3 22 21 37 59.9960000  0  6  2 15 26 19  7 27
  20051817.293   -22598877.624 8 -17481817.792 9  20051819.930
  23087668.270     -111859.546 5
  22746110.895    -3495554.342 6  -2599099.731 9  22746114.199
  20532269.012    -4884657.905 7  -3789515.140 9  20532272.246
  20728134.395   -15068167.437 7 -11590118.959 9  20728138.543
  19140949.582   -22004396.730 7 -17086094.227 9  19140951.855
 94  3 22 21 38 29.9960000  0  6  2 15 26 19  7 27
  20044900.941   -22635223.334 8 -17510139.104 9  20044903.461
  23074161.340     -182838.978 5    -23932.27519  23074168.160
  22728324.113    -3589027.079 6  -2671935.545 9  22728327.652
  20538943.832    -4849580.488 7  -3762182.118 9  20538946.949
  20709157.746   -15167890.517 7 -11667825.153 9  20709161.625
  19139255.918   -22013295.944 7 -17093028.678 9  19139258.086
 94  3 22 21 38 59.9960000  0  6  2 15 26 19  7 27
  20038020.809   -22671378.723 8 -17538312.117 9  20038023.305
  23060718.527     -253486.766 5    -78982.340 9  23060725.949
  22710597.707    -3682176.022 6  -2744519.075 9  22710600.918
  20545676.715    -4814200.571 7  -3734613.387 9  20545679.844
  20690253.691   -15267230.240 7 -11745232.626 9  20690257.723
  19137635.371   -22021812.712 7 -17099665.126 9  19137637.598
 94  3 22 21 39 29.9960000  0  6  2 15 26 19  7 27
  20031178.746   -22707333.014 8 -17566328.429 9  20031181.289
  23047338.918     -323793.840 5   -133766.890 9  23047346.070
  22692937.363    -3774983.744 5  -2816836.735 9  22692941.113
  20552472.723    -4778487.842 7  -3706785.317 9  20552475.793
  20671423.457   -15366183.587 7 -11822339.020 9  20671427.418
  19136091.254   -22029926.892 7 -17105987.866 9  19136093.609
 94  3 22 21 39 59.9960000  0  6  2 15 26 19  7 27
  20024375.988   -22743081.745 8 -17594184.560 9  20024378.484
  23034025.363     -393757.013 5   -188283.487 9  23034032.195
  22675344.496    -3867433.642 5  -2888875.562 9  22675348.563
  20559335.316    -4742424.985 7  -3678684.423 9  20559338.539
  20652664.348   -15464763.569 7 -11899154.487 9  20652668.145
  19134628.145   -22037615.642 7 -17111979.107 9  19134630.254
 94  3 22 21 40 29.9960000  0  6  2 15 26 19  7 27
  20017611.379   -22778631.273 8 -17621885.476 9  20017613.805
  23020776.043     -463380.381 5   -242535.305 9  23020783.359
  22657823.340    -3959508.173 6  -2960621.874 9  22657826.680
  20566262.895    -4706019.666 7  -3650316.673 9  20566266.141
  20633974.012   -15562980.965 7 -11975687.414 9  20633977.879
  19133246.707   -22044875.736 7 -17117636.335 9  19133248.957
 94  3 22 21 40 59.9960000  0  6  2 15 26 19  7 27
  20010887.434   -22813964.811 8 -17649418.081 9  20010889.859
  23007593.762     -532655.866 5   -296516.052 9  23007600.867
  22640377.637    -4051187.095 6  -3032059.938 9  22640380.637
  20573256.199    -4669269.187 7  -3621679.966 9  20573259.445
  20615352.137   -15660839.652 7 -12051940.824 9  20615355.875
  19131947.613   -22051702.530 7 -17122955.925 9  19131949.723
 94  3 22 21 41 29.9960000  0  6  2 15 26 19  7 27
  20004203.590   -22849088.367 8 -17676787.069 9  20004206.074
  22994477.457     -601579.338 5   -350222.500 9  22994483.809
  22623006.238    -4142473.038 5  -3103191.796 9  22623009.543
  20580312.606    -4632187.706 7  -3592785.336 9  20580315.840
  20596798.879   -15758337.587 7 -12127913.135 9  20596802.500
  19130731.348   -22058094.779 7 -17127936.907 9  19130733.445
 94  3 22 21 41 59.9960000  0  6  2 15 26 19  7 27
  19997558.676   -22884007.151 8 -17703996.488 9  19997561.219
  22981429.152     -670145.593 5   -403650.571 9  22981436.281
  22605710.770    -4233361.032 6  -3174013.578 9  22605713.617
  20587429.801    -4594786.866 7  -3563641.857 9  20587433.000
  20578316.848   -15855460.478 7 -12203593.202 9  20578320.457
  19129596.012   -22064059.761 7 -17132584.961 9  19129598.285
 94  3 22 21 42 29.9960000  0  6  2 15 26 19  7 27
  19990947.066   -22918750.700 8 -17731069.365 9  19990949.715
  22968447.754     -738365.581 5   -456808.875 9  22968453.578
  22588487.973    -4323867.394 6  -3244537.948 9  22588491.336
  20594601.895    -4557096.682 7  -3534272.918 9  20594605.164
  20559904.887   -15952215.472 7 -12278986.597 9  20559908.520
  19128536.770   -22069625.787 7 -17136922.134 9  19128539.113
 94  3 22 21 42 59.9960000  0  6  2 15 26 19  7 27
  19984367.559   -22953325.318 8 -17758010.603 9  19984370.230
  22955533.863     -806227.261 5   -509687.982 9  22955539.430
  22571336.231    -4414000.859 6  -3314771.768 9  22571339.746
  20601829.605    -4519115.830 7  -3504677.490 9  20601832.770
  20541564.840   -16048592.107 7 -12354085.170 9  20541568.262
  19127554.832   -22074785.951 7 -17140943.053 9  19127557.211
 94  3 22 21 43 29.9960000  0  6  2 15 26 19  7 27
  19977819.316   -22987737.981 8 -17784825.642 9  19977821.836
  22942688.238     -873730.643 5   -562287.886 9  22942693.781
  22554254.348    -4503764.235 6  -3384717.224 9  22554257.500
  20609112.652    -4480841.992 7  -3474853.762 9  20609115.934
  20523296.973   -16144590.396 7 -12428888.930 9  20523300.359
  19126649.621   -22079542.590 7 -17144649.537 9  19126652.117
 94  3 22 21 43 59.9960000  0  6  2 15 26 19  7 27
  19971301.238   -23021990.584 8 -17811515.966 9  19971303.805
  22929910.035     -940878.319 5   -614610.636 9  22929916.906
  22537243.856    -4593158.536 6  -3454375.066 9  22537247.582
  20616451.215    -4442279.349 7  -3444804.989 9  20616454.379
  20505098.770   -16240223.171 7 -12503407.873 9  20505102.168
  19125820.738   -22083899.719 7 -17148044.714 9  19125823.328
 94  3 22 21 44 29.9960000  0  6  2 15 26 19  7 27
  19964815.277   -23056074.694 8 -17838074.992 9  19964817.855
  22917200.598    -1007667.092 5   -666653.697 9  22917206.879
  22520303.184    -4682181.062 6  -3523743.220 9  22520306.594
  20623844.348    -4403427.337 7  -3414530.741 9  20623847.605
  20486968.027   -16335499.799 7 -12577649.300 9  20486971.496
  19125068.949   -22087849.428 7 -17151122.420 9  19125071.527
 94  3 22 21 44 59.9960000  0  6  2 15 26 19  7 27
  19958365.020   -23089971.909 8 -17864488.389 9  19958367.504
  22904561.020    -1074092.617 5   -718413.747 9  22904567.102
  22503435.152    -4770822.093 6  -3592814.131 9  22503437.906
  20631295.895    -4364269.472 7  -3384018.162 9  20631299.199
  20468907.816   -16430405.873 7 -12651601.988 9  20468911.191
  19124397.051   -22091379.329 7 -17153873.005 9  19124399.676
 94  3 22 21 45 29.9960000  0  6  2 15 26 19  7 27
  19951951.887   -23123672.095 8 -17890748.260 9  19951954.371
  22891989.535    -1140151.652 5   -769888.206 9  22891995.887
  22486643.090    -4859065.688 6  -3661575.340 9  22486646.020
  20638807.270    -4324796.509 7  -3353260.057 9  20638810.551
  20450921.113   -16524926.457 7 -12725254.288 9  20450924.641
  19123803.918   -22094497.032 7 -17156302.401 9  19123806.578
 94  3 22 21 45 59.9960000  0  6  2 15 26 19  7 27
  19945576.520   -23157175.381 8 -17916854.695 9  19945578.980
  22879488.582    -1205846.391 5   -821078.788 9  22879494.852
  22469925.770    -4946915.108 6  -3730029.401 9  22469929.145
  20646376.832    -4285018.829 7  -3322264.513 9  20646380.172
  20433009.176   -16619053.802 7 -12798600.174 9  20433012.727
  19123291.043   -22097192.383 7 -17158402.686 9  19123293.656
 94  3 22 21 46 29.9960000  0  6  2 15 26 19  7 27
  19939243.402   -23190455.680 8 -17942787.384 9  19939245.676
  22867058.301    -1271168.488 5   -871979.050 9  22867064.031
  22453286.043    -5034357.095 6  -3798165.979 9  22453289.418
  20654007.332    -4244920.291 7  -3291018.946 9  20654010.555
  20415174.215   -16712775.561 7 -12871630.018 9  20415177.707
  19122859.848   -22099459.375 7 -17160169.181 9  19122862.344
 94  3 22 21 46 59.9960000  0  6  2 15 26 19  7 27
  19932950.965   -23223522.088 8 -17968553.405 9  19932953.449
  22854697.902    -1336121.799 5   -922591.902 9  22854703.434
  22436722.098    -5121401.188 6  -3865992.509 9  22436725.871
  20661700.856    -4204492.036 7  -3259516.453 9  20661704.102
  20397417.457   -16806089.761 7 -12944342.281 9  20397420.996
  19122507.543   -22101309.394 7 -17161610.770 9  19122510.180
 94  3 22 21 47 29.9960000  0  6  2 15 26 19  7 27
  19926698.262   -23256379.982 8 -17994156.945 9  19926700.816
  22842409.262    -1400698.974 5   -972911.671 9  22842415.449
  22420233.707    -5208049.609 6  -3933510.716 9  22420236.906
  20669456.934    -4163731.955 7  -3227755.398 9  20669460.438
  20379734.770   -16899013.558 7 -13016750.342 9  20379738.133
  19122236.887   -22102733.217 7 -17162720.257 9  19122239.359
 94  3 22 21 47 59.9960000  0  6  2 15 26 19  7 27
  19920486.973   -23289022.474 8 -18019592.647 9  19920489.516
  22830192.934    -1464893.345 5  -1022933.186 9  22830198.043
  22403819.527    -5294304.411 6  -4000722.241 9  22403822.352
  20677277.621    -4122635.345 7  -3195732.113 9  20677280.961
  20362123.324   -16991560.034 7 -13088864.385 9  20362126.770
  19122049.629   -22103716.140 7 -17163486.187 9  19122051.973
 94  3 22 21 48 29.9960000  0  6  2 15 26 19  7 27
  19914313.410   -23321464.304 8 -18044871.984 9  19914315.918
  22818051.402    -1528702.062 5  -1072654.151 9  22818057.320
  22387480.152    -5380168.630 6  -4067629.374 9  22387483.832
  20685161.691    -4081203.760 7  -3163447.805 9  20685164.961
  20344584.535   -17083725.461 7 -13160681.503 9  20344587.922
  19121946.160   -22104261.180 7 -17163910.901 9  19121948.539
 94  3 22 21 48 59.9960000  0  6  2 15 26 19  7 27
  19908171.949   -23353737.503 8 -18070019.925 9  19908174.375
  22805982.707    -1592122.418 5  -1122072.510 9  22805988.496
  22371213.637    -5465650.384 6  -4134238.496 9  22371217.352
  20693107.316    -4039448.823 7  -3130911.542 9  20693110.785
  20327120.918   -17175498.058 7 -13232192.523 9  20327124.305
  19121926.301   -22104365.989 7 -17163992.584 9  19121928.668
 94  3 22 21 49 29.9960000  0  6  2 15 26 19  7 27
  19902063.863   -23385836.375 8 -18095032.029 9  19902066.324
  22793989.363    -1655148.094 5  -1171183.333 9  22793994.977
  22355022.129    -5550737.394 6  -4200540.042 9  22355025.633
  20701111.434    -3997387.678 7  -3098136.671 9  20701114.961
  20309731.918   -17266877.606 7 -13303397.267 9  20309735.188
  19121991.551   -22104023.434 7 -17163725.673 9  19121994.000
 94  3 22 21 49 59.9960000  0  6  2 15 26 19  7 27
  19895989.551   -23417757.300 8 -18119905.474 9  19895991.836
  22782068.957    -1717786.089 5  -1219992.052 9  22782074.160
  22338905.293    -5635431.592 6  -4266535.487 9  22338908.656
  20709170.801    -3955035.698 7  -3065135.180 9  20709174.223
  20292420.777   -17357847.960 7 -13374283.171 9  20292424.059
  19122138.754   -22103248.682 7 -17163121.986 9  19122141.121
 94  3 22 21 50 29.9960000  0  6  2 15 26 19  7 27
  19889950.160   -23449494.532 8 -18144635.778 9  19889952.422
  22770225.504    -1780026.348 6  -1268490.863 9  22770231.246
  22322866.238    -5719716.868 6  -4332212.302 9  22322869.789
  20717287.598    -3912383.304 7  -3031899.602 9  20717290.762
  20275190.168   -17448394.326 7 -13444838.691 9  20275193.484
  19122367.746   -22102047.150 7 -17162185.734 9  19122370.219
 94  3 22 21 50 59.9960000  0  6  2 15 26 19  7 27
  19883947.270   -23481039.114 8 -18169215.968 9  19883949.637
  22758457.098    -1841869.938 5  -1316680.593 9  22758461.996
  22306906.941    -5803583.993 6  -4397563.279 9  22306909.871
  20725460.941    -3869431.743 7  -2998430.901 9  20725464.398
  20258036.129   -17538539.709 7 -13515081.757 9  20258039.363
  19122674.035   -22100435.565 7 -17160929.967 9  19122676.414
 94  3 22 21 51 29.9960000  0  6  2 15 26 19  7 27
  19877985.223   -23512371.222 8 -18193630.596 9  19877987.426
  22746763.348    -1903312.785 5  -1364558.041 9  22746769.430
  22291029.520    -5887020.715 6  -4462578.864 9  22291032.871
  20733691.457    -3826179.594 7  -2964727.976 9  20733694.926
  20240957.496   -17628289.760 7 -13585016.784 9  20240960.613
  19123058.949   -22098413.299 7 -17159354.189 9  19123061.258
 94  3 22 21 51 59.9960000  0  6  2 15 26 19  7 27
  19872062.051   -23543496.523 8 -18217884.072 9  19872064.313
  22735148.004    -1964356.615 5  -1412124.585 9  22735153.652
  22275231.684    -5970039.661 6  -4527268.925 9  22275234.918
  20741979.598    -3782623.648 7  -2930788.328 9  20741983.148
  20223953.527   -17717645.290 7 -13654644.393 9  20223956.504
  19123522.691   -22095977.851 7 -17157456.447 9  19123525.012
 94  3 22 21 52 29.9960000  0  6  2 15 26 19  7 27
  19866177.098   -23574421.587 8 -18241981.514 9  19866179.512
  22723609.449    -2024994.714 6  -1459374.959 9  22723614.781
  22259513.402    -6052638.061 6  -4591631.292 9  22259516.578
  20750327.238    -3738757.011 7  -2896606.580 9  20750330.824
  20207024.426   -17806606.726 7 -13723964.919 9  20207027.496
  19124067.231   -22093116.232 7 -17155226.625 9  19124069.481
 94  3 22 21 52 59.9960000  0  6  2 15 26 19  7 27
  19860328.660   -23605155.398 8 -18265929.934 9  19860330.992
  22712147.527    -2085229.399 5  -1506310.995 9  22712152.965
  22243872.801    -6134829.026 6  -4655676.153 9  22243876.070
  20758731.074    -3694595.211 7  -2862194.835 9  20758734.660
  20190170.402   -17895176.570 7 -13792980.313 9  20190173.344
  19124696.793   -22089808.100 7 -17152648.871 9  19124699.078
 94  3 22 21 53 29.9960000  0  6  2 15 26 19  7 27
  19854518.176   -23635690.348 8 -18289723.399 9  19854520.356
  22700762.324    -2145056.985 5  -1552929.814 9  22700768.406
  22228309.160    -6216619.191 6  -4719408.713 9  22228312.231
  20767191.965    -3650134.680 7  -2827550.312 9  20767195.809
  20173393.887   -17983338.269 7 -13861677.672 9  20173396.816
  19125413.371   -22086041.044 7 -17149713.514 9  19125415.820
 94  3 22 21 53 59.9960000  0  6  2 15 26 19  7 27
  19848744.668   -23666030.304 8 -18313364.921 9  19848747.012
  22689455.496    -2204473.097 5  -1599228.044 9  22689461.672
  22212820.223    -6298012.167 6  -4782831.795 9  22212823.199
  20775711.176    -3605365.283 7  -2792665.121 9  20775714.879
  20156695.965   -18071085.140 7 -13930051.799 9  20156699.012
  19126218.731   -22081809.395 7 -17146416.135 9  19126221.238
 94  3 22 21 54 29.9960000  0  6  2 15 26 19  7 27
  19843007.059   -23696180.504 8 -18336858.579 9  19843009.356
  22678227.770    -2263473.651 5  -1645202.443 9  22678232.645
  22197410.082    -6378991.948 6  -4845932.884 9  22197412.859
  20784290.020    -3560283.189 7  -2757536.271 9  20784293.734
  20140078.910   -18158409.351 7 -13998096.564 9  20140081.828
  19127109.981   -22077125.683 7 -17142766.499 9  19127112.441
 94  3 22 21 54 59.9960000  0  6  2 15 26 19  7 27
  19837305.457   -23726142.521 8 -18360205.603 9  19837307.731
  22667080.645    -2322055.605 5  -1690850.659 9  22667085.484
  22182080.676    -6459548.290 6  -4908704.005 9  22182083.898
  20792927.074    -3514895.371 7  -2722169.190 9  20792930.766
  20123543.004   -18245304.556 7 -14065807.049 9  20123545.957
  19128084.512   -22072005.525 7 -17138776.778 9  19128086.879
 94  3 22 21 55 29.9960000  0  6  2 15 26 19  7 27
  19831637.051   -23755930.931 8 -18383417.351 9  19831639.301
  22656011.496    -2380220.992 5  -1736174.272 9  22656015.996
  22166833.230    -6539673.780 6  -4971139.420 9  22166836.828
  20801623.035    -3469197.203 7  -2686560.281 9  20801626.773
  20107090.090   -18331764.620 7 -14133178.461 9  20107093.242
  19129137.262   -22066472.811 7 -17134465.585 9  19129139.641
 94  3 22 21 55 59.9960000  0  6  2 15 26 19  7 27
  19825998.301   -23785563.486 8 -18406507.651 9  19826000.445
  22645023.824    -2437959.738 5  -1781165.459 9  22645029.145
  22151671.012    -6619352.135 6  -5033226.410 9  22151674.059
  20810380.816    -3423176.641 7  -2650700.149 9  20810384.320
  20090721.707   -18417781.261 7 -14200204.351 9  20090724.813
  19130267.887   -22060530.456 7 -17129835.192 9  19130270.301
 94  3 22 21 56 29.9960000  0  6  2 15 26 19  7 27
  19820387.551   -23815048.226 8 -18429482.772 9  19820389.871
  22634116.410    -2495275.877 5  -1825827.333 9  22634121.402
  22136593.746    -6698584.668 6  -5094966.005 9  22136597.016
  20819196.520    -3376849.620 7  -2614601.219 9  20819200.234
  20074434.754   -18503368.728 7 -14266895.816 9  20074437.895
  19131474.066   -22054192.894 7 -17124896.848 9  19131476.469
 94  3 22 21 56 59.9960000  0  6  2 15 26 19  7 27
  19814805.770   -23844379.973 8 -18452338.680 9  19814808.090
  22623290.277    -2552172.586 5  -1870162.361 9  22623295.152
  22121598.160    -6777385.489 6  -5156369.197 9  22121601.313
  20828069.246    -3330223.477 7  -2578269.211 9  20828072.832
  20058227.668   -18588537.218 7 -14333260.811 9  20058230.797
  19132757.512   -22047448.195 7 -17119641.254 9  19132759.844
 94  3 22 21 57 29.9960000  0  6  2 15 26 19  7 27
  19809254.996   -23873549.077 8 -18475067.851 9  19809257.328
  22612543.590    -2608641.542 5  -1914164.092 9  22612549.145
  22106685.629    -6855751.060 6  -5217433.241 9  22106688.957
  20837001.988    -3283282.090 7  -2541691.560 9  20837005.691
  20042098.637   -18673296.609 7 -14399307.022 9  20042101.766
  19134123.957   -22040267.681 7 -17114046.070 9  19134126.277
 94  3 22 21 57 59.9960000  0  6  2 15 26 19  7 27
  19803738.379   -23902539.810 8 -18497658.031 9  19803740.652
  22601879.895    -2664681.520 5  -1957831.542 9  22601886.246
  22091856.285    -6933680.581 6  -5278157.512 9  22091859.461
  20845992.215    -3236039.365 7  -2504879.104 9  20845995.824
  20026044.715   -18757658.535 7 -14465043.527 9  20026047.715
  19135574.606   -22032644.046 7 -17108105.593 9  19135576.902
 94  3 22 21 58 29.9960000  0  6  2 15 26 19  7 27
  19798261.387   -23931322.351 8 -18520085.984 9  19798263.496
  22591298.543    -2720284.787 5  -2001158.741 9  22591304.613
  22077110.270    -7011168.617 6  -5338537.755 9  22077114.078
  20855038.207    -3188500.678 7  -2467836.018 9  20855041.758
  20010069.309   -18841610.509 7 -14530460.590 9  20010072.355
  19137114.879   -22024550.710 7 -17101799.119 9  19137117.258
 94  3 22 21 58 59.9960000  0  6  2 15 26 19  7 27
  19792824.598   -23959892.176 8 -18542348.187 9  19792826.754
  22580800.871    -2775450.477 5  -2044144.909 9  22580807.328
  22062450.402    -7088207.366 6  -5398567.899 9  22062453.801
  20864142.223    -3140660.307 7  -2430557.861 9  20864146.008
  19994174.293   -18925138.179 7 -14595547.027 9  19994177.188
  19138746.707   -22015974.890 7 -17095116.690 9  19138749.133
 94  3 22 21 59 29.9960000  0  6  2 15 26 19  7 27
  19787423.918   -23988272.598 8 -18564462.804 9  19787426.121
  22570385.707    -2830186.567 5  -2086796.372 9  22570392.352
  22047876.879    -7164793.359 6  -5458245.275 9  22047879.984
  20873302.160    -3092523.623 7  -2393048.808 9  20873305.758
  19978359.684   -19008245.211 7 -14660305.695 9  19978362.625
  19140465.035   -22006945.127 7 -17088080.538 9  19140467.438
 94  3 22 21 59 59.9960000  0  6  2 15 26 19  7 27
  19782058.637   -24016467.842 8 -18586433.119 9  19782060.863
  22560051.754    -2884489.402 5  -2129110.252 9  22560058.871
  22033387.832    -7240932.553 6  -5517574.476 9  22033391.324
  20882517.379    -3044097.462 7  -2355314.193 9  20882520.953
  19962629.723   -19090906.961 7 -14724717.392 9  19962632.641
  19142265.434   -21997482.675 7 -17080707.221 9  19142267.824
 94  3 22 22  0 29.9960000  0  6  2 15 26 19  7 27
  19776725.035   -24044494.614 8 -18608272.160 9  19776727.309
  22549799.871    -2938363.639 5  -2171090.110 9  22549806.223
  22018980.652    -7316643.333 6  -5576569.851 9  22018983.816
  20891789.613    -2995373.707 7  -2317347.693 9  20891793.328
  19946984.801   -19173121.429 7 -14788780.559 9  19946987.719
  19144147.387   -21987594.496 7 -17073002.169 9  19144149.731
 94  3 22 22  0 59.9950000  0  6  2 15 26 19  7 27
  19771421.608   -24072365.647 8 -18629989.848 9  19771423.999
  22539631.898    -2991794.790 5  -2212724.748 9  22539638.577
  22004656.515    -7391917.099 6  -5635224.710 9  22004659.597
  20901120.569    -2946337.908 7  -2279138.039 9  20901124.155
  19931425.812   -19254886.584 7 -14852493.616 9  19931428.589
  19146108.335   -21977288.930 7 -17064971.882 9  19146110.890
 94  3 22 22  1 29.9950000  0  6  2 15 26 19  7 27
  19766144.069   -24100099.750 8 -18651600.838 9  19766146.390
  22529548.343    -3044788.299 5  -2254018.348 9  22529555.163
  21990411.116    -7466777.172 6  -5693557.188 9  21990414.491
  20910508.788    -2897003.722 7  -2240695.872 9  20910512.198
  19915949.124   -19336215.173 7 -14915866.495 9  19915951.831
  19148146.976   -21966575.527 7 -17056623.806 9  19148149.448
 94  3 22 22  1 59.9950000  0  6  2 15 26 19  7 27
  19760895.054   -24127683.826 8 -18673094.926 9  19760897.292
  22519547.390    -3097339.495 5  -2294967.303 9  22519553.097
  21976244.921    -7541222.956 6  -5751566.858 9  21976247.909
  20919951.046    -2847384.142 7  -2202031.335 9  20919954.761
  19900554.351   -19417114.583 7 -14978904.948 9  19900556.976
  19150268.179   -21955429.124 7 -17047938.320 9  19150270.605
 94  3 22 22  2 29.9950000  0  6  2 15 26 19  7 27
  19755677.851   -24155099.542 8 -18694457.818 9  19755680.136
  22509632.382    -3149439.785 5  -2335564.877 9  22509638.124
  21962160.749    -7615233.934 6  -5809237.730 9  21962163.550
  20929449.452    -2797468.359 7  -2163135.989 9  20929453.226
  19885240.468   -19497589.193 7 -15041612.389 9  19885243.093
  19152476.327   -21943824.395 7 -17038895.699 9  19152478.765
 94  3 22 22  2 59.9950000  0  6  2 15 26 19  7 27
  19750494.608   -24182338.000 8 -18715682.590 9  19750496.858
  22499805.640    -3201083.324 5  -2375806.529 9  22499812.437
  21948163.968    -7688788.333 6  -5866552.813 9  21948167.144
  20939001.999    -2747270.772 7  -2124021.052 9  20939005.562
  19870007.530   -19577637.910 7 -15103987.963 9  19870010.155
  19154773.233   -21931752.964 7 -17029489.407 9  19154775.565
 94  3 22 22  3 29.9950000  0  6  2 15 26 19  7 27
  19745347.304   -24209387.293 8 -18736759.963 9  19745349.565
  22490063.858    -3252275.197 5  -2415696.278 9  22490069.343
  21934254.312    -7761882.283 6  -5923509.114 9  21934256.913
  20948607.077    -2696795.645 7  -2084689.852 9  20948610.839
  19854856.999   -19657255.014 7 -15166027.219 9  19854859.683
  19157159.288   -21919216.073 7 -17019720.425 9  19157161.644
 94  3 22 22  3 59.9950000  0  6  2 15 26 19  7 27
  19740236.827   -24236242.640 8 -18757686.210 9  19740239.089
  22480408.819    -3303013.251 5  -2455232.374 9  22480414.386
  21920433.413    -7834512.736 6  -5980104.253 9  21920436.519
  20958269.679    -2646021.120 7  -2045125.349 9  20958273.511
  19839788.202   -19736441.773 7 -15227731.140 9  19839790.862
  19159632.812   -21906218.657 7 -17009592.593 9  19159635.073
 94  3 22 22  4 29.9950000  0  6  2 15 26 19  7 27
  19735160.999   -24262916.337 8 -18778470.914 9  19735163.343
  22470839.421    -3353300.585 5  -2494417.261 9  22470845.562
  21906697.890    -7906691.914 6  -6036347.764 9  21906700.878
  20967989.687    -2594939.431 7  -2005321.510 9  20967993.624
  19824802.898   -19815189.540 7 -15289092.995 9  19824805.710
  19162188.741   -21892787.422 7 -16999126.721 9  19162190.980
 94  3 22 22  4 59.9950000  0  6  2 15 26 19  7 27
  19730117.577   -24289420.082 8 -18799123.182 9  19730119.944
  22461356.968    -3403132.689 5  -2533247.439 9  22461362.194
  21893049.382    -7978417.312 6  -6092237.661 9  21893052.487
  20977768.976    -2543548.479 7  -1965276.678 9  20977772.620
  19809901.944   -19893493.216 7 -15350108.797 9  19809904.792
  19164825.257   -21878932.827 7 -16988330.950 9  19164827.589
 94  3 22 22  5 29.9950000  0  6  2 15 26 19  7 27
  19725105.405   -24315759.967 8 -18819647.773 9  19725107.644
  22451961.624    -3452508.838 6  -2571722.329 9  22451967.120
  21879484.921    -8049697.867 6  -6147780.950 9  21879487.745
  20987610.030    -2491834.931 7  -1924980.477 9  20987613.394
  19795085.538   -19971354.945 7 -15410780.231 9  19795088.351
  19167540.202   -21864666.594 7 -16977214.429 9  19167542.558
 94  3 22 22  5 59.9950000  0  6  2 15 26 19  7 27
  19720122.585   -24341943.518 8 -18840050.542 9  19720124.812
  22442651.515    -3501428.790 5  -2609841.717 9  22442656.776
  21866005.288    -8120533.320 6  -6202977.386 9  21866008.593
  20997508.616    -2439818.894 7  -1884448.562 9  20997512.437
  19780350.405   -20048788.612 7 -15471118.108 9  19780353.241
  19170333.608   -21849985.950 7 -16965774.991 9  19170335.882
 94  3 22 22  6 29.9950000  0  6  2 15 26 19  7 27
  19715171.983   -24367960.693 8 -18860323.662 9  19715174.151
  22433430.671    -3549887.563 6  -2647601.760 9  22433435.511
  21852615.624    -8190897.766 6  -6257806.824 9  21852618.800
  21007460.265    -2387522.221 7  -1843697.982 9  21007463.886
  19765698.179   -20125786.710 7 -15531116.581 9  19765701.132
  19173207.030   -21834886.606 7 -16954009.289 9  19173209.292
 94  3 22 22  6 59.9950000  0  6  2 15 26 19  7 27
  19710253.726   -24393805.170 8 -18880462.213 9  19710255.905
  22424298.608    -3597877.728 6  -2684996.660 9  22424303.413
  21839318.390    -8260773.554 6  -6312255.464 9  21839321.413
  21017464.038    -2334953.122 7  -1802735.116 9  21017467.812
  19751128.983   -20202347.257 7 -15590774.105 9  19751131.808
  19176162.921   -21819352.289 7 -16941904.642 9  19176165.136
 94  3 22 22  7 29.9950000  0  6  2 15 26 19  7 27
  19705369.968   -24419469.756 8 -18900460.596 9  19705372.054
  22415256.405    -3645394.463 6  -2722022.641 9  22415261.538
  21826114.726    -8330161.969 6  -6366324.357 9  21826117.456
  21027520.132    -2282108.450 7  -1761557.517 9  21027523.788
  19736644.140   -20278466.314 7 -15650087.614 9  19736647.151
  19179204.366   -21803370.916 7 -16929451.646 9  19179206.628
 94  3 22 22  7 59.9950000  0  6  2 15 26 19  7 27
  19700518.991   -24444961.878 8 -18920324.592 9  19700521.089
  22406303.218    -3692442.148 6  -2758683.114 9  22406307.730
  21813003.866    -8399059.072 6  -6420010.392 9  21813006.913
  21037626.694    -2228996.095 6  -1720171.339 9  21037630.608
  19722242.179   -20354148.579 7 -15709060.766 9  19722245.038
  19182331.593   -21786936.962 7 -16916645.987 9  19182333.901
 94  3 22 22  8 29.9950000  0  6  2 15 26 19  7 27
  19695699.640   -24470287.252 8 -18940058.647 9  19695701.960
  22397440.538    -3739015.740 6  -2794974.184 9  22397445.249
  21799985.155    -8467471.051 6  -6473318.405 9  21799988.507
  21047789.116    -2175592.685 6  -1678558.359 9  21047792.937
  19707925.569   -20429382.660 7 -15767684.685 9  19707928.511
  19185544.694   -21770049.987 7 -16903487.326 9  19185547.108
 94  3 22 22  8 59.9950000  0  6  2 15 26 19  7 27
  19690910.663   -24495452.774 8 -18959668.145 9  19690912.972
  22388668.929    -3785110.851 6  -2830892.422 9  22388674.273
  21787055.741    -8535418.047 6  -6526264.088 9  21787058.917
  21058010.046    -2121882.750 6  -1636706.529 9  21058013.690
  19693694.616   -20504168.769 7 -15825959.533 9  19693697.394
  19188847.093   -21752695.831 7 -16889964.626 9  19188849.507
 94  3 22 22  9 29.9950000  0  6  2 15 26 19  7 27
  19686152.374   -24520459.252 8 -18979153.711 9  19686154.694
  22379988.569    -3830727.087 6  -2866437.497 9  22379992.812
  21774213.312    -8602905.117 6  -6578851.404 9  21774216.230
  21068290.273    -2067858.758 6  -1594609.980 9  21068294.069
  19679548.108   -20578507.269 7 -15883885.600 9  19679550.839
  19192237.163   -21734882.313 7 -16876083.983 9  19192239.694
 94  3 22 22  9 59.9950000  0  6  2 15 26 19  7 27
  19681423.554   -24545308.266 8 -18998516.581 9  19681425.851
  22371398.483    -3875869.110 6  -2901613.075 9  22371403.581
  21761458.726    -8669931.638 6  -6631079.834 9  21761461.655
  21078629.554    -2013528.251 6  -1552274.580 9  21078633.515
  19665485.710   -20652405.073 7 -15941468.263 9  19665488.323
  19195712.866   -21716617.607 7 -16861851.766 9  19195715.304
 94  3 22 22 10 29.9950000  0  6  2 15 26 19  7 27
  19676727.429   -24569986.928 8 -19017746.709 9  19676729.655
  22362900.187    -3920527.082 6  -2936411.449 9  22362904.968
  21748791.655    -8736495.174 6  -6682947.493 9  21748794.491
  21089027.023    -1958887.991 6  -1509697.819 9  21089030.831
  19651511.976   -20725839.189 7 -15998689.617 9  19651514.589
  19199275.296   -21697898.805 7 -16847265.704 9  19199277.640
 94  3 22 22 10 59.9950000  0  6  2 15 26 19  7 27
  19672064.530   -24594490.404 8 -19036840.330 9  19672066.769
  22354493.054    -3964705.855 6  -2970836.424 9  22354498.433
  21736213.140    -8802595.595 6  -6734454.285 9  21736216.034
  21099480.796    -1903952.305 6  -1466890.859 9  21099484.733
  19637624.671   -20798816.408 7 -16055554.944 9  19637627.437
  19202922.116   -21678734.385 7 -16832332.415 9  19202924.519
 94  3 22 22 11 29.9950000  0  6  2 15 26 19  7 27
  19667435.913   -24618814.539 8 -19055794.205 9  19667438.069
  22346178.921    -4008397.097 6  -3004881.496 9  22346184.323
  21723728.343    -8868206.059 6  -6785579.300 9  21723731.097
  21109992.851    -1848711.339 6  -1423846.012 9  21109996.507
  19623827.085   -20871323.268 7 -16112053.760 9  19623829.640
  19206652.593   -21659130.220 7 -16817056.469 9  19206654.796
 94  3 22 22 11 59.9950000  0  6  2 15 26 19  7 27
  19662839.483   -24642968.972 8 -19074615.852 9  19662841.733
  22337956.898    -4051601.266 6  -3038547.034 9  22337961.538
  21711335.101    -8933329.281 6  -6836324.647 9  21711338.136
  21120561.562    -1793174.541 6  -1380570.658 9  21120565.640
  19610120.804   -20943349.823 7 -16168178.314 9  19610123.417
  19210467.898   -21639081.543 8 -16801434.137 9  19210470.112
 94  3 22 22 12 29.9950000  0  6  2 15 26 19  7 27
  19658272.671   -24666966.637 8 -19093315.336 9  19658275.097
  22329827.405    -4094323.161 6  -3071836.778 9  22329832.444
  21699032.890    -8997978.287 6  -6886700.469 9  21699036.065
  21131183.546    -1737354.383 6  -1337074.505 9  21131187.601
  19596505.983   -21014894.678 7 -16223927.513 9  19596508.585
  19214363.788   -21618607.714 7 -16785480.526 9  19214366.015
 94  3 22 22 12 59.9950000  0  6  2 15 26 19  7 27
  19653736.491   -24690805.225 8 -19111890.868 9  19653738.894
  22321791.327    -4136551.532 6  -3104741.964 9  22321796.366
  21686823.015    -9062140.085 6  -6936696.653 9  21686826.237
  21141861.671    -1681240.783 6  -1293349.699 9  21141865.749
  19582982.835   -21085959.404 7 -16279302.593 9  19582985.413
  19218342.077   -21597701.699 7 -16769190.148 9  19218344.315
 94  3 22 22 13 29.9950000  0  6  2 15 26 19  7 27
  19649229.085   -24714491.656 8 -19130347.838 9  19649231.405
  22313849.319    -4178289.512 6  -3137265.033 9  22313854.523
  21674706.398    -9125815.824 6  -6986314.091 9  21674709.819
  21152593.788    -1624842.822 6  -1249403.309 9  21152597.960
  19569550.491   -21156547.473 7 -16334306.246 9  19569553.151
  19222403.163   -21576360.734 8 -16752560.853 9  19222405.542
 94  3 22 22 13 59.9950000  0  6  2 15 26 19  7 27
  19644753.679   -24738010.375 8 -19148674.123 9  19644756.046
  22306000.858    -4219532.851 6  -3169402.659 9  22306006.097
  21662680.983    -9189008.823 6  -7035555.375 9  21662683.972
  21163377.882    -1568172.078 6  -1205244.360 9  21163381.960
  19556208.515   -21226659.228 7 -16388938.743 9  19556211.210
  19226548.515   -21554577.587 8 -16735586.996 9  19226550.882
 94  3 22 22 14 29.9950000  0  6  2 15 26 19  7 27
  19640311.265   -24761356.408 8 -19166865.852 9  19640313.503
  22298246.546    -4260278.307 6  -3201152.333 9  22298251.632
  21650749.398    -9251710.859 6  -7084414.089 9  21650752.456
  21174214.530    -1511226.715 6  -1160871.436 9  21174218.280
  19542954.929   -21296307.593 7 -16443210.166 9  19542957.624
  19230778.343   -21532348.619 7 -16718265.757 9  19230780.827
 94  3 22 22 14 59.9950000  0  6  2 15 26 19  7 27
  19635902.882   -24784522.312 8 -19184917.214 9  19635905.085
  22290590.038    -4300517.416 6  -3232507.453 9  22290595.148
  21638912.921    -9313909.595 6  -7132880.605 9  21638916.190
  21185103.171    -1454007.215 6  -1116284.895 9  21185107.120
  19529788.741   -21365496.830 7 -16497123.821 9  19529791.425
  19235097.812   -21509650.422 7 -16700578.880 9  19235100.062
 94  3 22 22 15 29.9950000  0  6  2 15 26 19  7 27
  19631529.780   -24807502.996 8 -19202824.250 9  19631532.183
  22283029.819    -4340244.828 6  -3263463.855 9  22283034.800
  21627172.851    -9375606.594 6  -7180956.167 9  21627175.897
  21196043.546    -1396516.031 6  -1071486.650 9  21196047.554
  19516711.171   -21434218.267 7 -16550672.959 9  19516713.796
  19239505.858   -21486484.949 7 -16682527.893 9  19239508.237
 94  3 22 22 15 59.9950000  0  6  2 15 26 19  7 27
  19627188.733   -24830315.651 8 -19220600.347 9  19627191.030
  22275566.202    -4379466.755 6  -3294026.381 9  22275570.890
  21615525.741    -9436813.210 6  -7228649.631 9  21615528.741
  21207034.374    -1338758.681 6  -1026481.005 9  21207038.405
  19503722.155   -21502476.108 7 -16603860.856 9  19503724.851
  19244000.562   -21462865.593 7 -16664123.233 9  19244003.069
 94  3 22 22 16 29.9950000  0  6  2 15 26 19  7 27
  19622878.304   -24852965.990 8 -19238249.967 9  19622880.636
  22268199.085    -4418177.973 6  -3324190.941 9  22268204.417
  21603971.515    -9497529.601 6  -7275961.075 9  21603974.550
  21218078.726    -1280719.540 6   -981255.784 9  21218082.628
  19490822.038   -21570267.142 7 -16656685.005 9  19490824.651
  19248581.562   -21438792.096 7 -16645364.702 9  19248584.116
 94  3 22 22 16 59.9950000  0  6  2 15 26 19  7 27
  19618599.210   -24875454.258 8 -19255773.303 9  19618601.425
  22260930.608    -4456377.320 6  -3353956.656 9  22260935.718
  21592510.272    -9557756.955 6  -7322891.474 9  21592513.530
  21229179.741    -1222384.496 6   -935799.993 9  21229183.878
  19478010.976   -21637588.269 7 -16709142.996 9  19478013.554
  19253247.374   -21414273.512 7 -16626259.350 9  19253249.940
 94  3 22 22 17 29.9950000  0  6  2 15 26 19  7 27
  19614351.413   -24897776.297 8 -19273167.102 9  19614353.628
  22253759.241    -4494064.082 6  -3383322.936 9  22253763.940
  21581143.374    -9617491.403 6  -7369437.769 9  21581146.819
  21240342.085    -1163725.802 6   -890092.006 9  21240346.105
  19465291.694   -21704430.206 7 -16761227.589 9  19465294.308
  19257997.413   -21389312.981 7 -16606809.614 9  19257999.944
 94  3 22 22 17 59.9950000  0  6  2 15 26 19  7 27
  19610136.327   -24919927.677 8 -19290427.918 9  19610138.413
  22246684.054    -4531244.106 6  -3412294.359 9  22246688.413
  21569870.694    -9676728.631 6  -7415596.633 9  21569873.870
  21251566.351    -1104742.348 6   -844130.971 9  21251570.171
  19452662.437   -21770797.306 7 -16812942.184 9  19452664.980
  19262832.085   -21363905.418 7 -16587011.549 9  19262834.769
 94  3 22 22 18 29.9950000  0  6  2 15 26 19  7 27
  19605956.726   -24941890.440 8 -19307541.759 9  19605958.858
  22239706.960    -4567908.667 6  -3440864.126 9  22239711.671
  21558695.171    -9735458.274 6  -7461359.978 9  21558698.429
  21262852.335    -1045434.425 6   -797917.096 9  21262856.636
  19440124.179   -21836686.208 7 -16864284.155 9  19440126.640
  19267752.843   -21338047.802 7 -16566862.792 9  19267755.491
 94  3 22 22 18 59.9950000  0  6  2 15 26 19  7 27
  19601812.265   -24963669.066 8 -19324512.121 9  19601814.515
  22232828.288    -4604058.111 6  -3469032.510 9  22232832.823
  21547616.819    -9793674.813 6  -7506723.499 9  21547619.901
  21274197.226     -985820.272 6   -751464.612 9  21274201.351
  19427675.022   -21902105.801 7 -16915260.434 9  19427677.612
  19272759.390   -21311736.808 7 -16546360.760 9  19272762.015
 94  3 22 22 19 29.9950000  0  6  2 15 26 19  7 27
  19597704.007   -24985259.047 8 -19341335.480 9  19597706.362
  22226046.374    -4639694.530 6  -3496801.125 9  22226050.253
  21536635.194    -9851383.568 6  -7551691.345 9  21536638.077
  21285593.429     -925928.955 6   -704796.151 9  21285597.401
  19415315.288   -21967058.119 7 -16965872.603 9  19415317.913
  19277853.140   -21284969.005 7 -16525502.771 9  19277855.823
 94  3 22 22 19 59.9950000  0  6  2 15 26 19  7 27
  19593631.108   -25006662.301 8 -19358013.342 9  19593633.429
  22219363.640    -4674815.898 6  -3524168.395 9  22219367.800
  21525749.991    -9908585.360 6  -7596264.157 9  21525752.780
  21297036.577     -865794.629 6   -657938.332 9  21297040.772
  19403042.554   -22031551.333 7 -17016127.026 9  19403045.085
  19283031.202   -21257758.319 7 -16504299.678 9  19283033.909
 94  3 22 22 20 29.9950000  0  6  2 15 26 19  7 27
  19589587.194   -25027913.004 8 -19374572.333 9  19589589.550
  22212776.866    -4709426.538 6  -3551137.704 9  22212781.401
  21514958.858    -9965292.493 6  -7640451.518 9  21514961.835
  21308524.804     -805427.957 6   -610899.474 9  21308529.280
  19390854.452   -22095601.731 7 -17066036.400 9  19390856.843
  19288291.921   -21230113.474 7 -16482758.283 9  19288294.569
 94  3 22 22 20 59.9950000  0  6  2 15 26 19  7 27
  19585571.210   -25049018.078 8 -19391017.843 9  19585573.355
  22206287.929    -4743528.846 6  -3577710.908 9  22206292.077
  21504259.851   -10021517.119 6  -7684262.913 9  21504262.968
  21320056.913     -744824.279 6   -563675.924 9  21320061.261
  19378751.577   -22159201.684 7 -17115594.779 9  19378754.085
  19293635.687   -21202031.102 7 -16460875.955 9  19293638.382
 94  3 22 22 21 29.9950000  0  6  2 15 26 19  7 27
  19581585.507   -25069963.044 8 -19407338.604 9  19581587.687
  22199896.944    -4777111.906 6  -3603879.493 9  22199900.554
  21493653.483   -10077253.097 6  -7727693.531 9  21493656.694
  21331637.288     -683969.916 6   -516257.035 9  21331641.355
  19366740.312   -22222322.030 7 -17164779.437 9  19366742.843
  19299063.187   -21173511.915 7 -16438653.245 9  19299065.647
 94  3 22 22 21 59.9950000  0  6  2 15 26 19  7 27
  19577626.124   -25090769.720 8 -19423551.601 9  19577628.327
  22193604.499    -4810178.693 6  -3629645.798 9  22193608.624
  21483140.999   -10132496.760 6  -7770740.535 9  21483143.847
  21343265.866     -622860.853 6   -468639.688 9  21343270.003
  19354819.921   -22284963.272 7 -17213590.769 9  19354822.511
  19304571.538   -21144564.990 7 -16416097.232 9  19304574.022
 94  3 22 22 22 29.9950000  0  6  2 15 26 19  7 27
  19573693.272   -25111435.901 8 -19439655.126 9  19573695.523
  22187412.812    -4842715.336 6  -3654999.011 9  22187416.913
  21472725.116   -10187233.364 6  -7813392.422 9  21472727.788
  21354947.140     -561479.898 6   -420810.467 9  21354951.253
  19342995.491   -22347100.732 7 -17262009.545 9  19342998.116
  19310167.093   -21115160.544 7 -16393184.710 9  19310169.483
 94  3 22 22 22 59.9950000  0  6  2 15 26 19  7 27
  19569790.312   -25131946.883 8 -19455637.713 9  19569792.573
  22181320.554    -4874729.521 6  -3679945.111 9  22181325.511
  21462404.718   -10241466.422 6  -7855651.944 9  21462407.706
  21366676.397     -499837.357 6   -372777.421 9  21366680.522
  19331268.132   -22408727.793 7 -17310030.604 9  19331270.757
  19315845.444   -21085320.937 7 -16369933.102 9  19315847.800
 94  3 22 22 23 29.9950000  0  6  2 15 26 19  7 27
  19565915.413   -25152308.874 8 -19471504.207 9  19565917.769
  22175328.585    -4906216.944 6  -3704480.745 9  22175333.214
  21452183.983   -10295176.560 6  -7897503.995 9  21452186.679
  21378458.312     -437927.156 6   -324535.807 9  21378462.753
  19319635.616   -22469857.026 7 -17357663.749 9  19319638.323
  19321605.562   -21055051.251 7 -16346346.368 9  19321607.905
 94  3 22 22 23 59.9950000  0  6  2 15 26 19  7 27
  19562068.601   -25172523.920 8 -19487256.202 9  19562070.851
  22169438.366    -4937172.219 6  -3728601.720 9  22169443.511
  21442064.280   -10348359.697 6  -7938945.399 9  21442067.163
  21390292.421     -375736.796 6   -276075.887 9  21390296.593
  19308096.132   -22530497.354 7 -17404915.928 9  19308098.745
  19327450.077   -21024338.009 7 -16322414.009 9  19327452.421
 94  3 22 22 24 29.9950000  0  6  2 15 26 19  7 27
  19558249.905   -25192591.690 8 -19502893.434 9  19558252.085
  22163646.593    -4967604.456 6  -3752315.119 9  22163651.210
  21432038.569   -10401042.818 6  -7979997.179 9  21432041.429
  21402179.687     -313270.760 6   -227401.158 9  21402183.952
  19296647.983   -22590656.602 7 -17451793.239 9  19296650.620
  19333377.726   -20993188.985 7 -16298142.073 9  19333379.987
 94  3 22 22 24 59.9950000  0  6  2 15 26 19  7 27
  19554461.366   -25212501.024 8 -19518407.210 9  19554463.487
  22157954.515    -4997514.335 5  -3775621.508 9  22157960.503
  21422108.421   -10453226.765 6  -8020660.000 9  21422111.315
  21414122.343     -250510.585 6   -178497.224 9  21414126.550
  19285288.085   -22650351.228 7 -17498308.509 9  19285290.757
  19339386.022   -20961614.459 7 -16273538.579 9  19339388.202
 94  3 22 22 25 29.9950000  0  6  2 15 26 19  7 27
  19550705.546   -25232237.032 8 -19533785.924 9  19550707.690
  22152365.124    -5026886.554 5  -3798508.924 9  22152370.456
  21412276.421   -10504893.114 6  -8060919.493 9  21412279.292
  21426124.093     -187442.136 6   -129353.090 9  21426128.651
  19274017.405   -22709580.498 7 -17544461.164 9  19274020.054
  19345481.272   -20929586.001 7 -16248581.374 9  19345483.569
 94  3 22 22 25 59.9950000  0  6  2 15 26 19  7 27
  19546984.858   -25251790.098 8 -19549022.087 9  19546987.249
  22146877.741    -5055725.141 6  -3820980.534 9  22146882.886
  21402541.319   -10556052.732 6  -8100784.134 9  21402544.085
  21438181.702     -124078.342 6    -79978.810 9  21438186.167
  19262837.468   -22768331.360 7 -17590241.034 9  19262840.093
  19351664.702   -20897091.159 8 -16223260.750 9  19351666.788
 94  3 22 22 26 29.9950000  0  6  2 15 26 19  7 27
  19543302.382   -25271141.819 8 -19564101.356 9  19543304.761
  22141493.343    -5084021.933 5  -3843029.983 9  22141498.569
  21392905.421   -10606689.453 6  -8140241.323 9  21392908.421
  21450296.226      -60416.204 6    -30372.056 9  21450300.304
  19251750.257   -22826594.461 7 -17635640.832 9  19251752.917
  19357938.538   -20864120.890 7 -16197569.665 9  19357940.776
 94  3 22 22 26 59.9950000  0  6  2 15 26 19  7 27
  19539658.077   -25290291.042 8 -19579022.833 9  19539660.608
  22136210.062    -5111782.279 5  -3864661.404 9  22136215.241
  21383371.765   -10656789.354 6  -8179280.203 9  21383374.823
  21462465.390        3533.214 6     19458.548 9  21462469.983
  19240754.616   -22884376.888 7 -17680666.077 9  19240757.323
  19364301.468   -20830685.358 7 -16171516.042 9  19364303.776
 94  3 22 22 27 29.9950000  0  6  2 15 26 19  7 27
  19536049.257   -25309257.303 8 -19593801.742 9  19536051.671
  22131028.523    -5139011.514 5  -3885878.964 9  22131034.429
  21373936.741   -10706370.697 6  -8217915.018 9  21373939.812
  21474683.835       67739.047 6     69488.960 9  21474688.593
  19229851.562   -22941673.351 7 -17725312.651 9  19229854.257
  19370751.929   -20796786.892 7 -16145101.690 9  19370754.296
 94  3 22 22 27 59.9950000  0  6  2 15 26 19  7 27
  19532474.483   -25328042.527 8 -19608439.584 9  19532476.780
  22125951.296    -5165692.230 5  -3906669.115 9  22125956.862
  21364600.679   -10755429.932 6  -8256142.991 9  21364603.983
  21486951.757      132206.704 6    119723.379 9  21486956.526
  19219044.155   -22998466.046 7 -17769566.676 9  19219046.733
  19377293.522   -20762411.544 7 -16118315.737 9  19377295.913
 94  3 22 22 28 29.9950000  0  6  2 15 26 19  7 27
  19528928.663   -25346676.019 8 -19622959.194 9  19528931.042
  22120977.038    -5191834.807 6  -3927039.944 9  22120982.429
  21355362.538   -10803976.547 6  -8293971.531 9  21355365.925
  21499265.812      196918.394 6    170147.963 9  21499270.394
  19208329.718   -23054770.984 7 -17813440.631 9  19208332.284
  19383918.804   -20727595.500 7 -16091186.392 9  19383921.206
 94  3 22 22 28 59.9950000  0  6  2 15 26 19  7 27
  19525408.148   -25365176.031 8 -19637374.790 9  19525410.503
  22116104.210    -5217438.704 6  -3946991.006 9  22116109.648
  21346219.257   -10852024.323 6  -8331411.358 9  21346222.632
  21511624.608      261865.546 6    220756.002 9  21511629.601
  19197709.632   -23110580.239 7 -17856928.344 9  19197712.140
  19390625.093   -20692352.706 7 -16063724.517 9  19390627.601
 94  3 22 22 29 29.9950000  0  6  2 15 26 19  7 27
  19521910.171   -25383558.268 8 -19651698.615 9  19521912.690
  22111334.882    -5242505.009 6  -3966523.190 9  22111339.569
  21337170.351   -10899579.100 6  -8368467.032 9  21337173.105
  21524029.038      327049.600 6    271548.660 9  21524034.347
  19187184.538   -23165891.083 7 -17900027.685 9  19187186.847
  19397413.819   -20656678.283 7 -16035926.313 9  19397416.526
 94  3 22 22 29 59.9950000  0  6  2 15 26 19  7 27
  19518436.155   -25401812.837 8 -19665922.961 9  19518438.546
  22106667.562    -5267029.965 6  -3985633.525 9  22106672.296
  21328220.046   -10946612.158 6  -8405116.173 9  21328223.128
  21536481.335      392486.368 6    322538.230 9  21536486.140
  19176754.976   -23220698.457 7 -17942734.714 9  19176757.390
  19404285.241   -20620568.457 7 -16007788.835 9  19404287.761
 94  3 22 22 30 29.9950000  0  6  2 15 26 19  7 27
  19514989.632   -25419926.556 8 -19680037.554 9  19514992.093
  22102103.226    -5291014.490 6  -4004322.743 9  22102108.499
  21319373.155   -10993102.541 6  -8441342.450 9  21319376.612
  21548983.437      458185.169 6    373731.987 9  21548988.558
  19166420.882   -23275004.688 7 -17985051.240 9  19166423.308
  19411237.624   -20584031.520 7 -15979318.539 9  19411240.237
 94  3 22 22 30 59.9950000  0  6  2 15 26 19  7 27
  19511571.640   -25437888.095 8 -19694033.567 9  19511574.030
  22097641.929    -5314461.864 6  -4022593.418 9  22097646.909
  21310629.944   -11039049.773 6  -8477145.480 9  21310633.190
  21561537.796      524159.067 6    425140.105 9  21561542.870
  19156179.749   -23328821.805 7 -18026986.635 9  19156182.163
  19418273.866   -20547057.731 7 -15950507.844 9  19418276.573
 94  3 22 22 31 29.9950000  0  6  2 15 26 19  7 27
  19508185.866   -25455680.312 8 -19707897.644 9  19508188.151
  22093283.140    -5337367.048 6  -4040441.618 9  22093287.991
  21301994.288   -11084428.726 6  -8512505.704 9  21301997.253
  21574146.202      590414.532 6    476767.619 9  21574151.335
  19146028.226   -23382169.392 7 -18068556.163 9  19146030.780
  19425394.866   -20509637.030 7 -15921348.910 9  19425397.550
 94  3 22 22 31 59.9950000  0  6  2 15 26 19  7 27
  19504834.827   -25473290.227 8 -19721619.666 9  19504837.159
  22089029.343    -5359721.297 6  -4057860.502 9  22089034.815
  21293467.124   -11129240.654 6  -8547424.078 9  21293470.007
  21586806.483      656941.984 6    528607.070 9  21586811.241
  19135962.898   -23435062.055 7 -18109771.204 9  19135965.499
  19432598.148   -20471783.629 7 -15891852.805 9  19432600.855
 94  3 22 22 32 29.9950000  0  6  2 15 26 19  7 27
  19501518.437   -25490717.654 8 -19735199.486 9  19501520.944
  22084880.116    -5381526.103 6  -4074851.256 9  22084885.038
  21285041.960   -11173513.560 6  -8581922.443 9  21285044.808
  21599517.335      723735.956 6    580654.194 9  21599521.940
  19125984.608   -23487497.785 7 -18150630.194 9  19125987.105
  19439880.577   -20433511.970 7 -15862030.787 9  19439883.308
 94  3 22 22 32 59.9950000  0  6  2 15 26 19  7 27
  19498237.710   -25507958.253 8 -19748633.726 9  19498240.206
  22080837.069    -5402772.911 6  -4091407.222 9  22080841.722
  21276715.655   -11217268.379 6  -8616017.107 9  21276718.948
  21612276.374      790787.668 6    632902.172 9  21612281.425
  19116096.335   -23539461.002 7 -18191120.994 9  19116098.749
  19447245.671   -20394810.606 7 -15831873.932 9  19447248.331
 94  3 22 22 33 29.9950000  0  6  2 15 26 19  7 27
  19494990.054   -25525024.541 8 -19761932.139 9  19494992.398
  22076898.288    -5423469.765 6  -4107534.611 9  22076903.175
  21268486.437   -11260515.051 6  -8649715.811 9  21268489.554
  21625078.812      858066.172 6    685326.854 9  21625083.605
  19106298.140   -23590952.654 7 -18231244.336 9  19106300.554
  19454689.663   -20355691.879 7 -15801391.854 9  19454692.194
 94  3 22 22 33 59.9950000  0  6  2 15 26 19  7 27
  19491774.663   -25541921.777 8 -19775098.822 9  19491777.159
  22073065.593    -5443614.651 6  -4123231.927 9  22073069.882
  21260351.148   -11303264.724 6  -8683027.233 9  21260354.405
  21637925.968      925576.329 6    737932.051 9  21637930.878
  19096594.351   -23641946.518 8 -18270979.796 9  19096596.636
  19462215.562   -20316142.854 7 -15770574.475 9  19462218.058
 94  3 22 22 34 29.9950000  0  6  2 15 26 19  7 27
  19488590.937   -25558652.340 8 -19788135.630 9  19488593.163
  22069336.194    -5463211.498 6  -4138502.190 9  22069341.011
  21252312.694   -11345507.546 6  -8715943.721 9  21252315.718
  21650819.288      993329.381 6    790726.511 9  21650824.351
  19086987.780   -23692428.220 7 -18310316.164 9  19086990.124
  19469826.468   -20276148.514 7 -15739410.100 9  19469829.058
 94  3 22 22 34 59.9950000  0  6  2 15 26 19  7 27
  19485438.452   -25575218.224 8 -19801044.119 9  19485440.866
  22065713.155    -5482253.670 6  -4153340.235 9  22065718.124
  21244377.030   -11387209.069 6  -8748438.402 9  21244380.077
  21663757.655     1061321.032 6    843706.889 9  21663762.788
  19077478.390   -23742400.874 7 -18349255.880 9  19077480.769
  19477523.374   -20235700.934 7 -15707892.548 9  19477525.987
 94  3 22 22 35 29.9950000  0  6  2 15 26 19  7 27
  19482316.523   -25591625.008 8 -19813828.632 9  19482319.007
  22062193.577    -5500746.375 6  -4167750.124 9  22062198.171
  21236547.960   -11428354.220 6  -8780499.546 9  21236550.913
  21676743.226     1129561.394 6    896881.068 9  21676748.335
  19068063.765   -23791874.480 7 -18387806.721 9  19068066.226
  19485307.601   -20194795.295 7 -15676018.069 9  19485310.167
 94  3 22 22 35 59.9950000  0  6  2 15 26 19  7 27
  19479225.319   -25607868.899 8 -19826486.223 9  19479227.839
  22058780.288    -5518682.177 6  -4181726.067 9  22058784.706
  21228822.585   -11468948.512 6  -8812131.461 9  21228825.761
  21689779.358     1198066.928 6    950261.887 9  21689784.374
  19058745.468   -23840842.387 7 -18425963.515 9  19058748.105
  19493179.569   -20153427.715 7 -15643783.637 9  19493182.218
 94  3 22 22 36 29.9950000  0  6  2 15 26 19  7 27
  19476165.726   -25623947.574 8 -19839015.072 9  19476168.187
  22055473.554    -5536062.927 6  -4195269.489 9  22055478.230
  21221200.460   -11509002.611 6  -8843342.449 9  21221203.378
  21702864.366     1266828.297 6   1003842.042 9  21702869.698
  19049522.991   -23889306.089 7 -18463727.422 9  19049525.523
  19501135.710   -20111618.291 7 -15611204.915 9  19501138.230
 94  3 22 22 36 59.9950000  0  6  2 15 26 19  7 27
  19473137.593   -25639859.789 8 -19851414.200 9  19473140.077
  22052271.429    -5552887.120 6  -4208379.226 9  22052275.706
  21213678.546   -11548532.530 6  -8874144.984 9  21213681.347
  21715998.249     1335846.585 6   1057622.395 9  21716004.694
  19040397.679   -23937260.954 7 -18501094.831 9  19040400.233
  19509177.069   -20069360.114 7 -15578276.514 9  19509179.565
 94  3 22 22 37 29.9950000  0  6  2 15 26 19  7 27
  19470143.179   -25655596.046 8 -19863676.224 9  19470145.534
  22049177.054    -5569151.623 6  -4221052.861 9  22049181.273
  21206251.476   -11587562.882 6  -8904558.237 9  21206254.687
  21729184.780     1405141.805 6   1111618.523 9  21729190.546
  19031368.843   -23984707.118 7 -18538065.851 9  19031371.315
  19517305.897   -20026644.099 7 -15544991.354 9  19517308.452
 94  3 22 22 37 59.9950000  0  6  2 15 26 19  7 27
  19467179.624   -25671169.144 8 -19875811.115 9  19467181.839
  22046187.843    -5584858.753 6
  21198918.054   -11626099.345 6  -8934586.648 9  21198920.972
  21742420.905     1474697.708 6   1165817.789 9  21742426.097
  19022435.272   -24031653.390 7 -18574647.348 9  19022437.675
  19525516.444   -19983498.808 7 -15511371.693 9  19525519.163
 94  3 22 22 38 29.9950000  0  6  2 15 26 19  7 27
  19464250.624   -25686561.744 8 -19887805.350 9  19464252.944
  22043307.390    -5599994.477 6
  21191684.507   -11664111.875 6  -8964206.806 9  21191687.249
  21755708.577     1544520.462 6   1220224.998 9  21755713.687
  19013598.288   -24078094.695 7 -18610835.358 9  19013600.655
  19533810.593   -19939909.553 7 -15477406.089 9  19533813.065
 94  3 22 22 38 59.9950000  0  6  2 15 26 19  7 27
  19461353.335   -25701786.933 8 -19899669.145 9  19461355.737
  22040534.616    -5614567.016 6     -9048.42019  22040539.081
  21184551.999   -11701594.020 6  -8993413.677 9  21184554.882
  21769045.296     1614608.523 6   1274838.925 9  21769050.159
  19004850.437   -24124065.296 8 -18646656.586 9  19004852.804
  19542188.476   -19895883.178 7 -15443099.877 9  19542191.241
 94  3 22 22 39 29.9950000  0  6  2 15 26 19  7 27
  19458484.937   -25716859.798 8 -19911414.241 9  19458487.538
  22037868.812    -5628575.744 6    -19964.293 9  22037873.534
  21177523.585   -11738529.255 6  -9022194.384 9  21177526.222
  21782429.483     1684939.564 6   1329642.202 9  21782434.452
  18996189.952   -24169573.839 7 -18682117.773 9  18996192.425
  19550646.921   -19851436.085 7 -15408465.825 9  19550649.663
 94  3 22 22 39 59.9950000  0  6  2 15 26 19  7 27
  19455645.390   -25731781.291 8 -19923041.381 9  19455647.909
  22035310.991    -5642019.543 6    -30439.974 9  22035315.796
  21170601.233   -11774905.743 6  -9050539.704 9  21170604.163
  21795857.015     1755501.811 6   1384625.630 9  21795861.948
  18987618.108   -24214617.205 7 -18717216.480 9  18987620.698
  19559184.921   -19806569.470 7 -15373504.879 9  19559187.605
 94  3 22 22 40 29.9950000  0  6  2 15 26 19  7 27
  19452836.085   -25746545.120 8 -19934545.671 9  19452838.546
  22032860.116    -5654894.460 6    -40472.363 9  22032864.827
  21163785.937   -11810720.313 6  -9078447.172 9  21163788.749
  21809332.577     1826315.535 6   1439805.023 9  21809337.030
  18979139.374   -24259174.950 8 -18751936.779 9  18979141.882
  19567806.593   -19761260.473 7 -15338199.214 9  19567809.546
 94  3 22 22 40 59.9950000  0  6  2 15 26 19  7 27
  19450054.827   -25761162.689 8 -19945935.995 9  19450057.253
  22030518.554    -5667202.011 6    -50062.657 9  22030523.405
  21157076.780   -11845974.879 6  -9105918.264 9  21157079.663
  21822855.148     1897380.126 6   1495179.881 9  21822860.210
  18970755.858   -24303230.467 8 -18786265.736 9  18970758.284
  19576511.226   -19715517.033 7 -15302555.034 9  19576514.062
 94  3 22 22 41 29.9950000  0  6  2 15 26 19  7 27
  19447299.765   -25775638.476 8 -19957215.835 9  19447302.062
  22028283.218    -5678946.458 6    -59214.163 9  22028287.823
  21150473.733   -11880675.195 6  -9132957.479 9  21150476.675
  21836424.804     1968684.509 6   1550741.601 9  21836429.456
  18962471.788   -24346763.898 8 -18820187.871 9  18962474.120
  19585297.866   -19669344.457 7 -15266576.450 9  19585300.644
 94  3 22 22 41 59.9950000  0  6  2 15 26 19  7 27
  19444575.077   -25789958.544 8 -19968374.332 9  19444577.456
  22026156.296    -5690124.054 6    -67923.968 9  22026161.206
  21143975.108   -11914824.597 6  -9159567.405 9  21143977.769
  21850043.999     2040253.426 6   1606509.451 9  21850048.991
  18954289.218   -24389763.061 8 -18853693.695 9  18954291.573
  19594166.140   -19622740.876 7 -15230262.024 9  19594169.034
 94  3 22 22 42 29.9950000  0  6  2 15 26 19  7 27
  19441880.312   -25804118.452 8 -19979408.030 9  19441882.702
  22024137.577    -5700732.898 6    -76190.592 9  22024142.077
  21137581.343   -11948424.561 6  -9185749.211 9  21137584.401
  21863710.569     2112074.384 5   1662473.681 9  21863716.230
  18946209.983   -24432220.487 8 -18886777.387 9  18946212.409
  19603115.585   -19575710.647 7 -15193615.149 9  19603118.468
 94  3 22 22 42 59.9950000  0  6  2 15 26 19  7 27
  19439217.304   -25818113.028 8 -19990312.898 9  19439219.601
  22022225.374    -5710779.930 6    -84019.420 9  22022229.944
  21131290.499   -11981484.622 6  -9211510.310 9  21131293.499
  21877420.569     2184124.073 5   1718616.141 9  21877426.019
  18938229.741   -24474155.577 8 -18919454.066 9  18938232.237
  19612143.843   -19528268.702 7 -15156647.456 9  19612146.632
 94  3 22 22 43 29.9940000  0  6  2 15 26 19  7 27
  19436588.908   -25831925.811 8 -20001076.114 9  19436591.381
  22020421.502    -5720258.679 6    -91405.423 9  22020426.061
  21125101.557   -12014007.289 6  -9236852.652 9  21125104.475
  21891176.682     2256406.196 5   1774939.750 9  21891183.092
  18930347.455   -24515577.377 8 -18951730.775 9  18930349.986
  19621253.799   -19480395.286 7 -15119343.543 9  19621256.588
 94  3 22 22 43 59.9940000  0  6  2 15 26 19  7 27
  19433997.072   -25845545.585 8 -20011688.931 9  19433999.439
  22018724.861    -5729174.556 6    -98352.828 9  22018729.666
  21119013.174   -12046001.882 6  -9261783.509 9  21119015.986
  21904972.807     2328915.321 5   1831440.222 9  21904979.510
  18922558.197   -24556510.665 8 -18983626.825 9  18922560.740
  19630446.721   -19432087.109 7 -15081700.863 9  19630449.662
 94  3 22 22 44 29.9940000  0  6  2 15 26 19  7 27
  19431445.190   -25858956.939 8 -20022139.341 9  19431447.557
  22017136.377    -5737520.672 6   -104856.254 9  22017141.463
  21113028.572   -12077452.210 6  -9286290.283 9  21113031.443
  21918815.072     2401647.778 5   1888114.706 9  21918821.764
  18914860.283   -24596963.505 8 -19015148.504 9  18914862.709
  19639725.408   -19383327.572 7 -15043706.474 9  19639728.209
 94  3 22 22 44 59.9940000  0  6  2 15 26 19  7 27
  19428929.049   -25872179.448 8 -20032442.599 9  19428931.498
  22015655.736    -5745304.243 6   -110921.337 9  22015660.154
  21107147.846   -12108357.673 6  -9310372.471 9  21107150.658
  21932699.596     2474608.678 5   1944967.195 9  21932705.408
  18907251.361   -24636949.186 8 -19046306.161 9  18907253.729
  19649089.440   -19334120.751 7 -15005363.546 9  19649092.357
 94  3 22 22 45 29.9940000  0  6  2 15 26 19  7 27
  19426447.830   -25885215.501 8 -20042600.562 9  19426450.279
  22014282.830    -5752518.881 6   -116543.090 9  22014287.951
  21101369.815   -12138718.719 6  -9334030.433 9  21101372.604
  21946627.119     2547799.993 5   2001999.222 9  21946633.330
  18899731.479   -24676466.435 8 -19077098.812 9  18899733.682
  19658539.650   -19284458.248 7 -14966665.548 9  19658542.686
 94  3 22 22 45 59.9940000  0  6  2 15 26 19  7 27
  19423998.354   -25898088.108 8 -20052631.178 9  19424000.897
  22013016.041    -5759174.505 6   -121729.239 9  22013020.752
  21095692.635   -12168551.532 6  -9357276.788 9  21095695.611
  21960596.283     2621205.318 5   2059198.028 9  21960602.553
  18892299.908   -24715519.999 8 -19107530.145 9  18892302.041
  19668070.119   -19234375.377 7 -14927639.986 9  19668073.025
 94  3 22 22 46 29.9940000  0  6  2 15 26 19  7 27
  19421575.588   -25910819.628 8 -20062551.854 9  19421578.025
  22011856.166    -5765268.715 6   -126477.940 9  22011860.748
  21090115.088   -12197862.921 6  -9380116.849 9  21090118.053
  21974605.697     2694828.165 5   2116566.312 9  21974612.424
  18884959.807   -24754091.608 8 -19137585.938 9  18884961.904
  19677677.010   -19183889.289 7 -14888300.238 9  19677680.150
 94  3 22 22 46 59.9940000  0  6  2 15 26 19  7 27
  19419178.752   -25923414.952 8 -20072366.404 9  19419181.096
  22010802.908    -5770802.634 6   -130790.029 9  22010807.326
  21084632.377   -12226674.064 6  -9402567.100 9  21084635.541
  21988657.455     2768668.172 5   2174103.833 9  21988664.397
  18877714.416   -24792167.250 8 -19167255.266 9  18877716.537
  19687357.893   -19133018.652 7 -14848660.842 9  19687360.916
 94  3 22 22 47 29.9940000  0  6  2 15 26 19  7 27
  19416811.940   -25935853.983 8 -20082059.166 9  19416814.377
  22009858.025    -5775767.991 6   -134659.109 9  22009862.502
  21079246.885   -12254977.310 6  -9424621.588 9  21079249.967
  22002752.088     2842734.103 5   2231817.395 9  22002758.229
  18870564.549   -24829739.507 8 -19196532.340 9  18870566.518
  19697110.002   -19081770.630 7 -14808727.385 9  19697113.166
 94  3 22 22 47 59.9940000  0  6  2 15 26 19  7 27
  19414471.697   -25948151.975 8 -20091642.021 9  19414474.217
  22009019.549    -5780175.151 6   -138093.221 9  22009023.897
  21073958.463   -12282768.345 6  -9446276.948 9  21073961.463
  22016887.525     2917018.276 5   2289701.009 9  22016893.936
  18863509.861   -24866811.764 8 -19225419.809 9  18863511.924
  19706929.932   -19030166.787 7 -14768516.658 9  19706932.967
 94  3 22 22 48 29.9940000  0  6  2 15 26 19  7 27
  19412162.244   -25960287.250 8 -20101098.081 9  19412164.822
  22008288.190    -5784017.057 6   -141086.889 9  22008293.311
  21068772.510   -12310020.842 6  -9467512.669 9  21068775.756
  22031066.940     2991531.153 5   2347762.824 9  22031073.561
  18856550.408   -24903384.141 8 -19253917.755 9  18856552.565
  19716823.455   -18978175.083 7 -14728003.702 9  19716826.361
 94  3 22 22 48 59.9940000  0  6  2 15 26 19  7 27
  19409886.104   -25972248.323 8 -20110418.413 9  19409888.775
  22007664.947    -5787293.211 6   -143639.722 9  22007669.846
  21063692.104   -12336718.074 6  -9488315.726 9  21063695.033
  22045289.143     3066267.534 5   2405998.816 9  22045294.861
  18849683.385   -24939471.619 8 -19282037.863 9  18849685.365
  19726795.760   -18925771.325 7 -14687169.661 9  19726798.912
 94  3 22 22 49 29.9940000  0  6  2 15 26 19  7 27
  19407640.807   -25984048.857 8 -20119613.639 9  19407643.315
  22007148.361    -5790004.696 6   -145752.552 9  22007153.061
  21058720.494   -12362844.101 6  -9508673.683 9  21058723.459
  22059552.057     3141217.821 5   2464401.462 9  22059557.705
  18842907.315   -24975080.223 8 -19309784.820 9  18842909.482
  19736849.369   -18872938.798 7 -14646001.518 9  19736852.334
 94  3 22 22 49 59.9940000  0  6  2 15 26 19  7 27
  19405426.432   -25995686.644 8 -20128682.044 9  19405428.822
  22006739.986    -5792149.375 6   -147423.719 9  22006744.604
  21053856.533   -12388404.824 6  -9528591.143 9  21053859.791
  22073855.604     3216384.279 5   2522972.578 9  22073861.979
  18836222.025   -25010208.912 8 -19337157.816 9  18836224.147
  19746988.854   -18819656.547 7 -14604482.943 9  19746991.936
 94  3 22 22 50 29.9940000  0  6  2 15 26 19  7 27
  19403244.400   -26007152.722 8 -20137616.658 9  19403246.768
  22006440.838    -5793723.887 6   -148650.612 9  22006445.854
  21049099.494   -12413402.876 6  -9548070.157 9  21049102.494
  22088203.744     3291778.011 5   2581720.785 9  22088210.471
  18829630.080   -25044852.167 8 -19364152.556 9  18829632.236
  19757215.643   -18765914.801 7 -14562606.318 9  19757218.736
 94  3 22 22 50 59.9940000  0  6  2 15 26 19  7 27
  19401092.135   -26018463.359 8 -20146430.151 9  19401094.549
  22006249.869    -5794726.347 6   -149431.729 9  22006254.568
  21044446.713   -12437852.955 6  -9567122.178 9  21044449.982
  22102594.549     3367405.584 5   2640651.184 9  22102601.479
  18823133.182   -25078993.773 8 -19390756.400 9  18823135.303
  19767527.463   -18711724.662 7 -14520380.300 9  19767530.615
 94  3 22 22 51 29.9940000  0  6  2 15 26 19  7 27
  19398968.455   -26029622.497 8 -20155125.580 9  19398970.881
  22006167.119    -5795161.730 6   -149770.986 9  22006172.229
  21039895.760   -12461769.388 6  -9585758.374 9  21039898.713
  22117030.463     3443268.208 5   2699764.737 9  22117036.006
  18816733.135   -25112626.773 8 -19416963.926 9  18816735.068
  19777922.072   -18657103.164 7 -14477818.164 9  19777925.178
 94  3 22 22 51 59.9940000  0  6  2 15 26 19  7 27
  19396875.643   -26040619.592 8 -20163694.745 9  19396878.150
  22006192.486    -5795027.857 6   -149666.649 9  22006197.619
  21035445.338   -12485156.606 6  -9603982.196 9  21035448.350
  22131511.752     3519367.657 5   2759062.853 9  22131518.596
  18810430.627   -25145745.018 8 -19442770.341 9  18810432.607
  19788395.549   -18602064.722 7 -14434931.129 9  19788398.725
 94  3 22 22 52 29.9940000  0  6  2 15 26 19  7 27
  19394811.525   -26051465.614 8 -20172146.194 9  19394814.127
  22006325.369    -5794329.506 6   -149122.477 9  22006330.725
  21031094.549   -12508017.768 6  -9621796.105 9  21031097.795
  22146035.174     3595684.181 5   2818530.098 9  22146041.854
  18804227.369   -25178342.698 8 -19468171.119 9  18804229.315
  19798946.854   -18546617.405 7 -14391725.498 9  19798950.100
 94  3 22 22 52 59.9940000  0  6  2 15 26 19  7 27
  19392778.916   -26062148.620 8 -20180470.616 9  19392781.412
  22006566.088    -5793060.985 5   -148134.001 9  22006571.713
  21026844.721   -12530355.197 6  -9639201.903 9  21026847.533
  22160596.252     3672207.207 5   2878158.249 9  22160603.084
  18798123.119   -25210421.375 8 -19493167.480 9  18798125.088
  19809576.236   -18490760.437 7 -14348200.655 9  19809579.272
 94  3 22 22 53 29.9940000  0  6  2 15 26 19  7 27
  19390780.471   -26072650.703 8 -20188654.052 9  19390782.955
  22006916.463    -5791224.309 6   -146702.800 9  22006921.584
  21022693.619   -12552165.722 6  -9656197.131 9  21022696.854
  22175194.736     3748919.405 5   2937933.811 9  22175200.947
  18792112.799   -25242005.303 8 -19517778.321 9  18792114.850
  19820282.166   -18434500.385 7 -14304361.725 9  19820285.400
 94  3 22 22 53 59.9940000  0  6  2 15 26 19  7 27
  19388812.604   -26082991.688 8 -20196711.963 9  19388815.076
  22007372.510    -5788825.915 6   -144833.888 9  22007377.397
  21018642.471   -12573456.184 6  -9672787.121 9  21018645.600
  22189827.604     3825812.397 5   2997850.239 9  22189834.826
  18786191.994   -25273120.390 8 -19542023.830 9  18786193.963
  19831063.822   -18377842.091 7 -14260212.471 9  19831067.092
 94  3 22 22 54 29.9940000  0  6  2 15 26 19  7 27
  19386876.479   -26093167.389 8 -20204641.088 9  19386878.904
  22007936.799    -5785862.914 6   -142525.019 9  22007941.404
  21014690.783   -12594223.589 6  -9688969.527 9  21014693.467
  22204493.705     3902888.035 5   3057908.982 9  22204500.490
  18780356.760   -25303785.466 8 -19565918.682 9  18780358.658
  19841922.041   -18320783.494 7 -14215751.298 9  19841925.135
 94  3 22 22 54 59.9940000  0  6  2 15 26 19  7 27
  19384972.096   -26103173.510 8 -20212438.074 9  19384974.498
  22008607.182    -5782339.004 6   -139779.083 9  22008611.963
  21010838.611   -12614465.038 6  -9704742.098 9  21010841.459
  22219195.830     3980144.774 5   3118108.852 9  22219202.982
  18774603.510   -25334018.294 8 -19589476.713 9  18774605.443
  19852853.525   -18263338.382 7 -14170988.944 9  19852856.514
 94  3 22 22 55 29.9940000  0  6  2 15 26 19  7 27
  19383098.908   -26113017.653 8 -20220108.836 9  19383101.416
  22009384.143    -5778254.915 5   -136596.648 9  22009388.537
  21007088.791   -12634172.764 6  -9720098.789 9  21007091.686
  22233933.432     4057590.770 5   3178456.186 9  22233940.350
  18768933.307   -25363815.360 8 -19612695.193 9  18768935.264
  19863858.650   -18205505.392 7 -14125924.339 9  19863861.768
 94  3 22 22 55 59.9940000  0  6  2 15 26 19  7 27
  19381256.275   -26122699.729 8 -20227653.311 9  19381258.725
  22010268.338    -5773606.320 5   -132974.322 9  22010273.647
  21003441.002   -12653342.069 6  -9735035.926 9  21003443.861
  22248709.635     4135240.354 5   3238962.160 9  22248715.834
  18763351.330   -25393148.569 8 -19635552.226 9  18763353.322
  19874939.447   -18147275.567 7 -14080550.533 9  19874942.576
 94  3 22 22 56 29.9940000  0  6  2 15 26 19  7 27
  19379445.807   -26132214.256 8 -20235067.231 9  19379448.244
  22011258.393    -5768405.582 5   -128921.762 9  22011263.361
  20999893.088   -12671986.037 6  -9749563.707 9  20999895.818
  22263520.900     4213075.679 5   3299612.866 9  22263527.451
  18757860.932   -25421999.972 8 -19658033.821 9  18757862.854
  19886093.299   -18088661.813 7 -14034877.545 9  19886096.498
 94  3 22 22 56 59.9940000  0  6  2 15 26 19  7 27
  19377669.416   -26141550.447 8 -20242342.188 9  19377671.748
  22012354.268    -5762647.897 6   -124435.208 9  22012359.365
  20996446.775   -12690096.836 6  -9763676.032 9  20996449.670
  22278370.752     4291112.070 5   3360420.258 9  22278377.385
  18752468.877   -25450334.727 8 -19680112.840 9  18752470.822
  19897322.877   -18029651.419 7 -13988895.488 9  19897326.100
 94  3 22 22 57 29.9940000  0  6  2 15 26 19  7 27
  19375927.002   -26150707.133 8 -20249477.277 9  19375929.322
  22013557.197    -5756322.921 5   -119506.619 9  22013562.225
  20993101.908   -12707673.224 6  -9777371.936 9  20993104.826
  22293264.705     4369378.098 5   3421406.590 9  22293271.186
  18747177.174   -25478143.092 8 -19701781.684 9  18747179.061
  19908629.072   -17970236.710 7 -13942598.377 9  19908632.131
 94  3 22 22 57 59.9940000  0  6  2 15 26 19  7 27
  19374216.721   -26159694.711 8 -20256480.595 9  19374219.182
  22014867.658    -5749439.005 5   -114142.484 9  22014872.451
  20989855.955   -12724731.172 6  -9790663.865 9  20989859.225
  22308199.424     4447858.109 5   3482559.657 9  22308205.822
  18741983.190   -25505438.486 8 -19723050.815 9  18741985.193
  19920010.330   -17910428.343 7 -13895994.521 9  19920013.518
 94  3 22 22 58 29.9940000  0  6  2 15 26 19  7 27
  19372539.119   -26168510.674 8 -20263350.187 9  19372541.615
  22016283.158    -5741996.922 5   -108343.428 9  22016287.506
  20986709.807   -12741263.435 6  -9803546.162 9  20986713.018
  22323171.838     4526541.907 5   3543871.495 9  22323178.494
  18736883.869   -25532235.584 8 -19743931.659 9  18736885.850
  19931464.322   -17850236.666 7 -13849091.983 9  19931467.604
 94  3 22 22 58 59.9940000  0  6  2 15 26 19  7 27
  19370891.697   -26177167.259 8 -20270095.582 9  19370894.123
  22017805.807    -5733998.847 5   -102111.125 9  22017810.318
  20983663.424   -12757273.442 6  -9816021.508 9  20983666.647
  22338185.580     4605430.026 5   3605342.553 9  22338191.744
  18731874.119   -25558562.954 8 -19764446.485 9  18731875.900
  19942991.135   -17789662.715 7 -13801891.566 9  19942994.533
 94  3 22 22 59 29.9940000  0  6  2 15 26 19  7 27
  19369273.533   -26185670.705 8 -20276721.650 9  19369275.877
  22019433.674    -5725442.857 5    -95444.105 9  22019437.693
  20980716.666   -12772757.444 6  -9828086.988 9  20980719.772
  22353233.674     4684508.399 5   3666961.853 9  22353240.850
  18726950.424   -25584436.036 8 -19784607.323 9  18726952.240
  19954592.565   -17728698.320 7 -13754386.910 9  19954595.951
 94  3 22 22 59 59.9940000  0  6  2 15 26 19  7 27
  19367686.947   -26194008.961 8 -20283218.999 9  19367689.232
  22021168.182    -5716325.252 5    -88339.448 9  22021172.682
  20977871.822   -12787707.135 6  -9839736.124 9  20977875.303
  22368314.729     4763763.755 5   3728719.068 9  22368322.315
  18722116.854   -25609837.445 8 -19804400.619 9  18722118.740
  19966271.143   -17667327.296 7 -13706565.397 9  19966274.318
 94  3 22 23  0 29.9940000  0  6  2 15 26 19  7 27
  19366131.025   -26202185.620 8 -20289590.424 9  19366133.346
  22023009.736    -5706651.245 5    -80801.250 9  22023013.662
  20975129.611   -12802118.394 6  -9850965.683 9  20975132.834
  22383430.096     4843193.477 5   3790612.157 9  22383438.619
  18717372.096   -25634770.173 8 -19823828.712 9  18717374.065
  19978026.143   -17605553.891 7 -13658430.343 9  19978029.494
 94  3 22 23  0 59.9940000  0  6  2 15 26 19  7 27
  19364603.408   -26210213.113 8 -20295845.615 9  19364605.611
  22024957.557    -5696416.158 5    -72825.858 9  22024961.565
  20972486.150   -12816009.688 6  -9861790.093 9  20972489.385
  22398580.260     4922804.120 5   3852646.246 9  22398588.162
  18712715.565   -25659239.987 8 -19842896.093 9  18712717.674
  19989857.908   -17543378.022 7 -13609981.684 9  19989861.037
 94  3 22 23  1 29.9940000  0  6  2 15 26 19  7 27
  19363105.354   -26218085.034 8 -20301979.579 9  19363107.709
  22027012.361    -5685617.510 5    -64411.311 9  22027016.650
  20969941.588   -12829382.814 6  -9872210.717 9  20969944.799
  22413762.322     5002585.393 5   3914813.254 9  22413769.885
  18708147.830   -25683243.267 8 -19861599.943 9  18708149.940
  20001761.854   -17480821.967 7 -13561236.779 9  20001765.205
 94  3 22 23  1 59.9940000  0  6  2 15 26 19  7 27
  19361639.525   -26225787.898 8 -20307981.809 9  19361641.834
  22029176.213    -5674247.147 5    -55551.250 9  22029179.799
  20967495.049   -12842238.562 6  -9882228.200 9  20967498.389
  22428977.697     5082548.127 5   3977121.663 9  22428986.115
  18703671.002   -25706768.829 8 -19879931.540 9  18703673.123
  20013736.354   -17417897.484 7 -13512204.784 9  20013739.565
 94  3 22 23  2 29.9940000  0  6  2 15 26 19  7 27
  19360203.854   -26233333.305 8 -20313861.345 9  19360206.361
  22031446.104    -5662317.505 5    -46255.411 9  22031450.240
  20965144.479   -12854591.108 6  -9891853.574 9  20965147.830
  22444228.947     5162687.445 5   4039567.672 9  22444237.131
  18699280.736   -25729840.251 8 -19897909.264 9  18699282.729
  20025776.690   -17354624.503 7 -13462901.235 9  20025780.053
 94  3 22 23  2 59.9940000  0  6  2 15 26 19  7 27
  19358801.010   -26240704.663 8 -20319605.253 9  19358803.459
  22033823.260    -5649828.534 5    -36523.718 9  22033827.455
  20962887.893   -12866447.867 6  -9901092.618 9  20962891.443
  22459513.150     5243006.838 5   4102154.008 9  22459521.463
  18694978.127   -25752451.853 8 -19915528.683 9  18694980.014
  20037884.549   -17290994.434 7 -13413319.441 9  20037888.064
 94  3 22 23  3 29.9940000  0  6  2 15 26 19  7 27
  19357434.041   -26247888.623 8 -20325203.145 9  19357436.373
  22036305.088    -5636785.185 6    -26360.058 9  22036308.768
  20960729.377   -12877792.924 6  -9909932.943 9  20960732.471
  22474831.877     5323505.769 5   4164880.227 9  22474839.486
  18690766.127   -25774585.263 8 -19932775.483 9  18690768.002
  20050064.799   -17226989.942 7 -13363445.890 9  20050068.443
 94  3 22 23  3 59.9940000  0  6  2 15 26 19  7 27
  19356102.025   -26254887.944 8 -20330657.152 9  19356104.416
  22038892.541    -5623186.878 5    -15763.926 9  22038896.397
  20958669.400   -12888616.787 6  -9918367.132 9  20958672.857
  22490188.721     5404203.344 5   4227761.237 9  22490196.764
  18686647.330   -25796230.589 8 -19949641.956 9  18686649.264
  20062321.908   -17162576.533 7 -13313253.709 9  20062325.459
 94  3 22 23  4 29.9940000  0  6  2 15 26 19  7 27
  19354804.838   -26261705.113 8 -20335969.230 9  19354807.205
  22041586.947    -5609031.125 6     -4733.451 9  22041590.873
  20956712.205   -12898904.753 6  -9926383.748 9  20956715.381
  22505582.174     5485098.439 5   4290796.139 9  22505590.697
  18682623.721   -25817374.920 8 -19966118.044 9  18682625.760
  20074659.221   -17097745.268 7 -13262735.916 9  20074662.865
 94  3 22 23  4 59.9940000  0  6  2 15 26 19  7 27
  19353540.260   -26268349.982 8 -20341147.051 9  19353542.686
  22044386.080    -5594319.141 6      6730.464 9  22044389.666
  20954859.502   -12908640.555 6  -9933970.103 9  20954862.619
  22521010.674     5566176.886 5   4353973.950 9  22521018.986
  18678696.682   -25838010.675 8 -19982197.841 9  18678698.604
  20087074.096   -17032505.387 7 -13211899.730 9  20087077.412
 94  3 22 23  5 29.9940000  0  6  2 15 26 19  7 27
  19352301.682   -26274859.184 8 -20346219.157 9  19352304.061
  22047289.924    -5579060.290 6     18620.513 9  22047293.580
  20953111.963   -12917823.682 6  -9941125.816 9  20953115.162
  22536471.143     5647424.108 5   4417283.242 9  22536479.373
  18674864.697   -25858146.466 8 -19997888.052 9  18674866.877
  20099561.283   -16966883.357 7 -13160765.757 9  20099564.670
 94  3 22 23  5 59.9940000  0  6  2 15 26 19  7 27
  19351085.775   -26281247.627 8 -20351197.168 9  19351088.248
  22050295.775    -5563263.929 6     30929.399 9  22050299.561
  20951466.135   -12926471.610 6  -9947864.480 9  20951469.393
  22551962.252     5728824.534 5   4480711.898 9  22551969.990
  18671124.924   -25877800.166 8 -20013202.605 9  18671127.080
  20112117.408   -16900901.496 7 -13109351.406 9  20112120.936
 94  3 22 23  6 29.9940000  0  5  2 15 26  7 27
  19349897.580   -26287491.961 8 -20356062.888 9  19349900.065
  22053406.182    -5546917.953 6     43666.543 9  22053410.354
  20949924.088   -12934575.553 6  -9954179.254 9  20949927.428
  18667478.260   -25896962.615 8 -20028134.369 9  18667480.393
  20124739.979   -16834570.280 7 -13057664.829 9  20124743.846
 94  3 22 23  6 59.9940000  0  5  2 15 26  7 27
  19348736.900   -26293591.817 8 -20360816.028 9  19348739.315
  22056620.229    -5530027.545 6     56827.928 9  22056624.260
  20948481.127   -12942157.502 6  -9960087.290 9  20948484.748
  18663919.025   -25915666.759 8 -20042709.013 9  18663921.193
  20137428.807   -16767889.977 7 -13005706.231 9  20137432.287
 94  3 22 23  7 29.9940000  0  5  2 15 26  7 27
  19347606.900   -26299530.574 8 -20365443.636 9  19347609.326
  22059936.447    -5512596.875 5     70410.280 9  22059940.959
  20947130.455   -12949256.800 6  -9965619.242 9  20947133.631
  18660443.815   -25933929.257 8 -20056939.520 9  18660445.889
  20150186.955   -16700846.911 7 -12953464.966 9  20150190.600
 94  3 22 23  7 59.9940000  0  5  2 15 26  7 27
  19346512.705   -26305281.212 8 -20369924.666 9  19346515.072
  22063355.869    -5494628.750 5     84411.433 9  22063360.135
  20945870.361   -12955877.634 6  -9970778.355 9  20945873.854
  18657048.354   -25951772.262 8 -20070843.155 9  18657050.357
  20163013.471   -16633442.616 7 -12900942.226 9  20163017.244
 94  3 22 23  8 29.9940000  0  5  2 15 26  7 27
  19345455.838   -26310834.683 8 -20374252.061 9  19345458.346
  22066878.932    -5476115.084 6     98837.683 9  22066883.385
  20944705.104   -12962002.429 6  -9975550.951 9  20944708.291
  18653731.791   -25969201.620 8 -20084424.466 9  18653733.654
  20175907.635   -16565684.525 7 -12848143.794 9  20175911.197
 94  3 22 23  8 59.9940000  0  5  2 15 26  7 27
  19344432.775   -26316209.667 8 -20378440.371 9  19344435.318
  22070503.440    -5457070.281 6    113677.779 9  22070507.811
  20943630.424   -12967650.115 6  -9979951.762 9  20943633.869
  18650492.111   -25986226.355 8 -20097690.487 9  18650493.916
  20188866.674   -16497583.731 7 -12795078.323 9  20188870.072
 94  3 22 23  9 29.9940000  0  5  2 15 26  7 27
  19343445.619   -26321397.934 8 -20382483.184 9  19343448.115
  22074229.729    -5437488.534 5    128936.301 9  22074234.568
  20942651.150   -12972794.804 6  -9983960.647 9  20942654.654
  18647334.486   -26002819.716 8 -20110620.375 9  18647336.432
  20201889.268   -16429148.752 7 -12741752.442 9  20201892.936
 94  3 22 23  9 59.9940000  0  5  2 15 26  7 27
  19342492.205   -26326408.545 8 -20386387.568 9  19342494.748
  22078058.393    -5417365.983 6    144616.229 9  22078062.225
  20941772.471   -12977410.261 6  -9987557.134 9  20941775.869
  18644261.619   -26018967.757 8 -20123203.260 9  18644263.565
  20214973.377   -16360392.342 7 -12688176.105 9  20214976.904
 94  3 22 23 10 29.9940000  0  5  2 15 26  7 27
  19341569.619   -26331254.580 8 -20390163.706 9  19341572.186
  22081991.518    -5396702.721 6    160717.494 9  22081995.561
  20940992.830   -12981510.243 6  -9990751.952 9  20940996.463
  18641278.986   -26034642.115 8 -20135417.044 9  18641280.979
  20228121.033   -16291301.827 7 -12634339.418 9  20228124.479
 94  3 22 23 10 59.9940000  0  5  2 15 26  7 27
  19340678.955   -26335937.073 8 -20393812.408 9  19340681.522
  22086025.166    -5375504.475 6    177235.624 9  22086029.479
  20940306.486   -12985116.336 6  -9993561.933 9  20940310.037
  18638387.330   -26049837.044 8 -20147257.242 9  18638389.428
  20241336.619   -16221852.605 6 -12580223.220 9  20241340.158
 94  3 22 23 11 29.9940000  0  5  2 15 26  7 27
  19339821.033   -26340445.954 8 -20397325.824 9  19339823.705
  22090162.174    -5353762.079 6    194177.762 9  22090166.158
  20939716.791   -12988216.706 6  -9995977.826 9  20939720.119
  18635587.104   -26064552.278 8 -20158723.652 9  18635589.061
  20254624.244   -16152027.001 7 -12525813.737 9  20254627.912
 94  3 22 23 11 59.9940000  0  5  2 15 26  7 27
  19338993.963   -26344790.593 8 -20400711.261 9  19338996.588
  22094401.127    -5331487.236 6    211534.789 9  22094405.088
  20939217.580   -12990840.185 6  -9998022.128 9  20939220.861
  18632876.565   -26078795.852 8 -20169822.540 9  18632878.557
  20267984.424   -16081821.528 7 -12471108.254 9  20267987.729
 94  3 22 23 12 29.9940000  0  5  2 15 26  7 27
  19338198.932   -26348969.187 8 -20403967.305 9  19338201.650
  22098741.533    -5308679.311 6    229307.211 9  22098745.295
  20938807.979   -12992991.148 6  -9999698.235 9  20938811.565
  18630255.252   -26092571.465 8 -20180556.777 9  18630257.256
  20281417.713   -16011229.625 7 -12416101.656 9  20281421.346
 94  3 22 23 12 59.9940000  0  5  2 15 26  7 27
  19337435.713   -26352979.707 8 -20407092.381 9  19337438.455
  22103184.260    -5285333.788 6    247498.537 9  22103188.080
  20938491.604   -12994653.953 6 -10000993.954 9  20938495.002
  18627719.861   -26105895.322 8 -20190938.992 9  18627721.783
  20294923.432   -15940256.482 7 -12360797.994 9  20294926.900
 94  3 22 23 13 29.9940000  0  5  2 15 26  7 27
  19336701.900   -26356834.855 8 -20410096.385 9  19336704.631
  22107727.135    -5261458.513 6    266102.644 9  22107731.178
  20938268.963   -12995825.250 6 -10001906.688 9  20938272.221
  18625269.580   -26118769.968 8 -20200971.174 9  18625271.490
  20308494.393   -15868937.741 6 -12305225.027 9  20308497.955
 94  3 22 23 13 59.9940000  0  5  2 15 26  7 27
  19335999.580   -26360526.294 8 -20412972.819 9  19336002.334
  22112372.697    -5237045.330 5    285125.906 9  22112376.986
  20938140.940   -12996498.839 6 -10002431.586 9  20938144.537
  18622906.846   -26131187.476 8 -20210647.147 9  18622908.568
  20322131.947   -15797273.428 6 -12249382.794 9  20322135.334
 94  3 22 23 14 29.9940000  0  5  2 15 26  7 27
  19335327.940   -26364055.336 8 -20415722.715 9  19335330.541
  22117121.174    -5212093.617 5    304568.794 9  22117125.334
  20938110.666   -12996657.868 6 -10002555.530 9  20938114.393
  18620629.119   -26143156.880 8 -20219973.938 9  18620630.959
  20335832.369   -15725277.850 6 -12193282.428 9  20335835.697
 94  3 22 23 14 59.9940000  0  5  2 15 26  7 27
  19334687.283   -26367422.460 8 -20418346.441 9  19334689.885
  22121969.690    -5186613.420 5    324423.499 9  22121973.803
  20938176.244   -12996312.504 6 -10002286.453 9  20938179.619
  18618435.393   -26154684.894 8 -20228956.794 9  18618437.291
  20349590.932   -15652975.743 6 -12136943.208 9  20349594.424
 94  3 22 23 15 29.9940000  0  6  2 15 26  4  7 27
  19334079.057   -26370619.478 8 -20420837.622 9  19334081.576
  22126919.775    -5160603.920 5    344690.639 9  22126923.420
  20938336.908   -12995468.809 6 -10001629.053 9  20938340.178
  22330397.174      -92751.41015
  18616326.533   -26165765.931 8 -20237591.350 9  18616328.385
  20363406.127   -15580377.209 6 -12080373.011 9  20363409.830
 94  3 22 23 15 59.9940000  0  6  2 15 26  4  7 27
  19333503.471   -26373643.098 8 -20423193.687 9  19333506.072
  22131969.283    -5134066.394 5    365369.226 9  22131973.631
  20938592.666   -12994125.199 6 -10000582.111 9  20938596.311
  22307374.822     -213735.523 5    -21995.13319  22307382.607
  18614300.174   -26176416.614 8 -20245890.565 9  18614302.002
  20377279.190   -15507474.348 6 -12023565.671 9  20377282.904
 94  3 22 23 16 29.9940000  0  6  2 15 26  4  7 27
  19332959.877   -26376500.707 8 -20425420.392 9  19332962.537
  22137119.065    -5107003.089 5    386457.528 9  22137122.990
  20938942.650   -12992284.262 6  -9999147.645 9  20938946.014
  22284350.346     -334727.994 5   -116274.689 9  22284357.334
  18612354.002   -26186643.089 8 -20253859.224 9  18612356.018
  20391209.268   -15434271.234 6 -11966524.375 9  20391213.018
 94  3 22 23 16 59.9940000  0  6  2 15 26  4  7 27
  19332446.619   -26379197.391 8 -20427521.699 9  19332449.303
  22142369.565    -5079411.215 5    407957.698 9  22142373.162
  20939385.525   -12989956.322 6  -9997333.700 9  20939388.959
  22261326.330     -455719.219 5   -210553.304 9  22261333.916
  18610489.463   -26196439.847 8 -20261493.042 9  18610491.561
  20405200.088   -15360752.328 6 -11909237.006 9  20405203.908
 94  3 22 23 17 29.9940000  0  6  2 15 26  4  7 27
  19331962.596   -26381741.339 8 -20429503.992 9  19331965.385
  22147720.877    -5051293.075 5    429867.928 9  22147724.568
  20939920.838   -12987146.108 6  -9995143.947 9  20939923.897
  22238302.908     -576708.781 5   -304830.568 9  22238309.682
  18608706.822   -26205808.468 8 -20268793.243 9  18608708.908
  20419254.369   -15286894.204 6 -11851685.313 9  20419258.236
 94  3 22 23 17 59.9940000  0  6  2 15 26  4  7 27
  19331509.354   -26384120.685 8 -20431358.031 9  19331512.283
  22153171.736    -5022644.967 5    452191.138 9  22153175.732
  20940548.338   -12983848.591 6  -9992574.483 9  20940551.549
  22215279.580     -697693.042 5   -399103.776 9  22215286.592
  18607007.385   -26214737.552 8 -20275750.959 9  18607009.330
  20433378.166   -15212672.384 6 -11793850.220 9  20433381.986
 94  3 22 23 18 29.9940000  0  6  2 15 26  4  7 27
  19331088.432   -26386332.944 8 -20433081.871 9  19331091.408
  22158722.580    -4993472.994 5    474922.579 9  22158727.092
  20941267.190   -12980069.524 6  -9989629.775 9  20941270.494
  22192259.565     -818665.114 5   -493367.506 9  22192267.291
  18605394.994   -26223212.154 8 -20282354.525 9  18605396.928
  20447570.260   -15138093.154 6 -11735736.627 9  20447574.361
 94  3 22 23 18 59.9940000  0  6  2 15 26  4  7 27
  19330701.424   -26388367.232 8 -20434667.034 9  19330704.225
  22164372.994    -4963779.568 5    498060.307 9  22164378.467
  20942078.682   -12975807.891 6  -9986309.050 9  20942081.729
  22169241.791     -939624.562 5   -587621.403 9  22169247.744
  18603869.924   -26231226.533 8 -20288599.484 9  18603871.822
  20461830.158   -15063157.885 6 -11677345.600 9  20461834.096
 94  3 22 23 19 29.9940000  0  6  2 15 26  4  7 27
  19330350.174   -26390214.195 8 -20436106.234 9  19330352.893
  22170121.893    -4933569.329 5    521600.775 9  22170126.533
  20942981.369   -12971062.446 6  -9982611.320 9  20942984.639
  22146226.838    -1060571.271 5   -681865.353 9  22146233.506
  18602430.416   -26238791.773 8 -20294494.463 9  18602432.315
  20476153.986   -14987886.188 6 -11618692.426 9  20476157.760
 94  3 22 23 19 59.9940000  0  6  2 15 26  4  7 27
  19330034.400   -26391874.897 8 -20437400.298 9  19330036.932
  22175967.322    -4902851.672 5    545536.608 9  22175971.682
  20943977.369   -12965828.850 6  -9978533.215 9  20943980.779
  22123212.721    -1181507.494 5   -776101.154 9  22123219.604
  18601073.080   -26245924.048 8 -20300052.074 9  18601074.979
  20490536.174   -14912308.563 6 -11559800.869 9  20490539.994
 94  3 22 23 20 29.9940000  0  6  2 15 26  4  7 27
  19329752.760   -26393354.822 8 -20438553.492 9  19329755.115
  22181910.104    -4871621.582 5    569871.749 9  22181914.393
  20945066.322   -12960105.499 6  -9974073.483 9  20945069.662
  22100204.244    -1302416.495 5   -870315.748 9  22100210.479
  18599797.041   -26252628.105 8 -20305276.004 9  18599799.010
  20504973.682   -14836437.049 6 -11500680.301 9  20504977.900
 94  3 22 23 20 59.9940000  0  6  2 15 26  4  7 27
  19329504.815   -26394658.405 8 -20439569.273 9  19329507.182
  22187949.940    -4839882.064 5    594603.849 9  22187953.549
  20946245.166   -12953911.401 6  -9969246.935 9  20946248.600
  22077201.166    -1423300.943 5   -964511.187 9  22077207.811
  18598599.244   -26258923.609 8 -20310181.587 9  18598601.248
  20519466.869   -14760277.544 6 -11441335.324 9  20519471.111
 94  3 22 23 21 29.9940000  0  6  2 15 26  4  7 27
  19329288.549   -26395792.995 8 -20440453.382 9  19329291.139
  22194086.174    -4807638.879 6    619728.415 9  22194089.736
  20947512.072   -12947254.667 6  -9964059.892 9  20947515.377
  22054201.619    -1544159.816 5  -1058686.703 9  22054208.275
  18597478.650   -26264812.552 8 -20314770.370 9  18597480.748
  20534014.393   -14683829.614 6 -11381765.611 9  20534018.647
 94  3 22 23 21 59.9940000  0  7  2 15 26  4  7 27  9
  19329105.416   -26396755.700 8 -20441203.553 9  19329108.029
  22200318.197    -4774889.953 6    645247.066 9  22200322.627
  20948867.369   -12940131.389 6  -9958509.308 9  20948870.943
  22031206.674    -1664995.465 5  -1152844.122 9  22031213.709
  18596438.440   -26270279.487 8 -20319030.317 9  18596440.338
  20548619.760   -14607077.504 6 -11321958.871 9  20548624.049
  22399934.143      -89629.16515
 94  3 22 23 22 29.9940000  0  7  2 15 26  4  7 27  9
  19328955.377   -26397544.325 8 -20441818.068 9  19328958.096
  22206647.127    -4741631.263 5    671162.939 9  22206650.572
  20950309.197   -12932556.060 6  -9952606.485 9  20950312.607
  22008218.908    -1785802.642 5  -1246979.370 9  22008225.107
  18595479.807   -26275316.814 8 -20322955.505 9  18595481.834
  20563286.650   -14530006.154 6 -11261903.366 9  20563290.717
  22377695.838     -206489.481 5    -21239.90119  22377699.506
 94  3 22 23 22 59.9940000  0  7  2 15 26  4  7 27  9
  19328838.502   -26398159.201 8 -20442297.191 9  19328841.197
  22213071.939    -4707867.834 5    697472.121 9  22213075.807
  20951837.221   -12924526.109 6  -9946349.399 9  20951840.408
  21985233.658    -1906583.809 5  -1341094.339 9  21985240.787
  18594603.932   -26279919.865 8 -20326542.294 9  18594606.041
  20578013.705   -14452612.402 6 -11201596.648 9  20578017.982
  22355470.221     -323284.845 5   -112249.204 9  22355473.865
 94  3 22 23 23 29.9940000  0  7  2 15 26  4  7 27  9
  19328756.182   -26398590.093 8 -20442632.949 9  19328759.029
  22219594.565    -4673591.700 5    724180.801 9  22219598.209
  20953454.690   -12916025.968 6  -9939725.941 9  20953458.791
  21962259.611    -2027317.592 5  -1435172.383 9  21962266.279
  18593814.166   -26284069.520 8 -20329775.789 9  18593816.240
  20592805.869   -14374882.126 6 -11141027.699 9  20592810.182
  22333263.736     -439980.824 5   -203181.050 9  22333268.190
 94  3 22 23 23 59.9940000  0  6  2 26  4  7 27  9
  19328710.205   -26398833.073 8 -20442822.282 9  19328712.830
  20955161.143   -12907057.517 6  -9932737.567 9  20955164.881
  21939293.705    -2148000.106 5  -1529210.485 9  21939300.350
  18593107.057   -26287785.938 8 -20332671.694 9  18593109.213
  20607659.565   -14296827.560 6 -11080206.058 9  20607663.514
  22311076.416     -556575.979 5   -294034.341 9  22311080.459
 94  3 22 23 24 29.9940000  0  6  2 26  4  7 27  9
  19328698.596   -26398893.266 8 -20442869.190 9  19328701.104
  20956956.463   -12897625.281 6  -9925387.799 9  20956959.873
  21916339.815    -2268622.878 5  -1623202.063 9  21916346.600
  18592480.057   -26291079.924 8 -20335238.436 9  18592482.213
  20622571.971   -14218461.310 6 -11019141.543 9  20622576.072
  22288909.002     -673069.573 5   -384808.527 9  22288912.658
 94  3 22 23 24 59.9940000  0  6  2 26  4  7 27  9
  19328722.236   -26398770.328 8 -20442773.390 9  19328724.627
  20958841.979   -12887715.164 6  -9917665.657 9  20958845.236
  21893397.174    -2389188.456 5  -1717149.072 9  21893403.174
  18591932.369   -26293958.267 8 -20337481.294 9  18591934.373
  20637541.471   -14139794.345 6 -10957842.720 9  20637546.135
  22266763.049     -789443.818 5   -475489.669 9  22266767.361
 94  3 22 23 25 29.9940000  0  6  2 26  4  7 27  9
  19328781.190   -26398460.258 8 -20442531.778 9  19328783.557
  20960820.643   -12877318.719 6  -9909564.557 9  20960824.240
  21870463.908    -2509700.910 5  -1811054.711 9  21870468.889
  18591462.611   -26296427.445 8 -20339405.314 9  18591464.533
  20652567.424   -14060831.165 6 -10896313.070 9  20652571.912
  22244640.690     -905698.289 5   -566077.512 9  22244644.229
 94  3 22 23 25 59.9940000  0  6  2 26  4  7 27  9
  19328873.854   -26397973.618 8 -20442152.574 9  19328876.373
  20962890.604   -12866439.251 6  -9901087.089 9  20962893.932
  21847537.135    -2630182.243 5  -1904936.103 9  21847542.408
  18591067.643   -26298502.527 7 -20341022.249 9  18591069.705
  20667647.158   -13981589.107 6 -10834566.117 9  20667651.494
  22222534.721    -1021864.633 5   -656596.628 9  22222538.635
 94  3 22 23 26 29.9940000  0  6  2 26  4  7 27  9
  19329000.885   -26397305.714 8 -20441632.121 9  19329003.334
  20965055.354   -12855065.080 6  -9892224.128 9  20965058.846
  21824617.338    -2750625.457 5  -1998787.794 9  21824622.822
  18590753.979   -26300150.769 7 -20342306.582 9  18590755.982
  20682782.283   -13902052.883 6 -10772589.947 9  20682786.877
  22200447.010    -1137937.676 5   -747043.081 9  22200451.053
 94  3 22 23 26 59.9930000  0  6  2 26  4  7 27  9
  19329163.333   -26396451.670 8 -20440966.631 9  19329165.817
  20967312.825   -12843202.660 6  -9882980.713 9  20967316.388
  21801706.333    -2871021.068 5  -2092602.414 9  21801712.274
  18590522.130   -26301368.962 7 -20343255.809 9  18590524.239
  20697976.028   -13822212.385 6 -10710376.676 9  20697980.306
  22178377.317    -1253912.555 5   -837413.048 9  22178380.962
 94  3 22 23 27 29.9930000  0  6  2 26  4  7 27  9
  19329362.200   -26395407.443 8 -20440152.940 9  19329364.743
  20969660.294   -12830865.041 6  -9873367.014 9  20969663.610
  21778805.567    -2991364.322 5  -2186376.218 9  21778810.665
  18590372.942   -26302152.270 7 -20343866.162 9  18590375.157
  20713230.271   -13742048.878 6 -10647911.713 9  20713234.618
  22156323.349    -1369806.453 5   -927719.881 9  22156328.083
 94  3 22 23 27 59.9930000  0  6  2 26  4  7 27  9
  19329597.825   -26394169.158 8 -20439188.041 9  19329600.157
  20972095.239   -12818071.155 6  -9863397.782 9  20972098.989
  21755915.802    -3111653.095 5  -2280107.601 9  21755922.142
  18590305.153   -26302508.645 7 -20344143.843 9  18590307.532
  20728546.294   -13661564.058 6 -10585196.377 9  20728550.817
  22134286.552    -1485611.410 5  -1017957.411 9  22134290.349
 94  3 22 23 28 29.9930000  0  6  2 26  4  7 27  9
  19329867.677   -26392751.315 8 -20438083.231 9  19329870.114
  20974612.731   -12804840.147 6  -9853087.948 9  20974616.107
  21733037.317    -3231879.767 5  -2373790.569 9  21733043.376
  18590316.927   -26302447.449 7 -20344096.140 9  18590319.165
  20743922.880   -13580761.247 6 -10522233.254 9  20743927.392
  22112270.481    -1601305.903 5  -1108108.846 9  22112274.747
 94  3 22 23 28 59.9930000  0  6  2 26  4  7 27  9
  19330171.903   -26391151.626 8 -20436836.717 9  19330174.376
  20977211.638   -12791185.035 6  -9842447.633 9  20977215.177
  21710173.099    -3352035.059 5  -2467417.963 9  21710179.579
  18590405.060   -26301983.642 7 -20343734.716 9  18590407.380
  20759358.130   -13499642.790 6 -10459024.178 9  20759362.911
  22090277.833    -1716875.946 5  -1198163.334 9  22090281.255
 94  3 22 23 29 29.9930000  0  6  2 26  4  7 27  9
  19330511.653   -26389366.817 8 -20435445.953 9  19330514.044
  20979888.974   -12777112.966 6  -9831482.421 9  20979892.524
  21687319.005    -3472127.110 5  -2560996.025 9  21687325.146
  18590569.927   -26301116.289 7 -20343058.831 9  18590572.083
  20774851.364   -13418228.971 6 -10395584.947 9  20774856.005
  22068308.989    -1832321.282 5  -1288120.639 9  22068312.915
 94  3 22 23 29 59.9930000  0  6  2 26  4  7 27  9
  19330885.794   -26387399.834 8 -20433913.246 9  19330888.196
  20982647.044   -12762620.840 6  -9820189.894 9  20982650.653
  21664479.146    -3592152.317 6  -2654522.040 9  21664485.017
  18590814.333   -26299833.394 7 -20342059.153 9  18590816.431
  20790398.896   -13336527.759 6 -10331921.769 9  20790403.782
  22046366.052    -1947634.055 5  -1377974.657 9  22046370.200
 94  3 22 23 30 29.9930000  0  6  2 26  4  7 27  9
  19331293.552   -26385257.246 8 -20432243.705 9  19331296.142
  20985484.349   -12747711.452 6  -9808572.233 9  20985487.806
  21641656.896    -3712086.792 6  -2747977.329 9  21641663.364
  18591138.786   -26298127.813 7 -20340730.114 9  18591140.884
  20805999.013   -13254544.636 6 -10268038.924 9  20806003.794
  22024449.325    -2062810.361 6  -1467722.323 9  22024452.173
 94  3 22 23 30 59.9930000  0  6  2 26  4  7 27  9
  19331738.396   -26382918.965 8 -20430421.673 9  19331740.962
  20988402.286   -12732377.471 6  -9796623.704 9  20988405.649
  21618851.747    -3831926.376 6  -2841358.672 9  21618858.146
  18591544.685   -26295995.122 7 -20339068.255 9  18591546.794
  20821653.325   -13172286.510 6 -10203941.800 9  20821657.802
  22002555.458    -2177856.273 5  -1557368.392 9  22002559.231
 94  3 22 23 31 29.9930000  0  6  2 26  4  7 27  9
  19332219.185   -26380391.698 8 -20428452.363 9  19332221.810
  20991399.903   -12716626.515 6  -9784350.267 9  20991403.595
  21596064.286    -3951674.842 6  -2934669.020 9  21596070.263
  18592029.450   -26293446.938 7 -20337082.650 9  18592031.419
  20837356.427   -13089767.061 6 -10139641.039 9  20837360.751
  21980686.544    -2292778.533 5  -1646918.092 9  21980689.837
 94  3 22 23 31 59.9930000  0  6  2 26  4  7 27  9
  19332732.919   -26377693.270 8 -20426349.698 9  19332735.333
  20994476.700   -12700454.245 6  -9771748.533 9  20994480.310
  21573297.224    -4071317.062 6  -3027896.556 9  21573302.321
  18592590.442   -26290499.755 7 -20334786.124 9  18592592.622
  20853108.810   -13006984.580 6 -10075135.321 9  20853113.427
  21958842.231    -2407571.365 5  -1736366.935 9  21958846.157
 94  3 22 23 32 29.9930000  0  6  2 26  4  7 27  9
  19333280.544   -26374816.350 8 -20424107.948 9  19333283.099
  20997636.271   -12683853.191 6  -9758812.668 9  20997639.669
  21550551.450    -4190842.717 6  -3121033.255 9  21550558.060
  18593223.927   -26287169.439 7 -20332191.056 9  18593225.978
  20868911.489   -12923943.237 6 -10010427.892 9  20868916.001
  21937022.872    -2522233.969 5  -1825714.339 9  21937026.915
 94  3 22 23 32 59.9930000  0  6  2 26  4  7 27  9
  19333863.544   -26371752.375 8 -20421720.443 9  19333865.853
  21000879.255   -12666810.267 6  -9745532.499 9  21000883.157
  21527827.833    -4310253.460 5  -3214080.414 9  21527833.212
  18593928.692   -26283466.221 7 -20329305.422 9  18593930.814
  20884762.567   -12840644.216 6  -9945519.674 9  20884767.220
  21915227.911    -2636764.541 5  -1914958.831 9  21915232.118
 94  3 22 23 33 29.9930000  0  6  2 26  4  7 27  9
  19334482.708   -26368498.028 8 -20419184.596 9  19334485.204
  21004210.755   -12649302.495 6  -9731890.107 9  21004214.458
  21505129.536    -4429532.156 5  -3307024.670 9  21505134.774
  18594705.810   -26279382.927 7 -20326123.622 9  18594707.872
  20900667.271   -12757066.367 6  -9880394.185 9  20900672.274
  21893460.099    -2751152.278 5  -2004092.010 9  21893464.212
 94  3 22 23 33 59.9930000  0  6  2 26  4  7 27  9
  19335138.833   -26365051.304 8 -20416498.838 9  19335141.306
  21007634.239   -12631312.993 6  -9717872.343 9  21007637.966
  21482456.208    -4548687.616 6  -3399872.898 9  21482461.446
  18595555.388   -26274916.460 7 -20322643.243 9  18595557.462
  20916624.771   -12673207.070 6  -9815049.398 9  20916629.353
  21871717.583    -2865414.151 5  -2093127.138 9  21871721.204
 94  3 22 23 34 29.9930000  0  6  2 26  4  7 27  9
  19335833.216   -26361402.113 8 -20413655.308 9  19335835.817
  21011147.731   -12612848.451 6  -9703484.417 9  21011151.599
  21459800.185    -4667744.523 6  -3492644.323 9  21459804.966
  18596479.513   -26270062.069 7 -20318860.584 9  18596481.634
  20932635.161   -12589076.616 6  -9749493.314 9  20932639.942
  21849996.192    -2979560.030 5  -2182071.854 9  21849999.884
 94  3 22 23 34 59.9930000  0  6  2 26  4  7 27  9
  19336564.146   -26357560.713 8 -20410662.003 9  19336566.806
  21014746.606   -12593937.108 6  -9688748.334 9  21014750.380
  21437157.208    -4786733.685 6  -3585362.970 9  21437162.224
  18597479.536   -26264807.486 7 -20314766.094 9  18597481.622
  20948695.224   -12504681.924 6  -9683731.329 9  20948700.181
  21828293.810    -3093605.472 5  -2270938.302 9  21828297.220
 94  3 22 23 35 29.9930000  0  6  2 26  4  7 27  9
  19337331.247   -26353527.738 8 -20407519.421 9  19337334.095
  21018431.028   -12574576.353 6  -9673662.054 9  21018435.001
  21414527.060    -4905653.020 6  -3678027.205 9  21414532.228
  18598560.544   -26259126.233 7 -20310339.138 9  18598562.595
  20964806.989   -12420011.452 6  -9617754.456 9  20964812.052
  21806611.942    -3207549.493 6  -2359725.732 9  21806615.446
 94  3 22 23 35 59.9930000  0  6  2 26  4  7 27  9
  19338135.372   -26349303.093 8 -20404227.488 9  19338138.126
  21022197.208   -12554782.039 6  -9658237.949 9  21022200.782
  21391911.950    -5024494.272 6  -3770630.604 9  21391916.415
  18599723.138   -26253016.487 7 -20305578.291 9  18599725.142
  20980970.591   -12335068.406 6  -9551565.179 9  20980975.829
  21784949.333    -3321385.367 6  -2448428.940 9  21784952.837
 94  3 22 23 36 29.9930000  0  6  2 26  4  7 27  9
  19338972.731   -26344902.772 8 -20400798.663 9  19338975.532
  21026040.567   -12534587.142 6  -9642501.697 9  21026044.446
  21369315.083    -5143240.458 6  -3863159.935 9  21369320.040
  18600965.872   -26246486.426 7 -20300489.925 9  18600967.782
  20997184.591   -12249866.816 6  -9485174.450 9  20997189.314
  21763307.474    -3435108.999 5  -2537044.645 9  21763311.024
 94  3 22 23 36 59.9930000  0  6  2 26  4  7 27  9
  19339844.013   -26340323.589 8 -20397230.461 9  19339846.743
  21029961.708   -12513981.100 6  -9626445.077 9  21029965.599
  21346744.169    -5261849.716 6  -3955582.578 9  21346749.267
  18602286.177   -26239548.106 7 -20295083.433 9  18602287.970
  21013450.153   -12164392.459 6  -9418571.176 9  21013454.560
  21741690.966    -3548707.126 6  -2625562.570 9  21741694.646
 94  3 22 23 37 29.9930000  0  6  2 26  4  7 27  9
  19340751.185   -26335556.269 8 -20393515.662 9  19340753.845
  21033965.216   -12492942.511 6  -9610051.401 9  21033969.106
  21324207.435    -5380280.382 6  -4047866.060 9  21324212.825
  18603679.341   -26232226.097 7 -20289377.963 9  18603681.286
  21029768.911   -12078637.022 6  -9351748.879 9  21029773.458
  21720102.958    -3662148.652 6  -2713958.478 9  21720106.544
 94  3 22 23 37 59.9930000  0  6  2 26  4  7 27  9
  19341695.177   -26330596.811 8 -20389651.149 9  19341697.755
  21038046.763   -12471493.904 6  -9593338.242 9  21038050.524
  21301705.536    -5498530.009 6  -4140008.491 9  21301710.728
  18605138.653   -26224557.546 7 -20283402.460 9  18605140.657
  21046136.528   -11992623.885 6  -9284725.776 9  21046141.333
  21698547.356    -3775425.694 6  -2802226.209 9  21698550.638
 94  3 22 23 38 29.9930000  0  6  2 26  4  7 27  9
  19342676.021   -26325442.465 8 -20385634.776 9  19342678.728
  21042205.575   -12449640.235 6  -9576309.445 9  21042209.314
  21279235.231    -5616612.819 6  -4232020.922 9  21279241.067
  18606661.341   -26216555.675 7 -20277167.221 9  18606663.274
  21062550.271   -11906370.183 6  -9217515.224 9  21062555.181
  21677023.731    -3888534.128 6  -2890362.546 9  21677027.189
 94  3 22 23 38 59.9930000  0  6  2 26  4  7 27  9
  19343695.724   -26320083.651 8 -20381459.078 9  19343698.384
  21046443.739   -12427369.779 6  -9558955.874 9  21046447.302
  21256793.653    -5734543.318 6  -4323914.681 9  21256798.482
  18608247.528   -26208219.073 7 -20270671.155 9  18608249.614
  21079012.169   -11819861.937 6  -9150106.339 9  21079016.739
  21655537.286    -4001446.314 6  -2978346.013 9  21655540.497
 94  3 22 23 39 29.9930000  0  6  2 26  4  7 27  9
  19344752.200   -26314530.912 8 -20377132.267 9  19344754.872
  21050757.028   -12404703.713 6  -9541294.048 9  21050760.872
  21234374.896    -5852355.443 6  -4415716.205 9  21234380.439
  18609900.185   -26199534.261 7 -20263903.754 9  18609902.306
  21095521.106   -11733111.606 6  -9082508.814 9  21095526.134
  21634088.419    -4114160.967 6  -3066175.518 9  21634091.466
 94  3 22 23 39 59.9930000  0  6  2 26  4  7 27  9
  19345846.263   -26308781.177 8 -20372651.950 9  19345849.064
  21055145.833   -12381640.969 6  -9523323.118 9  21055149.267
  21211976.060    -5970058.785 6  -4507432.965 9  21211981.087
  18611624.638   -26190472.447 7 -20256842.580 9  18611626.724
  21112074.872   -11646117.824 6  -9014721.595 9  21112080.239
  21612675.685    -4226685.334 6  -3153856.741 9  21612679.271
 94  3 22 23 40 29.9930000  0  6  2 26  4  7 27  9
  19346972.583   -26302862.641 8 -20368040.108 9  19346975.454
  21059608.841   -12358186.804 6  -9505047.171 9  21059612.392
  21189595.091    -6087674.354 6  -4599081.344 9  21189600.540
  18613423.341   -26181019.316 7 -20249476.488 9  18613425.521
  21128674.028   -11558888.900 6  -8946751.149 9  21128679.325
  21591294.739    -4339041.497 6  -3241406.912 9  21591298.103
 94  3 22 23 40 59.9930000  0  6  2 26  4  7 27  9
  19348131.177   -26296774.456 8 -20363296.069 9  19348133.989
  21064146.716   -12334340.208 6  -9486465.453 9  21064150.325
  21167232.357    -6205189.201 6  -4690651.238 9  21167236.950
  18615299.036   -26171163.551 7 -20241796.654 9  18615301.192
  21145318.310   -11471421.369 6  -8878594.776 9  21145323.630
  21569943.263    -4451243.387 6  -3328836.871 9  21569946.755
 94  3 22 23 41 29.9930000  0  6  2 26  4  7 27  9
  19349326.794   -26290491.366 8 -20358400.157 9  19349329.548
  21068760.341   -12310095.387 6  -9467573.422 9  21068763.939
  21144892.497    -6322584.873 6  -4782128.249 9  21144897.196
  18617252.021   -26160899.285 7 -20233798.498 9  18617254.142
  21162005.372   -11383734.226 6  -8810267.281 9  21162010.997
  21548617.286    -4563309.439 6  -3416160.986 9  21548620.931
 94  3 22 23 41 59.9930000  0  6  2 26  4  7 27  9
  19350562.560   -26283997.272 8 -20353339.826 9  19350565.325
  21073452.356   -12285439.964 6  -9448361.444 9  21073455.954
  21122579.380    -6439839.839 6  -4873495.637 9  21122584.079
  18619281.833   -26150232.840 7 -20225486.969 9  18619284.013
  21178733.638   -11295829.436 6  -8741770.172 9  21178738.876
  21527318.138    -4675241.161 6  -3503380.396 9  21527321.689
 94  3 22 23 42 29.9930000  0  6  2 26  4  7 27  9
  19351839.778   -26277286.547 8 -20348110.694 9  19351842.556
  21078221.810   -12260376.512 6  -9428831.521 9  21078225.466
  21100294.146    -6556950.615 6  -4964750.655 9  21100298.880
  18621384.419   -26139184.560 7 -20216877.903 9  18621386.704
  21195501.224   -11207709.150 6  -8673105.144 9  21195506.497
  21506044.161    -4787033.414 6  -3590491.159 9  21506047.478
 94  3 22 23 42 59.9930000  0  6  2 26  4  7 27  9
  19353160.896   -26270343.917 8 -20342700.850 9  19353163.556
  21083068.325   -12234909.150 6  -9408986.865 9  21083071.806
  21078035.021    -6673919.025 6  -5055894.727 9  21078039.755
  18623553.169   -26127786.652 7 -20207996.403 9  18623555.173
  21212311.505   -11119373.446 6  -8604272.259 9  21212316.614
  21484798.286    -4898682.103 6  -3677490.025 9  21484801.802
 94  3 22 23 43 29.9930000  0  6  2 26  4  7 27  9
  19354525.833   -26263172.098 8 -20337112.418 9  19354528.458
  21087989.646   -12209043.751 6  -9388832.049 9  21087993.489
  21055803.474    -6790746.585 6  -5146929.054 9  21055807.892
  18625786.450   -26116049.824 7 -20198850.807 9  18625788.396
  21229163.817   -11030814.856 6  -8535265.699 9  21229168.903
  21463583.896    -5010165.831 6  -3764360.368 9  21463587.036
 94  3 22 23 43 59.9930000  0  6  2 26  4  7 27  9
  19355929.091   -26255796.968 8 -20331365.563 9  19355931.798
  21092988.239   -12182777.113 6  -9368364.587 9  21092992.071
  21033601.583    -6907420.348 6  -5237843.541 9  21033606.071
  18628085.083   -26103971.374 7 -20189439.014 9  18628087.087
  21246062.927   -10942013.941 6  -8466070.312 9  21246068.165
  21442405.122    -5121460.002 6  -3851083.019 9  21442408.591
 94  3 22 23 44 29.9930000  0  6  2 26  4  7 27  9
  19357369.458   -26248226.445 8 -20325466.455 9  19357372.142
  21098060.950   -12156121.114 6  -9347593.721 9  21098064.735
  21011428.935    -7023937.831 6  -5328636.236 9  21011433.880
  18630450.192   -26091543.030 7 -20179754.583 9  18630452.302
  21263008.083   -10852963.011 6  -8396680.098 9  21263013.415
  21421265.716    -5232548.103 6  -3937645.061 9  21421269.138
 94  3 22 23 44 59.9930000  0  6  2 26  4  7 27  9
  19358843.630   -26240479.747 8 -20319430.067 9  19358846.267
  21103202.216   -12129102.529 6  -9326540.330 9  21103206.048
  20989287.380    -7140292.377 6  -5419301.972 9  20989291.856
  18632883.341   -26078756.464 7 -20169791.013 9  18632885.415
  21279997.466   -10763681.923 5  -8327110.535 9  21280002.646
  21400166.591    -5343424.240 6  -4024041.966 9  21400169.614
 94  3 22 23 45 29.9930000  0  6  2 26  4  7 27  9
  19360351.997   -26232553.963 8 -20313254.125 9  19360354.646
  21108414.185   -12101714.381 6  -9305198.960 9  21108417.806
  20967183.802    -7256446.951 6  -5509811.878 9  20967188.278
  18635390.231   -26065582.129 7 -20159525.292 9  18635392.505
  21297033.255   -10674161.190 5  -8257354.242 9  21297038.692
  21379110.130    -5454073.928 6  -4110262.395 9  21379113.306
 94  3 22 23 45 59.9930000  0  6  2 26  4  7 27  9
  19361893.122   -26224456.214 8 -20306944.181 9  19361895.759
  21113697.622   -12073949.794 6  -9283564.274 9  21113701.466
  20945119.216    -7372395.215 6  -5600161.029 9  20945123.927
  18637971.177   -26052019.698 7 -20148957.157 9  18637973.415
  21314111.935   -10584412.309 5  -8187420.186 9  21314117.231
  21358096.239    -5564504.113 6  -4196311.811 9  21358099.192
 94  3 22 23 46 29.9930000  0  6  2 26  4  7 27  9
  19363472.817   -26216155.226 8 -20300475.875 9  19363475.548
  21119051.622   -12045813.800 6  -9261640.173 9  21119055.138
  20923094.364    -7488137.425 6  -5690349.617 9  20923099.321
  18640626.677   -26038065.445 7 -20138083.706 9  18640628.880
  21331234.450   -10494437.815 5  -8117310.329 9  21331240.603
  21337121.450    -5674726.289 6  -4282199.119 9  21337124.579
 94  3 22 23 46 59.9930000  0  6  2 26  4  7 27  9
  19365092.622   -26207642.035 8 -20293842.211 9  19365095.247
  21124478.091   -12017299.619 6  -9239421.383 9  21124481.536
  20901110.388    -7603662.946 6  -5780369.353 9  20901115.216
  18643352.255   -26023741.531 7 -20126922.207 9  18643354.470
  21348395.450   -10404249.931 5  -8047034.197 9  21348401.708
  21316183.356    -5784754.491 6  -4367935.306 9  21316186.509
 94  3 22 23 47 29.9930000  0  6  2 26  4  7 27  9
  19366753.911   -26198912.125 8 -20287039.676 9  19366756.560
  21129978.872   -11988392.699 6  -9216896.566 9  21129982.657
  20879165.794    -7718980.114 6  -5870226.742 9  20879170.517
  18646144.575   -26009070.474 7 -20115490.213 9  18646146.567
  21365597.981   -10313847.587 5  -7976590.942 9  21365603.876
  21295280.075    -5894603.508 6  -4453531.857 9  21295282.993
 94  3 22 23 47 59.9930000  0  6  2 26  4  7 27  9
  19368458.364   -26189954.633 8 -20280059.800 9  19368461.060
  21135553.231   -11959098.896 6  -9194070.290 9  21135557.403
  20857258.614    -7834105.026 6  -5959934.308 9  20857263.138
  18649002.583   -25994050.716 7 -20103786.502 9  18649004.493
  21382841.958   -10223235.368 5  -7905984.153 9  21382848.356
  21274410.817    -6004270.772 6  -4538986.775 9  21274413.829
 94  3 22 23 48 29.9930000  0  6  2 26  4  7 27  9
  19370206.200   -26180768.295 8 -20272901.609 9  19370208.825
  21141196.310   -11929445.822 6  -9170964.043 9  21141199.755
  20835385.036    -7949051.508 6  -6049502.843 9  20835389.290
  18651921.896   -25978707.630 7 -20091830.842 9  18651923.935
  21400122.560   -10132428.270 5  -7835225.506 9  21400128.208
  21253575.552    -6113762.214 6  -4624304.707 9  21253577.966
 94  3 22 23 48 59.9930000  0  6  2 26  4  7 27  9
  19371994.731   -26171370.121 8 -20265578.353 9  19371997.263
  21146908.106   -11899430.176 6  -9147575.283 9  21146911.528
  20813546.575    -8063813.625 6  -6138927.714 9  20813550.724
  18654902.185   -25963045.180 7 -20079626.327 9  18654904.259
  21417441.138   -10041422.380 5  -7764311.976 9  21417446.856
  21232776.856    -6223057.595 6  -4709469.867 9  21232779.610
 94  3 22 23 49 29.9930000  0  6  2 26  4  7 27  9
  19373823.138   -26161762.947 8 -20258092.235 9  19373825.423
  21152687.411   -11869057.825 6  -9123908.565 9  21152691.431
  20791740.271    -8178400.075 6  -6228215.702 9  20791744.665
  18657947.864   -25947041.033 7 -20067155.555 9  18657949.962
  21434796.864    -9950215.155 5  -7693241.553 9  21434802.079
  21212017.622    -6332149.539 6  -4794476.492 9  21212020.646
 94  3 22 23 49 59.9930000  0  6  2 26  4  7 27  9
  19375691.653   -26151943.333 8 -20250440.578 9  19375694.103
  21158532.622   -11838341.403 6  -9099973.738 9  21158536.864
  20769971.028    -8292802.943 6  -6317360.634 9  20769975.294
  18661058.427   -25930694.212 7 -20054417.762 9  18661060.642
  21452191.216    -9858804.715 5  -7622012.772 9  21452196.302
  21191297.872    -6441033.951 6  -4879321.401 9  21191300.731
 94  3 22 23 50 29.9930000  0  6  2 26  4  7 27  9
  19377600.427   -26141913.961 8 -20242625.484 9  19377602.712
  21164444.075   -11807277.726 6  -9075768.326 9  21164447.450
  20748240.489    -8406994.992 6  -6406341.293 9  20748244.966
  18664233.771   -25914009.242 7 -20041416.469 9  18664235.810
  21469624.341    -9767191.883 5  -7550626.296 9  21469629.720
  21170618.458    -6549703.209 6  -4963998.671 9  21170621.282
 94  3 22 23 50 59.9930000  0  6  2 26  4  7 27  9
  19379547.021   -26131685.738 8 -20234655.440 9  19379549.189
  21170420.247   -11775871.928 6  -9051296.339 9  21170424.056
  20726549.310    -8520979.259 6  -6495160.052 9  20726553.716
  18667472.771   -25896987.974 7 -20028153.128 9  18667474.915
  21487094.606    -9675388.078 5  -7479090.985 9  21487099.939
  21149978.263    -6658168.096 6  -5048516.687 9  21149980.747
 94  3 22 23 51 29.9930000  0  6  2 26  4  7 27  9
  19381531.403   -26121256.624 8 -20226528.850 9  19381533.689
  21176460.169   -11744133.082 6  -9026564.809 9  21176463.802
  20704898.091    -8634760.226 6  -6583820.391 9  20704902.251
  18670773.419   -25879643.214 7 -20014637.714 9  18670775.552
  21504597.614    -9583408.773 5  -7407418.932 9  21504602.712
  21129375.302    -6766437.078 6  -5132882.043 9  21129378.161
 94  3 22 23 51 59.9930000  0  6  2 26  4  7 27  9
  19383553.474   -26110630.569 8 -20218248.806 9  19383555.888
  21182562.403   -11712066.488 6  -9001577.904 9  21182566.106
  20683285.669    -8748333.495 6  -6672318.902 9  20683289.513
  18674131.161   -25861998.308 7 -20000888.414 9  18674133.247
  21522133.849    -9491257.025 5  -7335612.514 9  21522140.048
  21108811.083    -6874501.019 6  -5217087.625 9  21108814.493
 94  3 22 23 52 29.9930000  0  6  2 26  4  7 27  9
  19385608.841   -26099828.427 8 -20209831.550 9  19385611.290
  21188724.630   -11679682.914 6  -8976343.998 9  21188728.321
  20661709.005    -8861717.836 6  -6760670.188 9  20661712.837
  18677544.966   -25844058.105 7 -19986909.016 9  18677547.064
  21539699.685    -9398948.283 5  -7263683.773 9  21539705.989
  21088286.896    -6982354.387 6  -5301129.140 9  21088289.837
 94  3 22 23 52 59.9930000  0  6  2 26  4  7 27  9
  19387697.224   -26088853.005 8 -20201279.276 9  19387699.837
  21194948.888   -11646975.115 6  -8950857.440 9  21194952.415
  20640166.802    -8974924.783 6  -6848883.260 9  20640170.716
  18681015.177   -25825822.546 7 -19972699.474 9  18681017.181
  21557295.857    -9306474.922 5  -7191626.750 9  21557302.665
  21067805.247    -7089987.997 6  -5384999.406 9  21067808.446
 94  3 22 23 53 29.9930000  0  6  2 26  4  7 27  9
  19389820.091   -26077697.571 8 -20192586.723 9  19389822.751
  21201237.052   -11613928.812 6  -8925107.122 9  21201241.235
  20618660.638    -9087940.562 6  -6936947.376 9  20618664.446
  18684546.138   -25807265.779 7 -19958239.632 9  18684548.189
  21574929.903    -9213814.575 5  -7119424.061 9  21574935.728
  21047367.802    -7197387.886 6  -5468687.543 9  21047370.509
 94  3 22 23 53 59.9930000  0  6  2 26  4  7 27  9
  19391976.700   -26066364.575 8 -20183755.807 9  19391979.407
  21207592.700   -11580529.983 6  -8899082.109 9  21207596.333
  20597192.763    -9200753.534 6  -7024853.459 9  20597196.478
  18688141.427   -25788371.854 7 -19943517.074 9  18688143.466
  21592599.442    -9120961.076 5  -7047070.815 9  21592606.431
  21026974.700    -7304555.222 6  -5552194.503 9  21026977.864
 94  3 22 23 54 29.9930000  0  7  2 12 26  4  7 27  9
  19394168.396   -26054845.661 8 -20174780.024 9  19394171.231
  21932399.481      -40514.730 4    -34440.66019  21932404.786
  21214017.692   -11546766.117 6  -8872772.643 9  21214021.606
  20575763.888    -9313360.217 6  -7112598.805 9  20575767.954
  18691803.630   -25769126.822 7 -19928520.923 9  18691805.774
  21610306.356    -9027909.582 5  -6974563.333 9  21610312.064
  21006623.310    -7411500.533 6  -5635528.413 9  21006626.157
 94  3 22 23 54 59.9930000  0  7  2 12 26  4  7 27  9
  19396399.005   -26043124.336 8 -20165646.515 9  19396401.841
  21911373.716     -151004.487 4   -120536.479 9  21911379.243
  21220514.802   -11512625.450 6  -8846169.568 9  21220518.728
  20554379.247    -9425740.217 6  -7200167.507 9  20554383.114
  18695533.122   -25749527.405 7 -19913248.629 9  18695535.349
  21628053.825    -8934649.526 5  -6901893.294 9  21628060.528
  20986311.200    -7518243.660 6  -5718704.814 9  20986313.521
 94  3 22 23 55 29.9930000  0  7  2 12 26  4  7 27  9
  19398670.544   -26031187.180 7 -20156344.836 9  19398673.474
  21890351.724     -261473.639 4   -206616.223 9  21890357.649
  21227081.317   -11478118.495 6  -8819281.071 9  21227085.595
  20533038.810    -9537885.621 6  -7287553.415 9  20533042.325
  18699329.685   -25729576.796 7 -19897702.683 9  18699331.911
  21645837.474    -8841193.965 5  -6829070.964 9  21645843.872
  20966035.802    -7624788.668 6  -5801726.814 9  20966038.474
 94  3 22 23 55 59.9930000  0  7  2 12 26  4  7 27  9
  19400984.966   -26019023.662 7 -20146866.766 9  19400987.661
  21869334.067     -371920.265 4   -292678.418 9  21869340.099
  21233712.856   -11443267.727 6  -8792124.676 9  21233716.548
  20511741.841    -9649800.584 6  -7374759.756 9  20511745.579
  18703188.622   -25709298.139 7 -19881901.115 9  18703190.884
  21663654.942    -8747562.550 5  -6756111.573 9  21663661.931
  20945798.052    -7731140.360 6  -5884598.189 9  20945800.653
 94  3 22 23 56 29.9930000  0  7  2 12 26  4  7 27  9
  19403344.521   -26006624.088 7 -20137204.753 9  19403347.239
  21848320.825     -482345.892 4   -378724.240 9  21848326.224
  21240402.942   -11408113.698 6  -8764731.975 9  21240407.196
  20490487.372    -9761490.519 6  -7461790.747 9  20490490.888
  18707105.950   -25688712.524 7 -19865860.359 9  18707108.118
  21681503.677    -8653769.593 5  -6683026.328 9  21681510.958
  20925596.935    -7837293.905 6  -5967315.158 9  20925599.548
 94  3 22 23 56 59.9930000  0  7  2 12 26  4  7 27  9
  19405750.661   -25993980.265 7 -20127352.418 9  19405753.392
  21827313.442     -592741.946 5   -464747.058 9  21827317.974
  21247147.638   -11372672.105 6  -8737115.191 9  21247151.528
  20469278.880    -9872941.770 6  -7548635.742 9  20469282.454
  18711080.114   -25667829.447 7 -19849587.825 9  18711082.142
  21699381.630    -8559818.559 5  -6609817.899 9  21699388.853
  20905439.247    -7943224.405 6  -6049858.331 9  20905441.661
